[[{"header":{"parameterUnit":"m.s-1","parameterCategory":1,"la1":30.6,"la2":29.2853,"lo1":-89.7004,"lo2":-87.6739,"dx":0.0162,"dy":0.0183,"nx":112,"ny":82,"refTime":"2023-01-29T18:00:00:Z","depth":0,"parameterNumber":2,"parameterNumberName":"U-component_of_WINDS"},"data":[0.0,0.0,0.0,0.0,0.0,0.0,0.0,0.0,0.0,0.0,0.0,0.0,0.0,0.0,0.0,0.0,0.0,0.0,0.0,0.0,0.0,0.0,0.0,0.0,0.0,0.0,0.0,0.0,0.0,0.0,0.0,0.0,0.0,0.0,0.0,0.0,0.0,0.0,0.0,0.0,0.0,0.0,0.0,0.0,0.0,0.0,0.0,0.0,0.0,0.0,0.0,0.0,0.0,0.0,0.0,0.0,0.0,0.0,0.0,0.0,0.0,0.0,0.0,0.0,0.0,0.0,0.0,0.0,0.0,0.0,0.0,0.0,0.0,0.0,0.0,0.0,0.0,0.0,0.0,0.0,0.0,0.0,0.0,0.0,0.0,0.0,0.0,0.0,0.0,0.0,-4.4537,-4.4354,-4.4055,-4.3816,-4.3788,-4.3771,-4.382,-4.3865,0.0,0.0,0.0,0.0,0.0,0.0,0.0,0.0,0.0,0.0,0.0,0.0,0.0,0.0,0.0,0.0,0.0,0.0,0.0,0.0,0.0,0.0,0.0,0.0,0.0,0.0,0.0,0.0,0.0,0.0,0.0,0.0,0.0,0.0,0.0,0.0,0.0,0.0,0.0,0.0,0.0,0.0,0.0,0.0,0.0,0.0,0.0,0.0,0.0,0.0,0.0,0.0,0.0,0.0,0.0,0.0,0.0,0.0,0.0,0.0,0.0,0.0,0.0,0.0,0.0,0.0,0.0,0.0,0.0,0.0,0.0,0.0,0.0,0.0,0.0,0.0,0.0,0.0,0.0,0.0,0.0,0.0,0.0,0.0,0.0,0.0,0.0,0.0,0.0,0.0,0.0,0.0,0.0,0.0,0.0,0.0,0.0,0.0,0.0,0.0,0.0,0.0,0.0,0.0,-4.4468,-4.4079,-4.3795,-4.3651,-4.3634,-4.3634,-4.3684,-4.3804,0.0,0.0,0.0,0.0,0.0,0.0,0.0,0.0,0.0,0.0,0.0,0.0,0.0,0.0,0.0,0.0,0.0,0.0,0.0,0.0,0.0,0.0,0.0,0.0,0.0,0.0,0.0,0.0,0.0,0.0,0.0,0.0,0.0,0.0,0.0,0.0,0.0,0.0,0.0,0.0,0.0,0.0,0.0,0.0,0.0,0.0,0.0,0.0,0.0,0.0,0.0,0.0,0.0,0.0,0.0,0.0,0.0,0.0,0.0,0.0,0.0,0.0,0.0,0.0,0.0,0.0,0.0,0.0,0.0,0.0,0.0,0.0,0.0,0.0,0.0,0.0,0.0,0.0,0.0,0.0,0.0,0.0,0.0,0.0,0.0,0.0,0.0,0.0,0.0,0.0,0.0,0.0,0.0,0.0,0.0,0.0,0.0,0.0,0.0,0.0,0.0,0.0,0.0,-4.436,-4.414,-4.3828,-4.3631,-4.3515,-4.341,-4.3445,-4.3515,-4.3617,-4.3783,0.0,0.0,0.0,0.0,0.0,0.0,0.0,0.0,0.0,0.0,0.0,0.0,0.0,0.0,0.0,0.0,0.0,0.0,0.0,0.0,0.0,0.0,0.0,0.0,0.0,0.0,0.0,0.0,0.0,0.0,0.0,0.0,0.0,0.0,0.0,0.0,0.0,0.0,0.0,0.0,0.0,0.0,0.0,0.0,0.0,0.0,0.0,0.0,0.0,0.0,0.0,0.0,0.0,0.0,0.0,0.0,0.0,0.0,0.0,0.0,0.0,0.0,0.0,0.0,0.0,0.0,0.0,0.0,0.0,0.0,0.0,0.0,0.0,0.0,0.0,0.0,0.0,0.0,0.0,0.0,0.0,0.0,0.0,0.0,0.0,0.0,0.0,0.0,0.0,0.0,0.0,0.0,0.0,0.0,0.0,0.0,0.0,0.0,0.0,0.0,0.0,0.0,-4.4094,-4.3828,-4.3597,-4.3478,-4.3375,-4.3214,-4.3286,-4.3375,-4.3497,-4.3651,0.0,0.0,0.0,0.0,0.0,0.0,0.0,0.0,0.0,0.0,0.0,0.0,0.0,0.0,0.0,0.0,0.0,0.0,0.0,0.0,0.0,0.0,0.0,0.0,0.0,0.0,0.0,0.0,0.0,0.0,0.0,0.0,0.0,0.0,0.0,0.0,0.0,0.0,0.0,0.0,0.0,0.0,0.0,0.0,0.0,0.0,0.0,0.0,0.0,0.0,0.0,0.0,0.0,0.0,0.0,0.0,0.0,0.0,0.0,0.0,0.0,0.0,0.0,0.0,0.0,0.0,0.0,0.0,0.0,0.0,0.0,0.0,0.0,0.0,0.0,0.0,0.0,0.0,0.0,0.0,0.0,0.0,0.0,0.0,0.0,0.0,0.0,0.0,0.0,0.0,0.0,0.0,0.0,0.0,0.0,0.0,0.0,0.0,0.0,0.0,0.0,0.0,-4.3918,-4.3664,-4.3532,-4.3358,-4.3233,-4.3214,-4.3214,-4.3304,-4.3497,-4.3563,0.0,0.0,0.0,0.0,0.0,0.0,0.0,0.0,0.0,0.0,0.0,0.0,0.0,0.0,0.0,0.0,0.0,0.0,0.0,0.0,0.0,0.0,0.0,0.0,0.0,0.0,0.0,0.0,0.0,0.0,0.0,0.0,0.0,0.0,0.0,0.0,0.0,0.0,0.0,0.0,0.0,0.0,0.0,0.0,0.0,0.0,0.0,0.0,0.0,0.0,0.0,0.0,0.0,0.0,0.0,0.0,0.0,0.0,0.0,0.0,0.0,0.0,0.0,0.0,0.0,0.0,0.0,0.0,0.0,0.0,0.0,0.0,0.0,0.0,0.0,0.0,0.0,0.0,0.0,0.0,0.0,0.0,0.0,0.0,0.0,0.0,0.0,0.0,0.0,0.0,0.0,0.0,0.0,0.0,0.0,0.0,0.0,0.0,0.0,0.0,0.0,0.0,-4.3747,-4.3461,-4.3214,-4.3069,-4.2939,-4.2842,-4.292,-4.3032,-4.3105,0.0,0.0,0.0,0.0,0.0,0.0,0.0,0.0,0.0,0.0,0.0,0.0,0.0,0.0,0.0,0.0,0.0,0.0,0.0,0.0,0.0,0.0,0.0,0.0,0.0,0.0,0.0,0.0,0.0,0.0,0.0,0.0,0.0,0.0,0.0,0.0,0.0,0.0,0.0,0.0,0.0,0.0,0.0,0.0,0.0,0.0,0.0,0.0,0.0,0.0,0.0,0.0,0.0,0.0,0.0,0.0,0.0,0.0,0.0,0.0,0.0,0.0,0.0,0.0,0.0,0.0,0.0,0.0,0.0,0.0,0.0,0.0,0.0,0.0,0.0,0.0,0.0,0.0,0.0,0.0,0.0,0.0,0.0,0.0,0.0,0.0,0.0,0.0,0.0,0.0,0.0,0.0,0.0,0.0,0.0,0.0,0.0,0.0,0.0,0.0,0.0,0.0,-4.3881,-4.36,-4.3286,-4.2995,-4.2825,-4.2671,-4.255,-4.2652,-4.2749,-4.2787,0.0,0.0,0.0,0.0,0.0,0.0,0.0,0.0,0.0,0.0,0.0,0.0,0.0,0.0,0.0,0.0,0.0,0.0,0.0,0.0,0.0,0.0,0.0,0.0,0.0,0.0,0.0,0.0,0.0,0.0,0.0,0.0,0.0,0.0,0.0,0.0,0.0,0.0,0.0,0.0,0.0,0.0,0.0,0.0,0.0,0.0,0.0,0.0,0.0,0.0,0.0,0.0,0.0,0.0,0.0,0.0,0.0,0.0,0.0,0.0,0.0,0.0,0.0,0.0,0.0,0.0,0.0,0.0,0.0,0.0,0.0,0.0,0.0,0.0,0.0,0.0,0.0,0.0,0.0,0.0,0.0,0.0,0.0,0.0,0.0,0.0,0.0,0.0,0.0,0.0,0.0,0.0,0.0,0.0,0.0,0.0,0.0,0.0,0.0,0.0,0.0,0.0,-4.3747,-4.3391,-4.3142,-4.2901,-4.2593,-4.2394,-4.2394,-4.2394,-4.2434,0.0,0.0,0.0,0.0,0.0,0.0,0.0,0.0,0.0,0.0,0.0,0.0,0.0,0.0,0.0,0.0,0.0,0.0,0.0,0.0,0.0,0.0,0.0,0.0,0.0,0.0,0.0,0.0,0.0,0.0,0.0,0.0,0.0,0.0,0.0,0.0,0.0,0.0,0.0,0.0,0.0,0.0,0.0,0.0,0.0,0.0,0.0,0.0,0.0,0.0,0.0,0.0,0.0,0.0,0.0,0.0,0.0,0.0,0.0,0.0,0.0,0.0,0.0,0.0,0.0,0.0,0.0,0.0,0.0,0.0,0.0,0.0,0.0,0.0,0.0,0.0,0.0,0.0,0.0,0.0,0.0,0.0,0.0,0.0,0.0,0.0,0.0,0.0,0.0,0.0,0.0,0.0,0.0,0.0,0.0,0.0,0.0,0.0,0.0,0.0,0.0,0.0,0.0,-4.3374,-4.3069,-4.2749,-4.2474,-4.2292,-4.2184,-4.2136,-4.2163,-4.2267,-4.2389,0.0,0.0,0.0,0.0,0.0,0.0,0.0,0.0,0.0,0.0,0.0,0.0,0.0,0.0,0.0,0.0,0.0,0.0,0.0,0.0,0.0,0.0,0.0,0.0,0.0,0.0,0.0,0.0,0.0,0.0,0.0,0.0,0.0,0.0,0.0,0.0,0.0,0.0,0.0,0.0,0.0,0.0,0.0,0.0,0.0,0.0,0.0,0.0,0.0,0.0,0.0,0.0,0.0,0.0,0.0,0.0,0.0,0.0,0.0,0.0,0.0,0.0,0.0,0.0,0.0,0.0,0.0,0.0,0.0,0.0,0.0,0.0,0.0,0.0,0.0,0.0,0.0,0.0,0.0,0.0,0.0,0.0,0.0,0.0,0.0,0.0,0.0,0.0,0.0,0.0,0.0,0.0,0.0,0.0,0.0,0.0,0.0,0.0,0.0,0.0,0.0,0.0,-4.3142,-4.2789,-4.2494,-4.2267,-4.2037,-4.1866,-4.1771,-4.1845,-4.1952,-4.2016,0.0,0.0,0.0,0.0,0.0,0.0,0.0,0.0,0.0,0.0,0.0,0.0,0.0,0.0,0.0,0.0,0.0,0.0,0.0,0.0,0.0,0.0,0.0,0.0,0.0,0.0,0.0,0.0,0.0,0.0,0.0,0.0,0.0,0.0,0.0,0.0,0.0,0.0,0.0,0.0,0.0,0.0,0.0,0.0,0.0,0.0,0.0,0.0,0.0,0.0,0.0,0.0,0.0,0.0,0.0,0.0,0.0,0.0,0.0,0.0,0.0,0.0,0.0,0.0,0.0,0.0,0.0,0.0,0.0,0.0,0.0,0.0,0.0,0.0,0.0,0.0,0.0,0.0,0.0,0.0,0.0,0.0,0.0,0.0,0.0,0.0,0.0,0.0,0.0,0.0,0.0,0.0,0.0,0.0,0.0,0.0,0.0,0.0,0.0,0.0,0.0,0.0,-4.2995,-4.2596,-4.2313,-4.21,-4.178,-4.1538,-4.1403,-4.1493,-4.156,-4.1582,0.0,0.0,0.0,0.0,0.0,0.0,0.0,0.0,0.0,0.0,0.0,0.0,0.0,0.0,0.0,0.0,0.0,0.0,0.0,0.0,0.0,0.0,0.0,0.0,0.0,0.0,0.0,0.0,0.0,0.0,0.0,0.0,0.0,0.0,0.0,0.0,0.0,0.0,0.0,0.0,0.0,0.0,0.0,0.0,0.0,0.0,0.0,0.0,0.0,0.0,0.0,0.0,0.0,0.0,0.0,0.0,0.0,0.0,0.0,0.0,-5.6086,-5.6847,0.0,0.0,0.0,0.0,0.0,0.0,0.0,0.0,0.0,0.0,0.0,0.0,0.0,0.0,0.0,0.0,0.0,0.0,0.0,0.0,0.0,0.0,0.0,0.0,0.0,0.0,0.0,0.0,0.0,0.0,0.0,0.0,0.0,0.0,0.0,0.0,0.0,0.0,0.0,0.0,-4.2557,-4.2333,-4.2044,-4.1758,-4.156,-4.1403,-4.1255,-4.1277,-4.1323,-4.1448,-4.1604,0.0,0.0,0.0,0.0,0.0,0.0,0.0,0.0,0.0,0.0,0.0,0.0,0.0,0.0,0.0,0.0,0.0,0.0,0.0,0.0,0.0,0.0,0.0,0.0,0.0,0.0,0.0,0.0,0.0,0.0,0.0,0.0,0.0,0.0,0.0,0.0,0.0,0.0,0.0,0.0,0.0,0.0,0.0,0.0,0.0,0.0,0.0,0.0,0.0,0.0,0.0,0.0,0.0,0.0,0.0,0.0,0.0,0.0,0.0,-5.457,-5.5155,0.0,0.0,0.0,0.0,0.0,0.0,0.0,0.0,0.0,0.0,0.0,0.0,0.0,0.0,0.0,0.0,0.0,0.0,0.0,0.0,0.0,0.0,0.0,0.0,0.0,0.0,0.0,0.0,0.0,0.0,0.0,0.0,0.0,0.0,0.0,0.0,0.0,0.0,0.0,0.0,-4.2374,-4.2044,-4.178,-4.1538,-4.1335,-4.1198,-4.1082,-4.1129,-4.1175,-4.1244,-4.1358,0.0,0.0,0.0,0.0,0.0,0.0,0.0,0.0,0.0,0.0,0.0,0.0,0.0,0.0,0.0,0.0,0.0,0.0,0.0,0.0,0.0,0.0,0.0,0.0,0.0,0.0,0.0,0.0,0.0,0.0,0.0,0.0,0.0,0.0,0.0,0.0,0.0,0.0,0.0,0.0,0.0,0.0,0.0,0.0,0.0,0.0,0.0,0.0,0.0,0.0,0.0,0.0,0.0,-5.3072,-5.303,-5.3008,-5.2915,-5.285,-5.285,-5.3093,-5.3285,-5.3504,-5.3524,0.0,0.0,0.0,0.0,0.0,0.0,0.0,0.0,0.0,0.0,0.0,0.0,0.0,0.0,0.0,0.0,0.0,0.0,0.0,0.0,0.0,0.0,-4.3524,-4.3483,-4.2854,-4.2486,-4.3496,0.0,0.0,0.0,0.0,0.0,0.0,0.0,0.0,0.0,0.0,0.0,-4.2205,-4.1845,-4.1538,-4.1358,-4.1186,-4.1023,-4.0871,-4.0976,-4.1023,-4.1023,-4.1129,-4.1255,0.0,0.0,0.0,0.0,0.0,0.0,0.0,0.0,0.0,0.0,0.0,0.0,0.0,0.0,0.0,0.0,0.0,0.0,0.0,0.0,0.0,0.0,0.0,0.0,0.0,0.0,0.0,0.0,0.0,0.0,0.0,0.0,-5.5113,-5.5028,0.0,0.0,0.0,0.0,0.0,0.0,0.0,0.0,0.0,0.0,0.0,0.0,0.0,-5.3524,-5.3293,-5.313,-5.3002,-5.2872,-5.2725,-5.2649,-5.2572,-5.2457,-5.234,-5.2246,-5.2257,0.0,-5.3088,-5.3157,0.0,0.0,0.0,0.0,0.0,0.0,0.0,0.0,0.0,0.0,0.0,0.0,0.0,0.0,0.0,0.0,0.0,0.0,0.0,0.0,0.0,0.0,-4.2471,-4.2347,-4.2087,-4.1923,-4.2094,-4.2255,-4.2389,-4.2389,-4.2389,-4.2389,0.0,0.0,0.0,0.0,0.0,0.0,-4.1736,-4.1648,-4.1471,-4.1163,-4.1023,-4.0847,-4.0762,-4.0762,-4.0762,-4.0762,-4.0976,-4.114,-4.1163,-4.1426,0.0,0.0,0.0,0.0,0.0,0.0,0.0,0.0,0.0,0.0,0.0,0.0,0.0,0.0,0.0,0.0,0.0,0.0,0.0,0.0,0.0,0.0,0.0,0.0,0.0,0.0,0.0,0.0,0.0,-5.5028,-5.4941,-5.4822,-5.4845,-5.4829,0.0,0.0,0.0,0.0,0.0,0.0,0.0,0.0,0.0,-5.3794,-5.3521,-5.3318,-5.3209,-5.2915,-5.2761,-5.2694,-5.2513,-5.2434,-5.2364,-5.2246,-5.1922,-5.1419,-5.1419,-5.1331,-5.1185,-5.1754,-5.2025,-5.2018,0.0,0.0,0.0,0.0,-5.0211,-4.9907,-5.0031,-4.9595,-4.901,-4.9067,0.0,0.0,0.0,0.0,0.0,0.0,0.0,-4.3133,-4.2992,-4.2495,-4.1995,-4.1866,-4.1692,-4.156,-4.1458,-4.1569,-4.1744,-4.1973,-4.2058,-4.2136,-4.2136,-4.2136,0.0,0.0,0.0,-4.1758,-4.1515,-4.138,-4.1256,-4.1023,-4.0881,-4.0728,-4.0583,-4.0655,-4.0714,-4.0714,-4.0881,-4.1023,-4.1093,-4.1256,-4.1403,0.0,0.0,0.0,0.0,0.0,0.0,0.0,0.0,0.0,0.0,0.0,0.0,0.0,0.0,0.0,0.0,0.0,0.0,0.0,0.0,0.0,0.0,0.0,0.0,0.0,0.0,0.0,0.0,-5.4822,-5.473,-5.4641,-5.4592,-5.4576,0.0,0.0,0.0,0.0,0.0,0.0,-5.4109,-5.3907,-5.3756,-5.3678,-5.3318,-5.3146,-5.3103,-5.2761,-5.2581,-5.2581,-5.2387,-5.2305,-5.2269,-5.1934,-5.1455,-5.0832,-5.0617,-5.0198,-4.9672,-5.0433,-5.08,-5.0796,-4.9987,-4.9683,-4.9683,-4.9466,-4.9075,-4.8632,-4.8738,-4.8421,-4.8012,-4.7931,-4.7328,-4.6577,-4.6318,0.0,0.0,0.0,0.0,-4.2287,-4.2225,-4.2016,-4.1758,-4.1626,-4.1471,-4.13,-4.1232,-4.1186,-4.1255,-4.1604,-4.1714,-4.1815,-4.1815,-4.1815,0.0,-4.167,-4.1582,-4.1471,-4.1335,-4.1163,-4.1,-4.0847,-4.068,-4.0534,-4.0461,-4.0558,-4.0631,-4.0631,-4.0799,-4.0918,-4.1047,-4.107,-4.1233,-4.1493,0.0,0.0,0.0,0.0,0.0,0.0,0.0,0.0,0.0,0.0,0.0,0.0,0.0,0.0,0.0,0.0,0.0,0.0,0.0,0.0,0.0,0.0,0.0,0.0,0.0,0.0,0.0,0.0,0.0,-5.4426,-5.4303,0.0,0.0,0.0,0.0,-5.4127,-5.4109,-5.4018,-5.3813,-5.3794,-5.3659,-5.3339,-5.3109,-5.2937,-5.2806,-5.2618,-5.2503,-5.248,-5.2376,-5.2305,-5.2269,-5.1358,-5.0868,-5.0677,-4.9901,-4.9472,-4.9341,-4.9636,-4.9788,-4.9716,-4.8888,-4.8601,-4.8493,-4.7737,-4.7413,-4.7399,-4.7544,-4.7551,-4.7449,-4.6953,-4.6154,-4.524,-4.4479,-4.4032,0.0,0.0,-4.2461,-4.2246,-4.2051,-4.1923,-4.1758,-4.1626,-4.1391,-4.1209,-4.1209,-4.1152,-4.114,-4.1209,-4.1232,-4.1232,-4.1232,0.0,-4.1232,-4.1232,-4.1232,-4.1186,-4.1117,-4.1,-4.0847,-4.0704,-4.0461,-4.0313,-4.0288,-4.0436,-4.051,-4.051,-4.0752,-4.0894,-4.0894,-4.1047,-4.1163,-4.1232,-4.1493,0.0,0.0,0.0,0.0,0.0,0.0,0.0,0.0,0.0,0.0,0.0,0.0,0.0,0.0,0.0,0.0,0.0,0.0,0.0,0.0,0.0,0.0,0.0,0.0,0.0,0.0,0.0,0.0,-5.4216,-5.4163,0.0,-5.4109,-5.4036,-5.4019,-5.3907,-5.3888,-5.3774,-5.36,-5.3521,-5.344,-5.3318,-5.3023,-5.285,-5.2806,-5.2595,-5.248,-5.248,-5.234,-5.2017,-5.1512,-5.107,-5.0317,-4.9264,-4.8977,-4.8537,-4.8012,-4.8138,-4.838,-4.8637,-4.7849,-4.7527,-4.7491,-4.7205,-4.7178,-4.7173,-4.6715,-4.6608,-4.654,-4.5401,-4.4805,-4.4348,-4.3415,-4.31,-4.2929,-4.2517,-4.2267,-4.2142,-4.203,-4.1902,-4.1736,-4.1515,-4.1403,-4.13,-4.1232,-4.1163,-4.1163,-4.1209,-4.1209,-4.1209,-4.1209,-4.1209,-4.1186,-4.1129,-4.1163,-4.1059,-4.0881,-4.081,-4.0714,-4.0495,-4.0337,-4.0263,-4.0188,-4.0387,-4.051,-4.051,-4.0752,-4.0894,-4.0894,-4.0976,-4.1012,-4.1129,-4.1255,-4.1436,0.0,0.0,0.0,0.0,0.0,0.0,0.0,0.0,0.0,0.0,0.0,0.0,0.0,0.0,0.0,0.0,0.0,0.0,0.0,0.0,0.0,0.0,0.0,0.0,0.0,-5.4323,-5.4235,-5.4073,-5.4019,-5.3982,-5.3982,-5.3888,-5.3812,-5.3698,-5.3657,-5.3578,-5.344,-5.3359,-5.3297,-5.3256,-5.3002,-5.285,-5.285,-5.2663,-5.2549,-5.2549,-5.241,-5.1943,-5.1148,-5.079,-4.9856,-4.8551,-4.8263,-4.7809,-4.732,-4.732,-4.7555,-4.7849,-4.7303,-4.7043,-4.6998,-4.6998,-4.691,-4.6699,-4.5932,-4.5594,-4.5328,-4.4361,-4.3838,-4.3529,-4.2851,-4.2629,-4.257,-4.2389,-4.2267,-4.2142,-4.2072,-4.1966,-4.1837,-4.1626,-4.156,-4.1515,-4.1346,-4.13,-4.1255,-4.1209,-4.1163,-4.1175,-4.1175,-4.1117,-4.1082,-4.1047,-4.1047,-4.0976,-4.081,-4.068,-4.0558,-4.0387,-4.0288,-4.0213,-4.0163,-4.0387,-4.0534,-4.0558,-4.0776,-4.0894,-4.0894,-4.0894,-4.0976,-4.1093,-4.1175,-4.1277,-4.1471,0.0,0.0,0.0,0.0,0.0,0.0,0.0,0.0,0.0,0.0,0.0,0.0,0.0,0.0,0.0,0.0,0.0,0.0,0.0,0.0,0.0,0.0,0.0,-5.4392,-5.4202,-5.4019,-5.4019,-5.3867,-5.3768,-5.3768,-5.3652,-5.3555,-5.3555,-5.3555,-5.3477,-5.3355,-5.3297,-5.3256,-5.3225,-5.3082,-5.298,-5.298,-5.2761,-5.2613,-5.2613,-5.2549,-5.2104,-5.1271,-5.0474,-4.9611,-4.8648,-4.7854,-4.7428,-4.7341,-4.732,-4.732,-4.732,-4.7245,-4.7111,-4.702,-4.702,-4.6552,-4.5875,-4.5192,-4.4489,-4.3884,-4.3884,-4.3379,-4.2821,-4.2821,-4.2707,-4.2589,-4.2506,-4.2425,-4.2287,-4.2163,-4.2037,-4.1987,-4.1987,-4.1902,-4.178,-4.1648,-4.1515,-4.138,-4.1255,-4.1152,-4.1117,-4.1093,-4.1,-4.0894,-4.0894,-4.0894,0.0,-4.0894,-4.068,-4.051,-4.051,-4.0288,-4.0163,-4.0288,-4.0436,-4.0558,-4.0714,-4.0858,-4.0894,-4.0894,-4.0894,-4.0976,-4.1093,-4.1175,-4.1209,-4.1209,0.0,0.0,0.0,0.0,0.0,0.0,0.0,0.0,0.0,0.0,0.0,0.0,0.0,0.0,0.0,0.0,0.0,0.0,0.0,0.0,0.0,-5.488,-5.4945,-5.4293,-5.4559,-5.4819,-5.4664,-5.5104,-5.5414,-5.5295,-5.5254,-5.5212,-5.5165,-5.4575,-5.4202,-5.4075,-5.3561,-5.3209,-5.3203,-5.3082,-5.298,-5.298,-5.2828,-5.2761,-5.2761,-5.2717,-5.2316,-5.1479,-5.0656,-4.9834,-4.9013,-4.8213,-4.785,-4.7809,-4.7762,-4.7678,-4.7572,-4.7341,-4.7254,-4.7209,-4.7209,-4.637,-4.5177,-4.4453,-4.372,-4.311,-4.3151,-4.3025,-4.288,-4.2804,-4.2746,-4.2707,-4.2589,-4.255,-4.249,-4.2333,-4.2292,-4.2267,-4.21,-4.2058,-4.1995,-4.1923,-4.1858,-4.1815,-4.1793,-4.1604,-4.1403,-4.1221,-4.1082,-4.1047,-4.1047,-4.0976,-4.0847,-4.0786,-4.068,-4.0607,-4.051,-4.0436,-4.0412,-4.0436,-4.0558,-4.0655,-4.0714,-4.0858,-4.0894,-4.0894,-4.0894,-4.0976,-4.1093,-4.1117,-4.1152,0.0,0.0,0.0,0.0,0.0,0.0,0.0,0.0,0.0,0.0,0.0,0.0,0.0,0.0,0.0,0.0,0.0,0.0,0.0,0.0,0.0,0.0,-5.5487,-5.5734,-5.5175,-5.5359,-5.552,-5.5418,-5.5743,-5.5934,-5.5871,-5.5791,-5.5748,-5.572,-5.5242,-5.4795,-5.4399,-5.3959,-5.3555,-5.3203,-5.3124,-5.3082,-5.3082,-5.2937,-5.2872,-5.2872,-5.2828,-5.2368,-5.1566,-5.1128,-5.0289,-4.9159,-4.8721,-4.832,-4.7992,-4.7968,-4.7886,-4.7804,0.0,0.0,0.0,0.0,-4.5801,-4.4885,-4.3927,-4.3278,-4.2955,-4.3012,-4.305,-4.3031,-4.2955,-4.2936,-4.2898,-4.2727,-4.2668,-4.2649,-4.253,-4.2474,-4.2434,-4.2348,-4.2328,-4.2287,-4.2184,-4.2178,-4.2121,-4.2072,-4.1909,0.0,-4.1582,-4.1312,-4.1129,-4.1129,-4.1035,-4.0976,-4.0881,-4.0786,-4.0655,-4.0583,-4.0534,-4.0534,-4.0583,-4.0666,0.0,0.0,0.0,-4.0894,-4.0894,-4.0894,0.0,0.0,0.0,-4.1012,-4.1071,-4.1071,0.0,0.0,-4.1163,-4.1209,0.0,0.0,0.0,0.0,0.0,0.0,0.0,0.0,0.0,0.0,0.0,0.0,0.0,0.0,0.0,0.0,-5.6276,-5.6686,-5.6552,-5.6429,-5.6323,-5.6249,-5.6135,-5.608,-5.6058,-5.5934,-5.589,-5.589,-5.5816,-5.5427,-5.4693,-5.4583,0.0,0.0,0.0,-5.3277,-5.3203,-5.3082,-5.3002,-5.3039,-5.2893,-5.2485,-5.1791,-5.1682,-5.0879,-4.9528,-4.9309,-4.8835,-4.8178,-4.8068,-4.8012,-4.7972,-4.7663,-4.7472,-4.7191,-4.5709,-4.5172,-4.4975,-4.3593,0.0,0.0,-4.3178,-4.3214,-4.3196,-4.3141,-4.3123,-4.3086,-4.2917,-4.2859,-4.2804,-4.2707,-4.2668,-4.2668,-4.2649,-4.2649,-4.2609,-4.2434,-4.2414,-4.2353,-4.2205,-4.2127,-4.2121,-4.2051,-4.1626,-4.1255,-4.1255,-4.1175,-4.1117,-4.1117,-4.0905,-4.0786,-4.0786,-4.0631,0.0,-4.0738,-4.0738,-4.0752,-4.0871,-4.0894,-4.0894,-4.0894,-4.0894,-4.0894,-4.0894,-4.0894,-4.0894,-4.0894,-4.0894,-4.0894,-4.0894,-4.1071,-4.1163,0.0,0.0,0.0,0.0,0.0,0.0,0.0,0.0,0.0,0.0,0.0,0.0,0.0,0.0,0.0,-5.6313,-5.6947,-5.7389,-5.7289,-5.7724,-5.7746,-5.6995,-5.7507,-5.7803,-5.7602,-5.7542,-5.7519,-5.7519,-5.6932,-5.6492,-5.6345,-5.5721,-5.4987,-5.4179,-5.4179,-5.3849,-5.3203,-5.3167,-5.3146,-5.3146,-5.3124,0.0,-5.2868,-5.2208,-5.1731,-5.1364,-5.0081,-4.9441,-4.9238,-4.8463,-4.8108,-4.7992,-4.7931,-4.7891,-4.7652,-4.6107,-4.5489,-4.529,-4.3706,-4.3178,-4.3178,-4.3196,-4.3214,-4.3196,-4.3178,-4.3178,0.0,-4.3142,-4.3123,-4.3123,-4.3105,-4.3087,-4.305,-4.2863,-4.2825,-4.2768,-4.2609,-4.257,-4.255,-4.251,-4.243,-4.2333,-4.2313,-4.1973,-4.1648,-4.156,-4.1426,-4.1312,-4.1186,-4.114,-4.1094,-4.1094,-4.1035,-4.1,-4.1023,-4.0894,-4.0847,-4.0894,-4.0894,-4.0894,-4.0894,-4.0894,-4.0894,-4.0894,-4.0894,-4.0894,-4.0894,-4.0894,-4.0894,-4.0894,-4.0942,-4.0965,0.0,0.0,0.0,0.0,0.0,0.0,0.0,0.0,0.0,0.0,0.0,-5.6608,0.0,0.0,-5.7088,-5.7174,-5.7825,-5.8249,-5.8124,-5.8375,-5.8424,-5.7851,-5.8156,-5.8349,-5.8201,-5.8133,-5.8088,-5.8088,-5.7675,-5.7226,-5.6822,-5.6418,-5.5831,-5.5023,-5.462,-5.4216,-5.3812,-5.3387,-5.3203,-5.3203,-5.3203,-5.3203,-5.3188,-5.2784,-5.238,-5.194,-5.1153,-5.0345,-4.9537,-4.8615,-4.819,-4.8151,-4.8151,-4.8092,-4.7846,-4.6642,-4.595,-4.5439,-4.4291,-4.3652,-4.3304,-4.334,-4.3358,-4.3358,-4.3304,-4.3286,-4.3269,-4.3233,-4.3214,-4.3214,-4.3214,-4.3214,-4.3178,-4.305,-4.3032,-4.3013,-4.2937,-4.2918,-4.288,-4.2749,-4.2691,-4.2613,-4.253,-4.2348,-4.2121,-4.1909,-4.1714,-4.156,-4.1413,-4.1323,-4.1255,-4.1209,-4.1175,-4.1152,-4.1152,-4.1105,-4.1059,-4.1059,-4.1012,-4.1012,-4.1059,-4.1012,-4.1012,-4.1059,-4.1059,-4.1059,-4.1059,-4.1059,-4.1059,-4.1059,-4.1059,-4.1012,0.0,0.0,0.0,0.0,0.0,0.0,0.0,0.0,-5.8451,-5.8269,-5.8028,-5.7808,-5.7681,-5.8051,-5.8325,-5.8128,-5.8593,-5.8942,-5.8739,-5.8698,-5.8656,-5.8572,-5.8465,-5.8415,-5.8393,-5.8305,-5.826,-5.826,-5.8111,-5.7785,-5.7101,-5.7042,-5.6675,-5.5868,-5.5207,-5.473,-5.4399,-5.3775,-5.3371,-5.3203,-5.3203,-5.3203,-5.3203,-5.3203,-5.2858,-5.2197,-5.205,-5.1116,-4.9537,-4.882,-4.8453,-4.8306,-4.8306,-4.8209,-4.7942,-4.7139,-4.6445,-4.5807,-4.5077,-4.4345,-4.3667,-4.3737,-4.3625,-4.3497,-4.3447,-4.3429,-4.3412,-4.3286,-4.3269,-4.3269,-4.3269,-4.3269,-4.3269,-4.3251,-4.3233,-4.3233,-4.3214,-4.3214,-4.316,-4.2976,-4.2957,-4.2882,-4.2727,-4.2688,-4.255,-4.219,-4.2016,-4.1845,-4.1714,-4.1582,-4.1471,-4.1368,-4.1323,-4.13,-4.1232,-4.1232,-4.1232,-4.1209,-4.1152,-4.1129,-4.1209,-4.1152,-4.1129,-4.1209,-4.1209,-4.1209,-4.1209,-4.1209,-4.1209,-4.1232,-4.1232,-4.1117,-6.1709,-6.1644,-6.14,-6.0516,-6.0263,-5.9955,0.0,0.0,-5.8535,-5.8333,-5.8108,-5.8106,-5.8568,-5.8473,-5.8473,-5.9027,-5.9024,-5.8899,-5.8879,-5.8797,-5.8677,-5.8677,-5.8572,-5.8465,-5.8415,-5.8393,-5.8371,-5.8371,-5.826,-5.8119,-5.8046,-5.7918,-5.7483,-5.6712,-5.6602,-5.5868,-5.4399,-5.4326,-5.3922,-5.3203,-5.3203,-5.3203,-5.3203,-5.3203,-5.313,-5.3041,-5.2307,-5.1116,-4.961,-4.95,-4.9003,-4.8306,-4.8306,-4.8287,-4.8157,-4.7368,-4.7002,-4.6837,-4.6049,-4.5241,-4.4544,-4.4544,-4.4085,-4.3497,-4.3497,-4.3497,-4.3497,-4.348,-4.348,-4.348,-4.348,-4.348,-4.3445,-4.3412,-4.3394,-4.3359,-4.3233,-4.3214,-4.3196,-4.3178,-4.3178,-4.3142,-4.3067,-4.2956,-4.2749,-4.2414,-4.2308,-4.2205,-4.2079,-4.1987,-4.1923,-4.1902,-4.178,-4.1648,-4.1403,-4.138,-4.1335,-4.1209,-4.1186,-4.1186,-4.1209,-4.1186,-4.1186,-4.1209,-4.1209,-4.1209,-4.1209,-4.1209,-4.1255,-4.138,-4.138,-4.1277,-6.1644,-6.1618,-6.151,0.0,-6.0983,-6.0843,-6.0423,-6.0197,-6.0062,-5.985,-5.9642,-5.9498,-5.9549,-5.9365,-5.9269,0.0,-5.9215,-5.91,-5.8982,-5.8922,-5.8845,-5.8845,-5.8825,-5.8723,-5.8572,-5.8486,-5.8443,-5.8443,-5.8393,-5.8282,-5.8179,-5.8133,-5.7918,-5.7519,-5.7042,-5.6492,-5.5794,-5.5317,-5.4693,-5.3922,-5.3922,-5.3665,-5.3203,-5.3203,-5.3203,-5.3188,-5.2344,-5.161,-5.0932,-4.9941,-4.9334,-4.8967,-4.8584,-4.8419,-4.8382,-4.7958,-4.748,-4.7039,-4.6709,-4.6067,-4.5406,-4.5406,-4.4856,-4.4195,-4.4195,-4.3864,-4.3515,-4.3515,-4.3515,-4.3515,-4.3515,-4.3515,-4.3497,-4.3463,-4.3445,-4.3428,-4.3393,-4.3393,-4.3375,-4.3304,-4.3341,-4.3269,-4.316,-4.3123,-4.305,-4.2882,-4.2632,-4.243,-4.2272,-4.2267,-4.2184,-4.2058,-4.2016,-4.1909,-4.1771,-4.1749,-4.1749,-4.167,-4.1604,-4.1582,-4.1648,-4.1604,-4.1604,-4.1648,-4.1648,-4.1648,-4.1648,-4.1648,-4.167,-4.1749,-4.1749,-4.1728,-6.166,0.0,0.0,-6.1529,-6.1523,-6.1484,-6.1421,-6.1322,-6.1208,-6.1022,-6.0823,-6.0572,-6.0275,-6.0068,-5.9853,-5.9472,-5.9345,-5.9234,-5.9063,-5.9004,-5.9004,-5.9004,-5.9004,-5.8925,-5.8801,-5.8677,-5.8614,-5.8614,-5.8486,-5.8393,-5.8282,-5.8238,-5.8133,-5.7997,-5.7446,-5.7042,-5.6822,-5.6235,-5.5537,-5.473,-5.4509,-5.4106,-5.3518,-5.3298,-5.3203,-5.3167,-5.2564,-5.2197,-5.1887,-5.0475,-4.974,-4.9502,-4.8789,-4.8532,-4.8532,-4.842,-4.8015,-4.75,-4.75,-4.6985,-4.6305,-4.6305,-4.5772,-4.511,-4.511,-4.4706,-4.4174,-4.3953,-4.3862,-4.3791,-4.3551,-4.3515,-4.3515,-4.3515,-4.3515,-4.3515,-4.3515,-4.3515,-4.348,-4.3465,-4.3447,-4.3375,-4.3269,-4.3251,-4.3251,-4.3214,-4.2956,-4.2727,-4.2554,-4.2474,-4.2374,-4.2231,-4.2246,-4.2205,-4.2136,-4.2115,-4.2094,-4.203,-4.1931,-4.1909,-4.2023,-4.1902,-4.1923,-4.203,-4.203,-4.2051,-4.2072,-4.2072,-4.2094,-4.2115,-4.2115,-4.2136,0.0,0.0,-6.1591,-6.1608,-6.1568,-6.1484,-6.149,-6.1428,-6.1376,-6.1208,-6.1022,-6.0845,-6.0623,-6.0328,-6.0007,-5.9732,-5.9472,-5.929,-5.9196,-5.91,-5.9004,-5.9004,-5.9004,-5.8984,-5.8984,-5.8922,-5.8879,-5.8879,-5.8635,-5.8465,-5.8393,-5.8282,-5.8133,-5.7997,-5.796,-5.7593,-5.6822,-5.6785,-5.6345,-5.5559,-5.4766,-5.4399,-5.4326,-5.3555,-5.3203,-5.3203,-5.3167,-5.2711,-5.1961,-5.116,-5.039,-4.9599,-4.8864,-4.8605,-4.8605,-4.8569,-4.8569,-4.8569,-4.8569,-4.8015,-4.735,-4.735,-4.6796,-4.6168,-4.6168,-4.6098,-4.5843,-4.507,-4.4779,-4.4488,-4.3681,-4.3515,-4.3515,-4.3515,-4.3515,-4.3515,-4.3515,-4.3515,-4.3515,-4.3497,-4.3497,-4.348,-4.3412,-4.3394,-4.3359,-4.3233,-4.3196,-4.3123,-4.2901,-4.2691,-4.2589,-4.2589,-4.2589,-4.255,-4.2394,-4.2374,-4.2292,-4.2121,-4.21,-4.2058,-4.1987,-4.2023,-4.203,-4.21,-4.2121,-4.2163,-4.2287,-4.2287,-4.2328,-4.2374,-4.2374,-4.247,0.0,0.0,-6.1648,-6.1591,-6.1591,-6.1554,-6.1583,-6.1478,-6.1356,-6.1299,-6.1134,-6.0962,-6.0719,-6.0494,-6.027,-5.9944,-5.9803,-5.9633,-5.942,-5.9346,-5.9309,-5.9197,-5.929,0.0,0.0,-5.9081,-5.8942,-5.8899,-5.8818,-5.8656,-5.8486,-5.8393,-5.8282,-5.8133,-5.8042,-5.7886,-5.7593,-5.7593,-5.7189,-5.6381,-5.5574,-5.4913,-5.4399,-5.4106,-5.3702,-5.3203,-5.3203,-5.3083,-5.2778,-5.2009,-5.1259,-5.0562,-4.9825,-4.9231,-4.8803,-4.891,-4.8979,-4.8959,-4.8696,-4.8439,-4.8199,-4.8199,-4.7645,-4.698,-4.698,-4.6593,-4.6116,-4.582,-4.5729,-4.5527,-4.4716,-4.4444,-4.4282,-4.3693,-4.3549,-4.3515,-4.3515,-4.3515,-4.3515,-4.3515,-4.3515,-4.3497,-4.3463,-4.3463,-4.3428,-4.3359,-4.3251,-4.3178,-4.3123,-4.305,-4.2956,-4.2806,-4.2787,-4.2746,-4.255,-4.255,-4.251,-4.245,-4.245,-4.243,-4.2389,-4.2389,-4.2409,-4.245,-4.245,-4.247,-4.251,-4.251,-4.251,-4.255,-4.255,-4.257,0.0,-6.1707,-6.1696,-6.1648,-6.1619,-6.1595,-6.1595,-6.1544,-6.1433,-6.1376,-6.126,-6.1098,-6.0871,-6.0707,-6.0468,-6.0159,-5.9991,-5.9853,-5.9598,-5.9545,-5.9492,-5.9438,-5.9492,-5.9492,0.0,0.0,-5.9177,-5.902,-5.894,-5.8818,-5.8593,-5.8486,-5.8356,-5.8179,-5.8111,-5.8042,-5.7997,-5.7997,-5.7593,-5.6785,-5.6271,-5.5464,-5.4399,-5.4399,-5.3959,-5.3225,-5.323,-5.3235,-5.3244,-5.2515,-5.1986,-5.1564,-5.0824,-5.0097,-4.944,-4.9528,-4.9426,-4.9214,-4.8907,-4.882,-4.882,-4.882,-4.8449,-4.8041,-4.8041,-4.7619,-4.7085,-4.6826,-4.6663,-4.6426,-4.5651,-4.5395,-4.5233,-4.4662,-4.4481,-4.4446,-4.4448,-4.4431,-4.4431,-4.4359,-4.4342,-4.4342,-4.4342,-4.4342,-4.4251,-4.3904,-4.3797,-4.3615,-4.3251,-4.3214,-4.316,-4.3013,-4.2995,-4.2939,-4.2842,-4.2785,-4.2746,-4.2727,-4.2688,-4.2649,-4.2609,-4.2609,-4.2649,-4.2727,-4.2727,-4.2765,-4.2823,-4.2823,-4.2823,-4.2823,-4.2823,-4.2823,-6.174,-6.1761,-6.178,-6.1777,-6.1729,-6.1677,-6.1638,-6.1608,-6.1564,-6.1539,-6.1396,-6.1252,0.0,0.0,-6.0633,-6.0362,-6.0159,-5.9966,-5.9732,-5.9685,-5.9616,0.0,0.0,0.0,0.0,0.0,-5.951,-5.9234,-5.9039,-5.8859,-5.8698,-5.8593,-5.8422,-5.8201,-5.8215,-5.8133,-5.802,-5.7997,-5.7629,-5.6859,-5.6859,-5.6051,-5.4509,-5.4473,-5.4032,-5.3261,-5.3293,-5.3318,-5.3265,-5.269,-5.2511,-5.2549,-5.184,-5.1126,-5.0484,-5.0484,-5.0027,-4.938,-4.93,-4.9267,-4.9214,-4.9214,-4.9214,-4.9214,-4.9214,-4.9081,-4.8759,-4.7978,-4.7636,-4.7311,-4.6498,-4.6259,-4.6259,-4.6222,-4.6222,-4.6187,-4.6136,-4.6119,-4.6046,-4.5956,-4.5902,-4.5902,-4.5883,-4.5883,-4.5626,-4.4892,-4.4764,-4.4381,-4.336,-4.3233,-4.3214,-4.3214,-4.3214,-4.3214,-4.3214,-4.3123,-4.3031,-4.292,-4.2861,-4.2746,-4.2649,-4.2629,-4.2727,-4.2901,-4.2901,-4.2995,-4.3214,-4.3214,-4.3214,-4.3214,-4.3214,-4.3214,-6.2482,-6.267,-6.2664,-6.2655,-6.2641,-6.2476,-6.181,-6.1638,-6.1612,-6.1568,-6.1501,-6.1408,0.0,0.0,0.0,-6.0572,-6.0398,0.0,-5.9902,-5.9836,0.0,-5.9633,0.0,-5.9723,-5.9616,-5.9668,-5.9688,-5.951,-5.9328,-5.91,-5.8859,-5.8698,-5.8593,-5.8443,-5.8268,-5.8156,-5.8133,-5.8042,-5.7886,-5.7703,-5.7703,-5.7152,-5.6161,-5.5574,-5.484,-5.4069,-5.3513,-5.3359,-5.3461,-5.3437,-5.3144,-5.266,-5.2634,-5.2173,-5.1506,-5.1571,-5.1124,-5.047,-5.0455,-4.9987,-4.9352,-4.9352,-4.9305,-4.9257,-4.9257,-4.9193,-4.9057,-4.887,-4.8779,-4.8559,-4.7739,-4.7438,-4.7151,-4.6557,-4.6308,-4.6205,-4.617,-4.617,-4.617,-4.6135,-4.6082,-4.6011,-4.5938,-4.5883,-4.5847,-4.5626,-4.559,-4.5058,-4.3629,-4.3428,-4.341,-4.334,-4.3359,-4.3304,-4.3214,-4.3178,-4.316,-4.3142,-4.3123,-4.3087,-4.3068,-4.3068,-4.3087,-4.3142,-4.3142,-4.316,-4.3214,-4.3214,-4.3214,-4.3214,-4.3214,-4.3214,-6.3429,-6.358,-6.3577,-6.3572,-6.3293,-6.2857,-6.2384,-6.1942,-6.1651,-6.1619,-6.1607,0.0,-6.1349,-6.1156,0.0,0.0,0.0,0.0,-6.0152,-6.0045,-5.9966,0.0,-5.9885,0.0,-5.9815,-5.9853,-5.9836,-5.9736,-5.9454,-5.9215,-5.9081,-5.8882,-5.8719,-5.8593,-5.8422,-5.829,-5.8179,-5.8065,-5.7997,-5.7997,-5.7997,-5.7593,-5.6785,-5.5978,-5.5177,-5.4412,-5.3707,-5.3481,-5.3639,-5.3831,-5.3702,-5.3472,-5.3576,-5.3203,-5.2611,-5.2658,-5.222,-5.1604,-5.1604,-5.1031,-5.0203,-4.9679,-4.9529,-4.9498,-4.9498,-4.9437,-4.9374,-4.9374,-4.9327,-4.915,-4.8701,-4.8455,-4.8228,-4.7798,-4.7603,-4.7465,-4.7379,-4.7362,-4.7344,-4.7257,-4.7203,-4.7168,-4.7059,-4.704,-4.6893,-4.6507,-4.6434,-4.5957,-4.4709,-4.4232,-4.3884,-4.3465,-4.3428,-4.341,-4.334,-4.3304,-4.3286,-4.3286,-4.3233,-4.3214,-4.3214,-4.3214,-4.3233,-4.3269,-4.3286,-4.3304,-4.334,-4.334,-4.334,-4.334,-4.334,-4.334,-6.4452,-6.4487,-6.4483,-6.4483,-6.3896,-6.327,-6.3069,-6.2434,-6.1835,-6.1705,0.0,-6.1598,-6.1501,-6.1342,-6.1139,-6.0943,0.0,-6.0572,-6.0464,-6.027,-6.0129,-6.0114,-6.0099,-6.0099,-6.0099,-6.0038,-5.9998,-5.9918,-5.956,-5.9345,-5.929,-5.9081,-5.8879,-5.8698,-5.8572,-5.8422,-5.8238,-5.8088,-5.802,-5.802,-5.7997,-5.7629,-5.6932,-5.6037,-5.5294,-5.4607,-5.3867,-5.362,-5.3794,-5.3963,-5.4182,-5.4409,-5.446,-5.4134,-5.3694,-5.3709,-5.3281,-5.2686,-5.2686,-5.218,-5.1395,-5.0265,-4.9825,-4.9736,-4.9736,-4.9692,-4.9634,-4.9619,-4.9514,-4.9352,-4.9337,-4.9289,-4.9262,-4.9246,-4.923,-4.9181,-4.8959,-4.8907,-4.8855,-4.8678,-4.8642,-4.8605,-4.8532,-4.8494,-4.8236,-4.7407,-4.7278,-4.6966,-4.6177,-4.5369,-4.4599,-4.3864,-4.3718,-4.3644,-4.3644,-4.3501,-4.3412,-4.3412,-4.3304,-4.3251,-4.3251,-4.3251,-4.3286,-4.3412,-4.3412,-4.3428,-4.3515,-4.3515,-4.3515,-4.3515,-4.3515,-4.3515,-6.5194,-6.5387,-6.5386,-6.5383,-6.5265,-6.4756,-6.3348,-6.2874,0.0,0.0,-6.1638,-6.1582,-6.1495,-6.1376,-6.1228,-6.1079,0.0,0.0,0.0,0.0,-6.0313,0.0,-6.0129,-6.0099,-6.0099,-6.0084,-6.0038,-5.9998,-5.9869,-5.9668,-5.9309,-5.9272,-5.9081,-5.8698,-5.8572,-5.8465,-5.8371,-5.8238,-5.8193,-5.8156,-5.8042,-5.7923,-5.774,-5.636,-5.569,-5.5491,-5.4223,-5.3716,-5.3813,-5.4073,-5.4251,-5.4443,-5.472,-5.4746,-5.4693,-5.4786,-5.4324,-5.3653,-5.3653,-5.3095,-5.2258,-5.1382,-5.0594,-4.9933,-4.9933,-4.9893,-4.9862,-4.9792,-4.975,-4.9707,-4.9648,-4.9589,-4.9498,-4.9384,-4.9321,-4.9241,-4.9181,-4.9098,-4.9013,-4.8892,-4.8785,-4.8733,-4.8605,-4.855,-4.8439,-4.8273,-4.8161,-4.7773,-4.7003,-4.6214,-4.5626,-4.548,-4.4892,-4.4488,-4.4488,-4.3847,-4.348,-4.348,-4.3463,-4.3463,-4.3463,-4.3463,-4.3463,-4.348,-4.348,-4.3497,-4.3515,-4.3515,-4.3515,-4.3515,-4.3515,-4.3515,-6.6171,-6.6289,-6.6288,-6.6287,-6.5935,-6.5271,-6.398,0.0,0.0,0.0,-6.1668,-6.1634,-6.1543,0.0,0.0,0.0,0.0,0.0,0.0,0.0,0.0,0.0,-6.037,-6.0313,0.0,-6.0241,-6.0182,-6.0137,-6.006,-5.9885,-5.9563,-5.9364,-5.9158,-5.8818,-5.8677,-5.8551,-5.8443,-5.8334,-5.8305,-5.8305,-5.826,-5.8215,-5.8142,-5.6565,-5.5892,-5.5881,-5.438,-5.385,-5.3963,-5.4216,-5.4405,-5.4641,-5.4807,-5.4956,-5.5085,-5.5181,-5.4981,-5.4677,-5.4715,-5.4193,-5.3441,-5.302,-5.1916,-5.0735,-5.0735,-5.0405,-4.9986,-4.9984,-4.9944,-4.9917,-4.9838,-4.9792,-4.9692,-4.9611,-4.9506,-4.9437,-4.9321,-4.9262,-4.9181,-4.9098,-4.8996,-4.891,-4.8767,-4.8715,-4.8624,-4.855,-4.8476,-4.8272,-4.7904,-4.7407,-4.6838,-4.5993,-4.5553,-4.5149,-4.4745,-4.4342,-4.3938,-4.3551,-4.3515,-4.3515,-4.3515,-4.3515,-4.3515,-4.3515,-4.3515,-4.3515,-4.3515,-4.3515,-4.3718,-4.4121,-4.4121,-4.4342,-6.691,-6.6913,-6.6914,-6.6914,-6.6406,-6.5586,-6.453,-6.3788,0.0,0.0,-6.1692,-6.1668,-6.163,0.0,-6.1472,0.0,0.0,0.0,0.0,0.0,0.0,0.0,0.0,0.0,-6.0506,-6.0422,-6.0337,-6.0308,-6.0182,-6.0029,-5.9824,-5.9492,-5.9215,-5.9,-5.8842,-5.8719,-5.8598,-5.8508,-5.8459,-5.8459,-5.8415,-5.8282,-5.8061,-5.6604,-5.5928,-5.5791,-5.4443,-5.3963,-5.418,-5.4337,-5.4592,-5.4829,-5.4897,-5.5071,-5.5223,-5.5313,-5.5351,-5.5413,-5.5461,-5.5101,-5.4576,-5.4576,-5.3298,-5.1751,-5.1751,-5.1129,-5.0468,-5.0443,-5.0241,-5.005,-5.0012,-5.0071,-5.0179,-5.0354,-5.0279,-5.0109,-4.9807,-4.9678,-4.9546,-4.9279,-4.9181,-4.9098,-4.8959,-4.8892,-4.8804,-4.8678,-4.8569,-4.8513,-4.8494,-4.8419,-4.7848,-4.6544,-4.625,-4.592,-4.5278,-4.5058,-4.4599,-4.3791,-4.3754,-4.3698,-4.3515,-4.3515,-4.3515,-4.3515,-4.3644,-4.3754,-4.3754,-4.3955,-4.4342,-4.4966,-4.4966,-4.5296,-6.6869,-6.6911,-6.6912,-6.6914,-6.6836,-6.6328,-6.4687,0.0,0.0,-6.2028,-6.1701,-6.1718,-6.1674,-6.1619,-6.1583,0.0,0.0,-6.1169,0.0,0.0,0.0,0.0,0.0,0.0,-6.0572,-6.0506,-6.0477,-6.0408,-6.0226,-6.0022,-5.9885,-5.9545,-5.9272,-5.9253,-5.9063,-5.8965,-5.8945,-5.8781,-5.8656,-5.8656,-5.8502,-5.7987,-5.7211,-5.643,-5.5717,-5.5075,-5.4298,-5.4128,-5.4392,-5.4455,-5.4651,-5.4882,-5.5042,-5.5181,-5.5313,-5.539,-5.5413,-5.5473,-5.5485,-5.5446,-5.5408,-5.5408,-5.4246,-5.2843,-5.2843,-5.228,-5.1606,-5.1491,-5.0882,-5.0224,-5.0101,-5.0685,-5.1433,-5.2088,-5.2139,-5.1834,-5.104,-5.0757,-5.0431,-4.9549,-4.9321,-4.9279,-4.9197,-4.903,-4.891,-4.8855,-4.8714,-4.8569,-4.8494,-4.8476,-4.8364,-4.8122,-4.7406,-4.6966,-4.6892,-4.6214,-4.5443,-4.4635,-4.4599,-4.4268,-4.3551,-4.3515,-4.3515,-4.3515,-4.4232,-4.4599,-4.4599,-4.5333,-4.57,-4.5773,-4.5773,-4.5901,-6.6863,-6.6909,-6.6912,-6.6914,-6.6914,-6.6445,-6.4687,0.0,-6.3827,-6.2068,-6.1709,-6.1696,-6.1683,-6.1638,-6.1578,0.0,0.0,0.0,0.0,0.0,0.0,0.0,-6.0796,0.0,0.0,0.0,-6.052,-6.0491,-6.0342,-6.0226,-6.016,-5.9836,-5.9598,-5.942,-5.9253,-5.914,-5.9119,-5.8982,-5.8902,-5.8865,-5.8317,-5.7867,-5.7496,-5.6196,-5.5453,-5.5137,-5.4519,-5.4306,-5.4426,-5.4635,-5.4822,-5.4971,-5.5127,-5.5223,-5.539,-5.5463,-5.5485,-5.5581,-5.5626,-5.5638,-5.5638,-5.5638,-5.5176,-5.4512,-5.3947,-5.3184,-5.2532,-5.2437,-5.2196,-5.1917,-5.1859,-5.2028,-5.2285,-5.2525,-5.252,-5.2351,-5.1982,-5.1845,-5.1616,-5.1239,-5.1042,-5.0895,-5.0853,-5.0326,-4.9894,-4.9738,-4.9207,-4.875,-4.8679,-4.8624,-4.8532,-4.8495,-4.8088,-4.7626,-4.7149,-4.6819,-4.6287,-4.548,-4.5406,-4.5296,-4.4966,-4.4929,-4.4929,-4.4929,-4.5259,-4.5406,-4.5406,-4.5736,-4.6177,-4.6746,-4.6746,-4.7058,-6.6937,-6.6906,-6.6911,-6.6914,-6.6914,-6.6523,0.0,0.0,-6.3867,-6.2382,-6.1871,-6.1708,-6.1694,-6.166,-6.1619,0.0,0.0,-6.1388,0.0,0.0,0.0,0.0,0.0,-6.0793,-6.0757,-6.0673,-6.0585,-6.052,-6.0504,-6.0436,-6.0337,-6.0137,-5.9918,-5.9616,-5.951,-5.9364,-5.9309,-5.9215,-5.9008,-5.8745,-5.8108,-5.7547,-5.7042,-5.5865,-5.5229,-5.5003,-5.46,-5.4455,-5.4592,-5.4791,-5.4956,-5.5085,-5.517,-5.5301,-5.5425,-5.5485,-5.5554,-5.5649,-5.5692,-5.5703,-5.5703,-5.5703,-5.5703,-5.5577,-5.4924,-5.4123,-5.3432,-5.341,-5.3207,-5.3069,-5.3299,-5.3318,-5.3262,-5.3404,-5.3429,-5.3301,-5.3033,-5.2914,-5.2741,-5.2442,-5.2235,-5.2114,-5.2037,-5.1421,-5.0916,-5.0783,-5.0179,-4.9611,-4.9228,-4.912,-4.8937,-4.8624,-4.8476,-4.8162,-4.7573,-4.7462,-4.7113,-4.6324,-4.625,-4.614,-4.592,-4.5883,-4.5938,-4.5974,-4.6195,-4.6305,-4.6342,-4.6562,-4.704,-4.7666,-4.7666,-4.807,-6.7129,-6.6904,-6.6906,-6.6914,-6.6914,-6.668,0.0,0.0,-6.4062,-6.3164,-6.2304,-6.1716,-6.171,-6.1694,-6.1666,-6.1612,0.0,0.0,-6.1426,0.0,0.0,0.0,0.0,-6.0911,-6.0911,-6.0769,-6.066,-6.0585,-6.0623,-6.052,-6.0422,-6.0408,-6.0226,-5.9902,-5.9786,-5.9647,-5.9598,-5.951,-5.9044,-5.8108,-5.7978,-5.6987,-5.5324,-5.5452,-5.5093,-5.4409,-5.4472,-5.4651,-5.4905,-5.492,-5.5028,-5.5197,-5.5249,-5.5364,-5.5523,-5.5554,-5.566,-5.5703,-5.5703,-5.5703,-5.5703,-5.5703,-5.5703,-5.5703,-5.5703,-5.5126,-5.4462,-5.4419,-5.3739,-5.3184,-5.4077,-5.4308,-5.4488,-5.5293,-5.5376,-5.5046,-5.4256,-5.4001,-5.3615,-5.2672,-5.2451,-5.2366,-5.2317,-5.2068,-5.1872,-5.1872,-5.1761,-5.1292,-5.0244,-5.0097,-4.9691,-4.8716,-4.8605,-4.8569,-4.8494,-4.8363,-4.792,-4.7149,-4.7076,-4.6709,-4.592,-4.5883,-4.5974,-4.6101,-4.6892,-4.7334,-4.7387,-4.8162,-4.8569,-4.8587,-4.8587,-4.8714,-6.7774,-6.7324,-6.6905,-6.6912,-6.6914,-6.668,-6.5781,0.0,-6.4062,-6.3164,-6.2304,-6.1716,-6.171,-6.1696,-6.1668,-6.1595,-6.1582,0.0,0.0,0.0,0.0,-6.1127,-6.098,-6.09,-6.0854,-6.0781,-6.0734,-6.066,-6.066,-6.0623,-6.052,-6.0558,-6.0384,-6.0038,-5.9944,-5.9847,-5.9803,-5.9152,-5.8635,-5.8267,-5.712,-5.6257,-5.5676,-5.5183,-5.4856,-5.4673,-5.473,-5.4837,-5.4971,-5.5085,-5.5157,-5.5301,-5.5326,-5.5437,-5.5593,-5.5604,-5.566,-5.5703,-5.5703,-5.5703,-5.5703,-5.5703,-5.5703,-5.5703,-5.5703,-5.5511,-5.5318,-5.5308,-5.5055,-5.4918,-5.5143,-5.5209,-5.5236,-5.5458,-5.5449,-5.5387,-5.5119,-5.4931,-5.4752,-5.4472,-5.4341,-5.4216,-5.4109,-5.3543,-5.3074,-5.2887,-5.2285,-5.172,-5.1286,-5.1235,-5.1054,-5.0741,-5.006,-4.9342,-4.8624,-4.8532,-4.8403,-4.8145,-4.8145,-4.7997,-4.7758,-4.7758,-4.7758,-4.7794,-4.8052,-4.8218,-4.8217,-4.8476,-4.8678,-4.8803,-4.8942,-4.9325,0.0,-6.7514,-6.6905,-6.691,-6.6913,0.0,0.0,0.0,-6.414,-6.3594,-6.2539,-6.1717,-6.171,-6.1701,-6.1683,-6.1605,-6.1608,0.0,0.0,0.0,0.0,-6.107,0.0,0.0,-6.0827,-6.0793,-6.0769,-6.0734,-6.0734,-6.0697,-6.0623,-6.0316,-6.0035,-5.9817,-5.9701,-5.9597,-5.9526,-5.8644,-5.7959,-5.7597,-5.6516,-5.5857,-5.5523,-5.5025,-5.4845,-5.489,-5.4941,-5.5014,0.0,-5.5183,-5.5262,-5.5365,-5.5425,-5.5547,-5.5577,-5.5638,-5.5671,-5.5703,-5.5703,-5.5703,-5.5703,-5.5703,-5.5703,-5.5703,-5.5703,-5.5703,-5.5703,-5.5703,-5.5703,-5.5703,-5.566,-5.5649,-5.5638,-5.5604,-5.557,-5.5558,-5.5558,-5.5437,-5.539,-5.5326,-5.5236,-5.5154,-5.5042,-5.4553,-5.4124,-5.3943,-5.3381,-5.2833,-5.2419,-5.2298,-5.2119,-5.1786,-5.1126,-5.0465,-4.9821,-4.9047,-4.8624,-4.8624,-4.8624,-4.8624,-4.8624,-4.8624,-4.8642,-4.8714,-4.8714,-4.875,-4.8838,-4.9135,-4.9539,-4.9993,-5.011,-5.0492,0.0,0.0,0.0,0.0,0.0,0.0,0.0,0.0,0.0,-6.4297,-6.289,-6.1718,-6.1711,-6.1709,-6.1699,-6.1609,-6.1619,0.0,0.0,-6.1394,0.0,0.0,-6.099,-6.0965,-6.0911,-6.0777,-6.0704,-6.0704,-6.0666,-6.0604,-6.0505,-5.9775,-5.9278,-5.9204,-5.9037,-5.8901,-5.8819,-5.7967,-5.7124,-5.6306,-5.6192,-5.5692,-5.4935,-5.4971,-5.5014,-5.5028,-5.5099,-5.513,-5.521,-5.5313,-5.5339,-5.5451,-5.5531,-5.5615,-5.5626,-5.5682,-5.5703,-5.5703,-5.5703,-5.5703,-5.5703,-5.5703,-5.5703,-5.5703,-5.5703,-5.5703,-5.5703,-5.5703,-5.5703,-5.5703,-5.5703,-5.5703,-5.5703,-5.5703,-5.566,-5.5626,-5.5626,-5.5531,-5.5473,-5.5451,-5.5339,-5.5275,-5.521,-5.5075,-5.5,-5.495,-5.486,-5.4487,-5.3515,-5.3344,-5.2998,-5.2111,-5.1877,-5.1789,-5.1789,-4.9968,-4.8808,-4.8808,-4.8771,-4.8734,-4.8734,-4.866,-4.8769,-4.9019,-4.9056,-4.9196,-4.9401,-5.0127,-5.0962,-5.1794,-5.1849,-5.1931,0.0,0.0,0.0,0.0,0.0,0.0,0.0,0.0,0.0,0.0,0.0,0.0,0.0,0.0,-6.1699,-6.1609,0.0,-6.156,-6.1501,-6.1373,0.0,-6.1079,-6.101,-6.0965,-6.0911,-6.0238,-5.9819,-5.9819,-5.9242,-5.8885,-5.8873,-5.8681,-5.8531,-5.8472,-5.7796,-5.7608,-5.8061,-5.7221,-5.6671,-5.6378,-5.5693,-5.5237,-5.5071,-5.5085,-5.5088,-5.5143,-5.521,-5.5275,-5.5339,-5.5451,-5.5473,-5.557,-5.5604,-5.5649,-5.5692,-5.5703,-5.5703,-5.5703,-5.5703,-5.5703,-5.5703,-5.5703,-5.5703,-5.5703,-5.5703,-5.5703,-5.5703,-5.5703,-5.5703,-5.5703,-5.5703,-5.5703,-5.5703,-5.5703,-5.5692,-5.5682,-5.5682,-5.5638,-5.5554,-5.557,-5.5485,-5.5439,-5.5275,-5.5236,-5.5208,-5.5085,-5.5,-5.4836,-5.4542,-5.4465,-5.4311,-5.4043,-5.336,-5.2935,-5.2935,-5.1731,-5.0962,-5.0962,-5.0348,-4.9975,-4.9975,-4.9379,-4.9359,-5.0027,-5.0746,-5.1133,-5.1183,-5.1464,-5.1716,-5.1973,-5.2099,-5.2515,0.0,0.0,0.0,0.0,0.0,0.0,0.0,0.0,0.0,0.0,0.0,0.0,0.0,0.0,0.0,0.0,-6.1595,0.0,0.0,0.0,-6.0497,-6.0003,-5.9901,-5.985,-5.9759,-5.9271,-5.8957,-5.8934,-5.855,-5.8319,-5.8319,-5.7934,-5.7692,-5.7659,-5.6813,-5.6656,-5.7328,-5.6524,-5.6066,-5.6001,-5.5504,-5.5275,-5.5275,-5.5275,-5.5288,-5.5326,-5.5364,-5.5401,-5.5437,-5.5535,-5.5581,-5.5577,-5.5649,-5.5682,-5.5703,-5.5703,-5.5703,-5.5703,-5.5703,-5.5703,-5.5703,-5.5703,-5.5703,-5.5703,-5.5703,-5.5703,-5.5703,-5.5703,-5.5703,-5.5703,-5.5703,-5.5703,-5.5703,-5.5703,-5.5703,-5.5703,-5.5703,-5.5682,-5.5649,-5.5626,-5.5593,-5.5497,-5.5389,-5.539,-5.5288,-5.5222,-5.5116,-5.5085,-5.5,-5.4927,-5.489,-5.486,-5.4367,-5.4018,-5.4018,-5.3478,-5.2768,-5.1853,-5.1366,-5.1087,-5.1087,-5.0675,-5.0654,-5.1136,-5.1684,-5.2183,-5.2521,-5.2649,-5.2915,-5.3339,-5.3459,-5.3798,0.0,0.0,0.0,0.0,0.0,0.0,0.0,0.0,0.0,0.0,0.0,0.0,0.0,-6.1704,0.0,0.0,0.0,0.0,-6.026,-6.0063,-5.9661,-5.8729,-5.8556,-5.8462,-5.8412,-5.8235,-5.8105,-5.8088,-5.7973,-5.7896,-5.7896,-5.7203,-5.6791,-5.6791,-5.6088,-5.6006,-5.6621,-5.588,-5.5497,-5.5485,-5.5485,-5.5485,-5.5485,-5.5485,-5.5485,-5.5485,-5.5497,-5.5535,-5.5497,-5.5604,-5.5626,-5.5638,-5.5692,-5.5703,-5.5703,-5.5703,-5.5703,-5.5703,-5.5703,-5.5703,-5.5703,-5.5703,-5.5703,-5.5703,-5.5703,-5.5703,-5.5703,-5.5703,-5.5703,-5.5703,-5.5703,-5.5703,-5.5703,-5.5703,-5.5703,-5.5703,-5.5703,-5.5703,-5.5692,-5.5638,-5.5626,-5.5577,-5.5547,-5.5449,-5.5389,-5.5326,-5.5262,-5.5197,-5.5154,-5.5085,-5.5028,-5.5014,-5.4956,-5.4912,-5.4912,-5.4912,-5.4201,-5.2504,-5.2231,-5.2102,-5.1989,-5.2102,-5.2171,-5.2234,-5.2515,-5.2976,-5.3641,-5.3717,-5.4132,-5.4912,-5.5,-5.5085,-7.0829,-6.9923,0.0,0.0,0.0,0.0,0.0,0.0,0.0,0.0,0.0,0.0,0.0,-6.1704,-6.1688,0.0,0.0,-6.1195,-6.0316,-6.0085,-5.9669,-5.8808,-5.8574,-5.8462,-5.8412,-5.7734,-5.7258,-5.7214,-5.6511,-5.6088,-5.6088,-5.5972,-5.5895,-5.5895,-5.578,-5.5731,-5.5874,-5.5665,-5.557,-5.5485,-5.5485,-5.5485,-5.5485,-5.5485,-5.5485,-5.5485,-5.5581,-5.5566,-5.5604,-5.5671,-5.5692,-5.5692,-5.5703,-5.5703,-5.5703,-5.5703,-5.5703,-5.5703,-5.5703,-5.5703,-5.5703,-5.5703,-5.5703,-5.5703,-5.5703,-5.5703,-5.5703,-5.5703,-5.5703,-5.5703,-5.5703,-5.5703,-5.5703,-5.5703,-5.5703,-5.5703,-5.5703,-5.5703,-5.5703,-5.5692,-5.5692,-5.5671,-5.5615,-5.5593,-5.557,-5.5461,-5.5401,-5.5365,-5.5301,-5.5197,-5.513,-5.5113,-5.5085,-5.5085,-5.5085,-5.5085,-5.4957,-5.4648,-5.3798,-5.3043,-5.2361,-5.2967,-5.336,-5.336,-5.4153,-5.4652,-5.4752,-5.48,-5.4919,-5.5085,-5.5116,-5.5197,-7.137,-7.0329,-6.9276,0.0,0.0,0.0,0.0,0.0,0.0,0.0,0.0,0.0,0.0,0.0,-6.1679,-6.1602,-6.1179,-6.0528,-5.9622,-5.8992,-5.8326,-5.7467,-5.7271,-5.7184,-5.7101,-5.6705,-5.6424,-5.6372,-5.5955,-5.5703,-5.5703,-5.5703,-5.5703,-5.5703,-5.5703,-5.5703,-5.5703,-5.5682,-5.5649,-5.5626,-5.5626,-5.5626,-5.5626,-5.5626,-5.5626,-5.5626,-5.5649,-5.5391,-5.5017,-5.5038,-5.5049,-5.5049,-5.5049,-5.5318,-5.5703,-5.5703,-5.5703,-5.5703,-5.5703,-5.5703,-5.5703,-5.5703,-5.5703,-5.5703,-5.5703,-5.5703,-5.5703,-5.5703,-5.5703,-5.5703,-5.5703,-5.5703,-5.5703,-5.5703,-5.5703,-5.5703,-5.5703,-5.5703,-5.5703,-5.5703,-5.6088,-5.6395,-5.6363,-5.6713,-5.6986,-5.6963,-5.6904,-5.6855,-5.683,-5.6805,-5.6575,-5.6078,-5.6002,-5.5849,-5.5339,-5.5301,-5.5236,-5.5127,-5.4676,-5.4216,-5.3874,-5.4216,-5.4406,-5.4406,-5.4814,-5.5071,-5.5071,-5.5168,-5.5222,-5.5235,-5.5811,-5.6065,-7.1827,-7.0619,-6.9334,0.0,0.0,0.0,0.0,0.0,0.0,0.0,0.0,0.0,0.0,-6.1692,0.0,-6.1602,-6.0876,-5.996,-5.9038,-5.8091,-5.7165,-5.6318,-5.6149,-5.6084,-5.5998,-5.5943,-5.5895,-5.5797,-5.5756,-5.5724,-5.5703,-5.5703,-5.5703,-5.5703,-5.5703,-5.5703,-5.5703,-5.5703,-5.5703,-5.5703,-5.5703,-5.5703,-5.5703,-5.5511,-5.5434,-5.5395,-5.5203,-5.4741,-5.4203,-5.4203,-5.4203,-5.4203,-5.4434,-5.4972,-5.5703,-5.5703,-5.5703,-5.5703,-5.5703,-5.5703,-5.5703,-5.5703,-5.5703,-5.5703,-5.5703,-5.5703,-5.5703,-5.5703,-5.5703,-5.5703,-5.5703,-5.5703,-5.5703,-5.5703,-5.5703,-5.5703,-5.5703,-5.5857,-5.6011,-5.6011,-5.6703,-5.7291,-5.7291,-5.7824,-5.8212,-5.8212,-5.8165,-5.8129,-5.8129,-5.8117,-5.7836,-5.7184,-5.7107,-5.6839,-5.6175,-5.6098,-5.6013,-5.5807,-5.5412,-5.5183,-5.5183,-5.5183,-5.5183,-5.5183,-5.5183,-5.5298,-5.5489,-5.5594,-5.5747,-5.5989,-5.6752,-5.7107,-7.1806,-7.0571,-6.9334,-6.9394,-6.8152,0.0,-6.5781,-6.4922,0.0,-6.3164,0.0,0.0,0.0,-6.164,-6.1598,-6.1598,-6.0876,-5.996,-5.9038,-5.8091,-5.7172,-5.6315,-5.6126,-5.6054,-5.6012,-5.5998,-5.5933,-5.5797,-5.5787,-5.5766,-5.5714,-5.5703,-5.5703,-5.5703,-5.5703,-5.5703,-5.5703,-5.5703,-5.5703,-5.5703,-5.5703,-5.5703,-5.5665,-5.4934,-5.4587,-5.4549,-5.3741,-5.3356,-5.328,-5.328,-5.328,-5.3356,-5.4164,-5.4972,-5.5703,-5.5703,-5.5703,-5.5703,-5.5703,-5.5703,-5.5703,-5.5703,-5.5703,-5.5703,-5.5703,-5.5703,-5.5703,-5.5703,-5.5703,-5.5703,-5.5703,-5.5703,-5.5703,-5.5703,-5.5703,-5.5703,-5.5703,-5.6329,-5.6907,-5.6907,-5.7588,-5.8204,-5.8204,-5.8231,-5.8308,-5.8308,-5.8262,-5.8177,-5.8177,-5.8141,-5.8066,-5.7989,-5.7989,-5.7989,-5.7913,-5.7913,-5.7913,-5.7888,-5.6381,-5.5449,-5.5449,-5.5449,-5.5449,-5.5449,-5.5449,-5.5883,-5.6688,-5.67,-5.7095,-5.7901,-5.7951,-5.8064,-7.1761,-7.0566,-6.9334,-6.9394,0.0,0.0,0.0,-6.4922,-6.4062,-6.3164,-6.2303,0.0,0.0,0.0,-6.1491,-6.0935,-6.0083,-5.9187,-5.8291,-5.7392,-5.6685,-5.6317,-5.6185,-5.6126,-5.6062,-5.6012,-5.5998,-5.5924,-5.5865,-5.5787,-5.5766,-5.5724,-5.5703,-5.5703,-5.5703,-5.5703,-5.5703,-5.5703,-5.5703,-5.5703,-5.5703,-5.5434,-5.4934,-5.4626,-5.4203,-5.3664,-5.3356,-5.2895,-5.2385,-5.2385,-5.2692,-5.3356,-5.4703,-5.5434,-5.5703,-5.5703,-5.5703,-5.5703,-5.5703,-5.5703,-5.5703,-5.5703,-5.5703,-5.5703,-5.5703,-5.5703,-5.5703,-5.5703,-5.5703,-5.5703,-5.5703,-5.5703,-5.5703,-5.5703,-5.6088,-5.6522,-5.6522,-5.7203,-5.7819,-5.7819,-5.8473,-5.905,-5.905,-5.9511,-5.9858,-5.9858,-5.9835,-5.9823,-5.9823,-5.9811,-5.9569,-5.9031,-5.8519,-5.8212,-5.8212,-5.8212,-5.8212,-5.8212,-5.7527,-5.7107,-5.7107,-5.7107,-5.7107,-5.7107,-5.7107,-5.7299,-5.7606,-5.7642,-5.7846,-5.8191,-5.8738,-5.8992,-7.1761,-7.0566,-6.9334,0.0,0.0,0.0,-6.6132,-6.5117,-6.4062,-6.3164,-6.2304,-6.1714,-6.1701,0.0,-6.1429,-6.0555,-5.9638,-5.8714,-5.7814,-5.6933,-5.6391,-5.6317,-5.6278,-5.6192,-5.6126,-5.6062,-5.6012,-5.5998,-5.5924,-5.5827,-5.5797,-5.5756,-5.5724,-5.5703,-5.5703,-5.5703,-5.5703,-5.5703,-5.5703,-5.5703,-5.5434,-5.5011,-5.4472,-5.4203,-5.3626,-5.2779,-5.251,-5.2087,-5.151,-5.151,-5.2202,-5.3356,-5.478,-5.5472,-5.5703,-5.5703,-5.5703,-5.5703,-5.5703,-5.5703,-5.5703,-5.5703,-5.5703,-5.5703,-5.5703,-5.5703,-5.5703,-5.5703,-5.5703,-5.5742,-5.6049,-5.6088,-5.6088,-5.6088,-5.678,-5.7407,-5.7407,-5.8088,-5.8665,-5.8665,-5.9358,-5.9896,-5.9896,-6.0396,-6.0781,-6.0781,-6.0781,-6.0781,-6.0781,-6.0781,-6.055,-5.9973,-5.9435,-5.9088,-5.9088,-5.9088,-5.9088,-5.9088,-5.9019,-5.8702,-5.8203,-5.8165,-5.8165,-5.8165,-5.8165,-5.828,-5.8549,-5.8584,-5.875,-5.9031,-5.9642,-5.9896,-7.1761,-7.0566,-6.9334,0.0,0.0,0.0,-6.6914,0.0,-6.4062,-6.3164,-6.2304,-6.1714,-6.1701,-6.1688,-6.1403,-6.0531,-5.9658,-5.8776,-5.7836,-5.6935,-5.6363,-5.6319,-5.6317,-5.6278,-5.6206,-5.6126,-5.6062,-5.6012,-5.6007,-5.5933,-5.5797,-5.5797,-5.5766,-5.5714,-5.5703,-5.5703,-5.5703,-5.5703,-5.5703,-5.5703,-5.4895,-5.4511,-5.4472,-5.3587,-5.2692,-5.1846,-5.1048,-5.0712,-5.0712,-5.0712,-5.1702,-5.3318,-5.4164,-5.5011,-5.5703,-5.5703,-5.5703,-5.5703,-5.5703,-5.5703,-5.5703,-5.5703,-5.5703,-5.5703,-5.5703,-5.5703,-5.5703,-5.5703,-5.5703,-5.5895,-5.6791,-5.7022,-5.7022,-5.7022,-5.7665,-5.8319,-5.8319,-5.8934,-5.9511,-5.9511,-6.0204,-6.0781,-6.0781,-6.0781,-6.0781,-6.0781,-6.0781,-6.0781,-6.0781,-6.0781,-6.0781,-6.0781,-6.0781,-6.0781,-6.0781,-6.0781,-6.0781,-6.0781,-6.0781,-6.005,-5.8396,-5.8319,-5.8319,-5.8319,-5.8319,-5.8704,-5.9511,-5.9511,-5.9973,-6.0781,-6.0781,-6.0781,-7.1761,-7.0566,0.0,-6.9394,0.0,0.0,0.0,0.0,0.0,0.0,-6.1874,-6.1716,-6.1713,-6.1704,-6.1221,-5.9727,-5.9282,-5.8562,-5.7056,-5.6601,-5.6381,-5.6359,-5.6336,-5.6278,-5.6278,-5.6192,-5.6133,-5.6062,-5.6012,-5.5959,-5.5933,-5.5827,-5.5787,-5.5766,-5.5724,-5.5703,-5.5703,-5.5703,-5.5703,-5.5703,-5.5472,-5.4741,-5.3549,-5.2692,-5.1856,-5.1048,-5.0789,-5.0712,-5.0789,-5.1972,-5.3126,-5.4203,-5.5011,-5.5472,-5.5703,-5.5703,-5.5703,-5.5703,-5.5703,-5.5703,-5.5703,-5.5703,-5.5703,-5.5703,-5.5703,-5.5703,-5.5818,-5.6445,-5.6599,-5.683,-5.7703,-5.8319,-5.8627,-5.805,-5.855,-5.9127,-5.9127,-5.9819,-6.0396,-6.0396,-6.0627,-6.0781,-6.0781,-6.0781,-6.0781,-6.0781,-6.0781,-6.0781,-6.0781,-6.0781,-6.0781,-6.0781,-6.0781,-6.0781,-6.0781,-6.0781,-6.0781,-6.0781,-6.0781,-6.0589,-6.0089,-6.005,-6.005,-6.005,-6.005,-6.0165,-6.0396,-6.0396,-6.055,-6.0781,-6.0781,-6.0781,-7.1817,-7.0849,0.0,-6.9472,-6.8387,-6.722,-6.6523,0.0,0.0,0.0,-6.1718,-6.1718,-6.1717,-6.1712,-6.1118,-5.9388,-5.9107,-5.8509,-5.6731,-5.6475,-5.6418,-5.639,-5.6349,-5.6336,-5.6317,-5.6246,-5.6199,-5.6133,-5.607,-5.6012,-5.6007,-5.5933,-5.5875,-5.5797,-5.5756,-5.5735,-5.5703,-5.5703,-5.5703,-5.5703,-5.5395,-5.4703,-5.3703,-5.2818,-5.1779,-5.0712,-5.1048,-5.1164,-5.1318,-5.301,-5.4049,-5.4587,-5.5395,-5.5703,-5.5703,-5.5703,-5.5703,-5.5703,-5.5703,-5.5703,-5.5703,-5.5703,-5.5703,-5.5703,-5.5703,-5.5934,-5.6329,-5.6868,-5.7253,-5.7703,-5.855,-5.9127,-5.9396,-5.8896,-5.9396,-6.0012,-6.0012,-6.0435,-6.0781,-6.0781,-6.0781,-6.0781,-6.0781,-6.0781,-6.0781,-6.0781,-6.0781,-6.0781,-6.0781,-6.0781,-6.0781,-6.0781,-6.0781,-6.0781,-6.0781,-6.0781,-6.0781,-6.0781,-6.0781,-6.0781,-6.0781,-6.0781,-6.0781,-6.0781,-6.0781,-6.0781,-6.0781,-6.0781,-6.0781,-6.0781,-6.0781,-6.0973,-7.1877,0.0,0.0,-6.9589,-6.87,0.0,-6.5976,-6.5,-6.3906,-6.2187,0.0,-6.1719,-6.1717,-6.1717,-6.1129,-5.94,-5.9083,-5.849,-5.6748,-5.6509,-5.6491,-5.6402,-5.6394,-5.6363,-5.6325,-5.6284,-5.6285,-5.6206,-5.6133,-5.607,-5.602,-5.6007,-5.5943,-5.5807,-5.5797,-5.5766,-5.5703,-5.5703,-5.5703,-5.5703,-5.4972,-5.4549,-5.4472,-5.3587,-5.2356,-5.0981,-5.1702,-5.2038,-5.2269,-5.3857,-5.4549,-5.4664,-5.5395,-5.5703,-5.5703,-5.5703,-5.5714,-5.5714,-5.5714,-5.5714,-5.5724,-5.5724,-5.5724,-5.5724,-5.5801,-5.6379,-5.7033,-5.7187,-5.7791,-5.8599,-5.9407,-5.9627,-5.9627,-5.9627,-6.0204,-6.0781,-6.0781,-6.0781,-6.0781,-6.0781,-6.0781,-6.0781,-6.0781,-6.0781,-6.0781,-6.0781,-6.0781,-6.0781,-6.0781,-6.0781,-6.0781,-6.0781,-6.0781,-6.0781,-6.0781,-6.0858,-6.0935,-6.0935,-6.0973,-6.1012,-6.1012,-6.0896,-6.0781,-6.0781,-6.0781,-6.0781,-6.0781,-6.0781,-6.0819,-6.0935,-6.0935,-6.1358,0.0,-7.1252,0.0,0.0,-6.8277,-6.6874,-6.5859,-6.5469,-6.4844,-6.3086,-6.2187,-6.1719,-6.1719,-6.1718,-6.1169,-5.9449,-5.9129,-5.8495,-5.6811,-5.6521,-5.6503,-5.6494,-5.6418,-5.6381,-5.6368,-5.6342,-5.6278,-5.6285,-5.6199,-5.6141,-5.607,-5.602,-5.595,-5.5885,-5.5807,-5.5766,-5.5703,-5.5703,-5.5703,-5.5703,-5.5511,-5.5126,-5.4472,-5.3587,-5.301,-5.2664,-5.2856,-5.3318,-5.3972,-5.4357,-5.4857,-5.5472,-5.5626,-5.5703,-5.5703,-5.5703,-5.5735,-5.5776,-5.5776,-5.5797,-5.5865,-5.5865,-5.5865,-5.5981,-5.6685,-5.6994,-5.7418,-5.8729,-5.9237,-5.9502,-6.0388,-6.0546,-6.0512,-6.0512,-6.0666,-6.0781,-6.0781,-6.0781,-6.0781,-6.0781,-6.0781,-6.0781,-6.0781,-6.0781,-6.0781,-6.0781,-6.0781,-6.0781,-6.0781,-6.0781,-6.0781,-6.0781,-6.0781,-6.0781,-6.0781,-6.1435,-6.1831,-6.1831,-6.2397,-6.2781,-6.2781,-6.1512,-6.0781,-6.0781,-6.0781,-6.0781,-6.0781,-6.0781,-6.1127,-6.1831,-6.1831,-6.2243,0.0,0.0,0.0,-6.9706,0.0,-6.7305,-6.6406,-6.5898,-6.5351,-6.4414,-6.3203,-6.2187,-6.1797,-6.1718,-6.1288,-5.9998,-5.9409,-5.8699,-5.7365,-5.6807,-5.6521,-5.6509,-5.6485,-5.6422,-5.639,-5.6354,-5.6347,-5.6284,-5.6285,-5.6231,-5.6149,-5.6062,-5.6033,-5.5943,-5.5885,-5.5797,-5.5745,-5.5724,-5.5703,-5.5703,-5.5735,-5.5563,-5.5122,-5.3831,-5.3243,-5.3282,-5.3696,-5.411,-5.4513,-5.4937,-5.535,-5.5703,-5.5703,-5.5724,-5.5745,-5.5745,-5.5776,-5.5865,-5.5865,-5.5875,-5.5895,-5.5895,-5.6175,-5.6599,-5.7072,-5.7766,-5.8577,-5.9464,-5.9973,-6.0366,-6.0828,-6.0933,-6.0911,-6.0911,-6.0866,-6.0781,-6.0781,-6.0781,-6.0781,-6.0781,-6.0781,-6.0781,-6.0781,-6.0781,-6.0781,-6.0781,-6.1166,-6.1396,-6.1396,-6.1743,-6.2012,-6.2012,-6.2012,-6.2012,-6.2012,-6.2397,-6.2666,-6.2666,-6.3089,-6.3308,-6.3308,-6.2474,-6.2012,-6.2012,-6.2012,-6.2012,-6.2012,-6.2012,-6.2243,-6.2666,-6.2666,-6.3128,0.0,0.0,0.0,0.0,0.0,0.0,-6.7109,-6.6328,-6.5781,-6.5625,-6.4219,-6.2773,-6.207,-6.1797,-6.1406,-6.0545,-5.9842,-5.9019,-5.7955,-5.7247,-5.6731,-5.6555,-5.6511,-5.6494,-5.641,-5.6394,-5.6363,-5.6336,-5.6329,-5.6272,-5.6202,-5.6157,-5.6084,-5.5989,-5.5933,-5.5875,-5.5797,-5.5735,-5.5714,-5.5724,-5.5776,-5.5865,-5.5856,-5.44,-5.3774,-5.3803,-5.4506,-5.4805,-5.4805,-5.5537,-5.5776,-5.5735,-5.5735,-5.5766,-5.5807,-5.5807,-5.5875,-5.5914,-5.5924,-5.5933,-5.5981,-5.6106,-5.6656,-5.7274,-5.7593,-5.8636,-5.9785,-5.9929,-6.046,-6.1018,-6.1008,-6.0997,-6.0987,-6.0987,-6.0922,-6.0816,-6.0804,-6.0793,-6.0781,-6.0781,-6.0781,-6.0781,-6.0781,-6.0935,-6.1012,-6.1012,-6.1743,-6.2332,-6.2332,-6.2897,-6.3308,-6.3308,-6.3308,-6.3308,-6.3308,-6.3435,-6.3512,-6.3512,-6.3666,-6.3743,-6.3743,-6.3743,-6.3743,-6.3743,-6.3474,-6.3308,-6.3308,-6.3308,-6.3397,-6.3512,-6.3512,-6.4012,0.0,0.0,0.0,0.0,0.0,-6.7969,0.0,0.0,-6.6523,0.0,-6.4219,-6.2969,-6.2851,-6.2226,-6.1406,-6.0547,-6.0311,-5.9685,-5.8121,-5.7723,-5.7363,-5.6657,-5.6521,-5.6506,-5.65,-5.6418,-5.6386,-5.6377,-5.6347,-5.6284,-5.6278,-5.6209,-5.6133,-5.6003,-5.5952,-5.5875,-5.5797,-5.5735,-5.5735,-5.5787,-5.5865,-5.5895,-5.5895,-5.5711,-5.5624,-5.5538,-5.5663,-5.5702,-5.5731,-5.5847,-5.5885,-5.5875,-5.5875,-5.5885,-5.5885,-5.5885,-5.5924,-5.5971,-5.5977,-5.6012,-5.6209,-5.6955,-5.7273,-5.7668,-5.918,-5.98,-6.0101,-6.0786,-6.105,-6.109,-6.1002,-6.099,-6.0987,-6.0987,-6.0976,-6.0955,-6.0911,-6.0816,-6.0781,-6.0781,-6.0781,-6.0781,-6.0781,-6.1435,-6.1947,-6.1947,-6.2627,-6.3128,-6.3128,-6.3243,-6.3308,-6.3308,-6.3308,-6.3308,-6.3308,-6.4012,-6.4436,-6.4436,-6.5128,-6.5551,-6.5551,-6.5551,-6.5551,-6.5551,-6.4089,-6.3308,-6.3308,-6.3308,-6.3705,-6.4436,-6.4436,-6.4897,0.0,0.0,0.0,0.0,0.0,0.0,-6.793,0.0,-6.7383,-6.6523,-6.5312,-6.414,-6.3164,-6.2695,-6.2148,-6.1289,-6.0703,-6.0156,-5.9412,-5.8471,-5.7725,-5.737,-5.685,-5.6526,-5.648,-5.6455,-5.6425,-5.639,-5.6359,-5.6347,-5.6298,-5.6245,-5.6172,-5.6046,-5.5998,-5.5933,-5.5914,-5.5855,-5.5865,-5.5914,-5.5923,-5.5998,-5.6025,-5.6076,-5.6059,-5.5941,-5.5941,-5.5941,-5.5941,-5.5952,-5.5924,-5.5895,-5.5895,-5.5914,-5.5943,-5.5971,-5.6016,-5.6137,-5.6613,-5.68,-5.6971,-5.7847,-5.8475,-5.9018,-5.9754,-6.0336,-6.0793,-6.1156,-6.1217,-6.1199,-6.1173,-6.1155,-6.1175,-6.1175,-6.109,-6.1041,-6.1021,-6.0948,-6.1037,-6.15,-6.1588,-6.1742,-6.2243,-6.2629,-6.2887,-6.2841,-6.3572,-6.4049,-6.4012,-6.4436,-6.4743,-6.4743,-6.4743,-6.4743,-6.4743,-6.5128,-6.532,-6.532,-6.5705,-6.5897,-6.5897,-6.5897,-6.5897,-6.5897,-6.5166,-6.4743,-6.4743,-6.4743,-6.4936,-6.532,-6.5782,-6.6205,0.0,0.0,0.0,0.0,0.0,0.0,0.0,0.0,-6.8008,-6.7344,-6.6523,-6.5469,-6.3945,-6.3281,-6.2773,-6.2148,-6.1289,-6.0664,-6.0429,-5.9334,-5.8474,-5.8236,-5.7448,-5.6894,-5.6844,-5.6638,-5.6497,-5.6445,-5.6394,-5.6388,-5.6323,-5.6272,-5.617,-5.6133,-5.6033,-5.6018,-5.6018,-5.5933,-5.5943,-5.5998,-5.6003,-5.6054,-5.611,-5.618,-5.6133,-5.6094,-5.6062,-5.6046,-5.6037,-5.6042,-5.6007,-5.598,-5.598,-5.5998,-5.6033,-5.6029,-5.6225,-5.6544,-5.721,-5.7582,-5.7899,-5.8799,-5.9505,-6.0087,-6.032,-6.0825,-6.1361,-6.1314,-6.1345,-6.1345,-6.1337,-6.1322,-6.1314,-6.1314,-6.1217,-6.1137,-6.109,-6.1204,-6.1499,-6.2088,-6.2397,-6.2744,-6.34,-6.367,-6.3803,-6.3758,-6.4479,-6.4995,-6.4973,-6.5692,-6.623,-6.6205,-6.6397,-6.6551,-6.6551,-6.6551,-6.6551,-6.6551,-6.6551,-6.6551,-6.6551,-6.6551,-6.6551,-6.6551,-6.6551,-6.6436,-6.6205,-6.6436,-6.6551,-6.6551,-6.7167,-6.7436,0.0,0.0,0.0,0.0,0.0,0.0,0.0,0.0,-6.8203,-6.8125,-6.7422,-6.6562,-6.5625,-6.4101,-6.3008,-6.293,-6.2187,-6.1328,-6.0508,-6.0311,-5.9998,-5.9216,-5.8353,-5.7801,-5.7754,-5.6964,-5.6516,-5.6482,-5.6449,-5.6407,-5.6386,-5.6259,-5.6178,-5.618,-5.6089,-5.6018,-5.6018,-5.6009,-5.5998,-5.6003,-5.6054,-5.6118,-5.6192,-5.6199,-5.6233,-5.6284,-5.6223,-5.6172,-5.6172,-5.6172,-5.6211,-5.6164,-5.6164,-5.6203,-5.6211,-5.6172,-5.6706,-5.7448,-5.7482,-5.8059,-5.8991,-5.9838,-6.0155,-6.0349,-6.1161,-6.1433,-6.1466,-6.1396,-6.1389,-6.1383,-6.1388,-6.1352,-6.1314,-6.1314,-6.1283,-6.1247,-6.1049,-6.1576,-6.2165,-6.2204,-6.286,-6.3439,-6.3477,-6.4211,-6.4751,-6.474,-6.5396,-6.594,-6.5931,-6.6639,-6.7115,-6.7026,-6.7782,-6.8282,-6.8282,-6.8282,-6.8282,-6.8282,-6.8282,-6.8282,-6.8282,-6.8282,-6.8282,-6.8282,-6.8282,-6.7859,-6.7051,-6.7859,-6.8282,-6.8282,-6.8321,-6.8321,0.0,0.0,0.0,0.0,0.0,-7.1328,-7.0469,-7.0039,-6.9492,-6.8437,-6.7969,-6.7461,-6.6601,-6.5469,-6.4297,-6.3164,-6.2734,-6.2226,-6.1367,-6.0742,-6.0273,-6.0,-5.9256,-5.8707,-5.8705,-5.7875,-5.7313,-5.7336,-5.6797,-5.6441,-5.6378,-5.6314,-5.6233,-5.618,-5.6109,-5.6068,-5.6068,-5.6068,-5.6093,-5.6133,-5.6202,-5.6251,-5.6278,-5.6323,-5.6325,-5.6358,-5.6347,-5.631,-5.6246,-5.6238,-5.6216,-5.6216,-5.6187,-5.6543,-5.7038,-5.7028,-5.7599,-5.8493,-5.903,-5.9455,-5.9866,-6.0734,-6.1022,-6.1076,-6.1422,-6.15,-6.15,-6.1489,-6.1473,-6.1456,-6.1451,-6.1849,-6.24,-6.2924,-6.3026,-6.299,-6.2904,-6.3029,-6.337,-6.3951,-6.43,-6.4687,-6.5267,-6.5625,-6.5983,-6.6453,-6.678,-6.7134,-6.7622,-6.7918,-6.8087,-6.8013,-6.8283,-6.845,-6.8398,-6.8385,-6.8385,-6.8385,-6.8385,-6.8385,-6.8385,-6.8385,-6.8385,-6.8385,-6.8936,-6.8821,-6.7936,-6.8244,-6.8385,-6.8398,-6.8975,-6.9244,0.0,0.0,0.0,0.0,0.0,-7.1836,-7.1289,-7.0898,-7.039,-6.9258,-6.8594,-6.8008,-6.7422,-6.6601,-6.5547,-6.4101,-6.3633,-6.3125,-6.2265,-6.164,-6.1172,-6.0859,-6.0117,-5.9608,-5.9607,-5.878,-5.8222,-5.8248,-5.7713,-5.7201,-5.686,-5.6764,-5.6563,-5.6164,-5.6133,-5.6117,-5.6117,-5.6133,-5.6164,-5.6223,-5.6272,-5.6317,-5.6319,-5.6363,-5.6398,-5.6425,-5.6446,-5.6417,-5.6331,-5.6589,-5.668,-5.6719,-5.701,-5.7444,-5.7968,-5.7955,-5.8575,-5.9466,-6.0033,-6.0414,-6.0755,-6.1339,-6.1543,-6.1517,-6.1517,-6.1517,-6.1595,-6.1903,-6.1972,-6.2041,-6.2313,-6.2839,-6.3392,-6.3896,-6.4273,-6.4461,-6.439,-6.4318,-6.4449,-6.5031,-6.5364,-6.5821,-6.6674,-6.6821,-6.7056,-6.7842,-6.7967,-6.8158,-6.8602,-6.8876,-6.9022,-6.8937,-6.9155,-6.9323,-6.9244,-6.9244,-6.9244,-6.9244,-6.9244,-6.9244,-6.9244,-6.9244,-6.9398,-6.9667,-7.0244,-7.0398,-7.0129,-6.9513,-6.9398,-6.9706,-7.0283,-7.0706,0.0,0.0,0.0,0.0,0.0,0.0,-7.1992,0.0,-7.0742,-7.0703,-6.9414,-6.8242,-6.8203,-6.75,-6.664,-6.5781,-6.4922,-6.4023,-6.3164,-6.3047,-6.2695,-6.1836,-6.0976,-6.0468,-6.0428,-5.9643,-5.9126,-5.9148,-5.912,-5.8687,-5.78,-5.7665,-5.7139,-5.6164,-5.6117,-5.6117,-5.6117,-5.6164,-5.6223,-5.6298,-5.6298,-5.6325,-5.639,-5.639,-5.6449,-5.6485,-5.6521,-5.6492,-5.651,-5.7263,-5.7637,-5.7715,-5.8571,-5.8921,-5.8927,-5.8927,-5.9542,-6.0326,-6.0326,-6.0902,-6.1598,-6.1598,-6.1598,-6.1598,-6.1598,-6.1638,-6.1833,-6.2652,-6.2925,-6.3159,-6.4017,-6.4236,-6.4246,-6.4198,-6.4844,-6.5423,-6.5387,-6.533,-6.528,-6.5273,-6.5895,-6.6717,-6.7579,-6.77,-6.7936,-6.8789,-6.8946,-6.8936,-6.8875,-6.9507,-6.9919,-6.9862,-7.0581,-7.1017,-7.0989,-7.0975,-7.0975,-7.0975,-7.0975,-7.0975,-7.0975,-7.0975,-7.136,-7.2206,-7.2245,-7.2629,-7.3514,-7.1783,-7.1398,-7.2245,-7.2245,-7.2706,-7.1836,0.0,0.0,0.0,0.0,0.0,0.0,0.0,-7.1445,-7.082,-7.0312,-6.9648,-6.8437,-6.8008,-6.7578,-6.668,-6.582,-6.4922,-6.4062,-6.3945,-6.3633,-6.2734,-6.2422,-6.2031,-6.1406,-6.0545,-6.0034,-6.0026,-5.9451,-5.8981,-5.8667,-5.7937,-5.7405,-5.7101,-5.649,-5.618,-5.617,-5.6245,-5.6285,-5.629,-5.6358,-5.6363,-5.639,-5.6457,-5.6482,-5.6539,-5.7154,-5.7421,-5.7418,-5.7619,-5.8031,-5.8655,-5.8875,-5.9343,-5.9906,-5.9906,-6.0469,-6.1229,-6.1229,-6.1439,-6.1654,-6.1666,-6.1676,-6.1686,-6.1655,-6.2125,-6.267,-6.2896,-6.3396,-6.4046,-6.4922,-6.5141,-6.5289,-6.5901,-6.6252,-6.656,-6.7179,-6.7326,-6.7252,-6.7159,-6.7327,-6.7748,-6.8642,-6.879,-6.9033,-6.9786,-6.9925,-7.0106,-7.0602,-7.088,-7.1164,-7.1707,-7.1916,-7.2238,-7.2789,-7.2811,-7.2783,-7.2783,-7.2783,-7.2783,-7.2783,-7.2783,-7.2899,-7.3129,-7.3129,-7.3245,-7.3514,-7.3014,-7.2899,-7.3129,-7.3129,-7.3591,0.0,0.0,0.0,0.0,0.0,0.0,-7.1992,-7.1992,-7.1875,-7.1367,-7.0937,-7.039,-6.9414,-6.8672,-6.8047,-6.7539,-6.6718,-6.5859,-6.496,-6.4843,-6.453,-6.3631,-6.3553,-6.3201,-6.2342,-6.1797,-6.1327,-6.0973,-6.0483,-5.997,-5.9512,-5.8587,-5.7871,-5.7525,-5.7,-5.6573,-5.6219,-5.6298,-5.6308,-5.6324,-5.6368,-5.6406,-5.6439,-5.6497,-5.6709,-5.7118,-5.7619,-5.8246,-5.8875,-5.8822,-5.9114,-5.963,-5.9931,-6.0403,-6.0839,-6.0839,-6.1162,-6.1648,-6.1654,-6.1666,-6.172,-6.1692,-6.1699,-6.1782,-6.2138,-6.2608,-6.3153,-6.3891,-6.4667,-6.5442,-6.5934,-6.6043,-6.6268,-6.712,-6.7348,-6.7575,-6.8425,-6.8581,-6.8565,-6.8504,-6.8483,-6.875,-6.9646,-6.9778,-7.0019,-7.0827,-7.1202,-7.1525,-7.1988,-7.2269,-7.2622,-7.3037,-7.302,-7.3125,-7.3561,-7.3556,-7.3514,-7.3514,-7.3514,-7.3514,-7.3514,-7.3514,-7.3654,-7.4014,-7.4014,-7.4168,-7.4553,-7.386,-7.3668,-7.4014,-7.4361,-7.4784,0.0,0.0,0.0,0.0,-7.1992,0.0,-7.1992,-7.1992,-7.1992,-7.1992,-7.1367,-7.082,-7.0703,-6.9492,-6.8437,-6.8242,-6.7538,-6.6755,-6.5857,-6.5739,-6.5425,-6.456,-6.4442,-6.409,-6.3232,-6.3122,-6.2773,-6.1914,-6.1741,-6.1296,-6.0414,-5.947,-5.859,-5.7818,-5.7617,-5.7165,-5.646,-5.6341,-5.6319,-5.639,-5.6394,-5.6436,-5.6489,-5.6606,-5.7086,-5.7921,-5.8116,-5.9014,-6.0421,-6.05,-6.0522,-6.0633,-6.1335,-6.1609,-6.1609,-6.1609,-6.1657,-6.1707,-6.172,-6.1692,-6.1701,-6.1708,-6.1788,-6.1984,-6.2766,-6.3157,-6.3625,-6.5266,-6.6319,-6.6904,-6.7021,-6.6976,-6.7162,-6.8052,-6.8234,-6.8453,-6.9299,-6.9451,-6.949,-6.9568,-6.9506,-6.9718,-7.0576,-7.077,-7.1048,-7.1821,-7.2592,-7.3052,-7.3035,-7.3627,-7.402,-7.4022,-7.3944,-7.3871,-7.3882,-7.384,-7.3783,-7.3783,-7.3783,-7.3783,-7.3783,-7.3783,-7.413,-7.4822,-7.4861,-7.5284,-7.613,-7.4553,-7.4168,-7.4861,-7.5745,-7.613,0.0,0.0,0.0,-7.1836,-7.1992,0.0,-7.1992,-7.1992,-7.1992,-7.1992,-7.1875,-7.1523,-7.082,-7.043,-6.9765,-6.8437,-6.8046,-6.7654,-6.6755,-6.6635,-6.6319,-6.5457,-6.534,-6.4989,-6.4129,-6.4054,-6.3668,-6.2812,-6.2049,-6.1524,-6.1334,-6.0456,-5.9838,-5.967,-5.8318,-5.7501,-5.7342,-5.6695,-5.6377,-5.639,-5.6436,-5.6506,-5.6528,-5.7239,-5.7679,-5.7999,-5.9328,-6.0109,-6.0461,-6.1162,-6.1432,-6.1467,-6.1623,-6.1662,-6.1662,-6.1662,-6.1701,-6.1702,-6.1704,-6.1705,-6.1708,-6.1714,-6.2184,-6.2771,-6.2968,-6.3984,-6.5312,-6.6365,-6.6751,-6.706,-6.7685,-6.7879,-6.8073,-6.893,-6.9163,-6.9396,-7.0253,-7.0448,-7.0644,-7.1346,-7.0841,-7.0637,-7.1495,-7.2232,-7.272,-7.283,-7.3586,-7.408,-7.3945,-7.4058,-7.4344,-7.49,-7.4862,-7.5077,-7.5645,-7.5617,-7.5586,-7.5515,-7.5515,-7.5515,-7.5515,-7.5515,-7.5592,-7.5745,-7.5745,-7.6169,-7.7053,-7.6015,-7.5592,-7.5784,-7.663,-7.7053,-6.9219,-7.0078,-7.0781,-7.125,-7.168,0.0,0.0,-7.1992,-7.1992,-7.1992,-7.1992,-7.1875,-7.1445,-7.0976,-7.0429,-6.9569,-6.9099,-6.8665,-6.8193,-6.7407,-6.6699,-6.6258,-6.6219,-6.5863,-6.4997,-6.4891,-6.4362,-6.3086,-6.2567,-6.21,-6.1647,-6.113,-6.0661,-6.0205,-5.9332,-5.8487,-5.7673,-5.7234,-5.6831,-5.6432,-5.6467,-5.6528,-5.6582,-5.745,-5.8119,-5.863,-5.9841,-6.0662,-6.1091,-6.1521,-6.1716,-6.1716,-6.1711,-6.1709,-6.1709,-6.1709,-6.1709,-6.1709,-6.1712,-6.1713,-6.1753,-6.2225,-6.2656,-6.3164,-6.4023,-6.5195,-6.6328,-6.6796,-6.7225,-6.7654,-6.8044,-6.8433,-6.8978,-6.9838,-7.0031,-7.0302,-7.1161,-7.1708,-7.2137,-7.2567,-7.2629,-7.2609,-7.2603,-7.3296,-7.3829,-7.3796,-7.4494,-7.5027,-7.4955,-7.5222,-7.5564,-7.5885,-7.5808,-7.5898,-7.6212,-7.6159,-7.6076,-7.6034,-7.6044,-7.6207,-7.663,-7.663,-7.6823,-7.7246,-7.7246,-7.7438,-7.79,-7.7438,-7.7246,-7.7246,-7.7669,-7.79,-6.8164,-6.918,-7.0312,-7.0625,-7.1211,-7.1797,0.0,0.0,0.0,-7.1992,-7.1992,-7.1992,-7.1992,-7.1406,-7.0898,-7.074,-7.0111,-6.9596,-6.9431,-6.8176,-6.7227,-6.7088,-6.6886,-6.6528,-6.5808,-6.5604,-6.4939,-6.3593,-6.3162,-6.2677,-6.1924,-6.1686,-6.1257,-6.0472,-6.0311,-5.9591,-5.8234,-5.8044,-5.7563,-5.6745,-5.676,-5.6776,-5.6868,-5.7731,-5.8632,-5.9492,-6.0312,-6.1055,-6.1719,-6.1719,-6.1719,-6.1719,-6.1715,-6.1712,-6.1712,-6.1712,-6.1712,-6.1712,-6.1872,-6.1952,-6.2108,-6.2969,-6.3359,-6.3789,-6.5351,-6.6328,-6.6914,-6.7109,-6.7656,-6.8281,-6.8594,-6.9179,-6.9881,-7.0741,-7.109,-7.1399,-7.2102,-7.2922,-7.3547,-7.3547,-7.425,-7.456,-7.3691,-7.4225,-7.4759,-7.4744,-7.543,-7.5959,-7.5947,-7.6419,-7.6687,-7.6632,-7.6493,-7.6487,-7.6557,-7.6443,-7.644,-7.6619,-7.6563,-7.6828,-7.7506,-7.753,-7.7823,-7.8477,-7.8477,-7.8592,-7.8746,-7.8746,-7.8669,-7.8477,-7.8669,-7.8746,-6.8008,-6.8359,-6.8828,-7.0312,-7.0781,-7.1055,-7.1836,0.0,-7.1992,-7.1992,0.0,-7.1992,-7.1992,0.0,0.0,-7.0818,-7.0619,-7.0261,-6.9509,-6.9213,-6.8805,-6.806,-6.7266,-6.6748,-6.6666,-6.5956,-6.544,-6.5224,-6.3828,-6.2959,-6.285,-6.2038,-6.1549,-6.1428,-6.0707,-6.0239,-6.007,-5.9342,-5.8499,-5.7658,-5.7631,-5.7683,-5.7771,-5.863,-5.9491,-6.0312,-6.1172,-6.1601,-6.1719,-6.1719,-6.1719,-6.1719,-6.1719,-6.1718,-6.1718,-6.1718,-6.1718,-6.1797,-6.2578,-6.2851,-6.3008,-6.3867,-6.4687,-6.5508,-6.6445,-6.6836,-6.707,-6.7812,-6.8125,-6.8555,-7.0039,-7.0469,-7.0781,-7.164,-7.2422,-7.3047,-7.3125,-7.3828,-7.4453,-7.4453,-7.5156,-7.5467,-7.4599,-7.5136,-7.5631,-7.5657,-7.6326,-7.6863,-7.6849,-7.6858,-7.6809,-7.6687,-7.6623,-7.682,-7.7481,-7.7485,-7.7717,-7.8436,-7.85,-7.8472,-7.844,-7.8406,-7.8415,-7.8477,-7.8477,-7.8861,-7.9669,-7.9669,-7.9246,-7.853,-7.9285,-7.9669,-6.7226,-6.7812,-6.8359,-6.9062,-6.9648,-7.0234,-7.1055,-7.125,-7.1406,-7.1914,0.0,0.0,0.0,0.0,0.0,0.0,-7.1439,-7.1314,-7.0954,-7.0453,-6.9759,-6.8901,-6.8015,-6.7287,-6.678,-6.6408,-6.6017,-6.5557,-6.4836,-6.4023,-6.3036,-6.262,-6.2167,-6.1612,-6.1244,-6.0854,-6.0402,-6.0026,-5.9414,-5.8568,-5.8582,-5.8628,-5.867,-5.953,-6.0078,-6.0469,-6.1328,-6.1719,-6.1719,-6.1719,-6.1719,-6.1719,-6.1719,-6.1719,-6.1719,-6.1719,-6.2031,-6.25,-6.2851,-6.332,-6.3906,-6.4765,-6.5625,-6.6406,-6.6797,-6.7265,-6.7734,-6.8086,-6.8906,-6.9805,-7.0508,-7.1094,-7.168,-7.2539,-7.3047,-7.3437,-7.3945,-7.4726,-7.5351,-7.5351,-7.6055,-7.6523,-7.617,-7.6401,-7.6587,-7.6571,-7.6822,-7.7219,-7.7682,-7.7701,-7.7818,-7.8176,-7.8184,-7.8243,-7.8479,-7.8409,-7.8502,-7.885,-7.9274,-7.9464,-7.9398,-7.9827,-8.0053,-8.0053,-8.0046,-8.0169,-8.0554,-8.0554,-8.0362,-8.0015,-8.04,-8.0554,-6.6367,-6.7187,-6.789,-6.8125,-6.8672,-6.9336,-7.0156,-7.0351,-7.0547,-7.1172,-7.1484,0.0,0.0,0.0,0.0,0.0,0.0,-7.2017,-7.2008,-7.1384,-7.0645,-6.9748,-6.8646,-6.7709,-6.7075,-6.6818,-6.6473,-6.5875,-6.5633,-6.4953,-6.375,-6.3232,-6.2707,-6.2025,-6.1741,-6.1351,-6.0776,-6.0746,-6.0327,-5.944,-5.9527,-5.9529,-5.9569,-6.0117,-6.0547,-6.0781,-6.1445,-6.1719,-6.1719,-6.1719,-6.1719,-6.1719,-6.1719,-6.1719,-6.1719,-6.1953,-6.2461,-6.3086,-6.3555,-6.4297,-6.5117,-6.5742,-6.6367,-6.6953,-6.7187,-6.7695,-6.8281,-6.875,-6.9765,-7.082,-7.1289,-7.1875,-7.2578,-7.3437,-7.3828,-7.418,-7.4805,-7.5625,-7.625,-7.625,-7.6758,-7.7265,-7.7539,-7.7538,-7.7494,-7.7442,-7.7661,-7.8029,-7.8616,-7.8603,-7.8767,-7.9306,-7.9304,-7.9369,-7.952,-7.9404,-7.9412,-7.9648,-8.0112,-8.0406,-8.0393,-8.094,-8.1229,-8.1214,-8.1154,-8.1108,-8.1093,-8.1093,-8.1093,-8.1093,-8.1093,-8.1093,-6.5625,-6.6289,-6.7148,-6.8008,-6.8203,-6.8437,-6.9258,-6.9453,-6.9453,-6.957,-7.0195,-7.0742,-7.0742,0.0,0.0,0.0,0.0,0.0,0.0,-7.193,-7.1542,-7.0645,-6.8982,-6.7903,-6.7866,-6.7142,-6.6683,-6.6672,-6.5949,-6.5483,-6.5426,-6.3867,-6.3005,-6.2949,-6.2127,-6.1697,-6.1658,-6.1658,-6.1237,-6.0349,-6.0349,-6.0351,-6.0351,-6.039,-6.0859,-6.164,-6.168,-6.1719,-6.1719,-6.1719,-6.1719,-6.1719,-6.1719,-6.1719,-6.1797,-6.2656,-6.2969,-6.3242,-6.4922,-6.6094,-6.6836,-6.6836,-6.6875,-6.707,-6.789,-6.8164,-6.8555,-7.0156,-7.0664,-7.1094,-7.2773,-7.3242,-7.3476,-7.4336,-7.5195,-7.582,-7.5859,-7.6523,-7.7148,-7.7148,-7.7187,-7.7461,-7.832,-7.8397,-7.8355,-7.8347,-7.9072,-7.9636,-7.965,-7.9549,-7.9454,-7.9493,-7.9361,-7.9639,-8.0485,-8.0425,-8.0689,-8.1445,-8.1451,-8.1427,-8.1362,-8.1319,-8.1287,-8.1214,-8.1214,-8.1169,-8.1093,-8.1093,-8.1093,-8.1093,-8.1093,-8.1093,-6.5273,-6.582,-6.625,-6.7109,-6.7344,-6.7578,-6.8398,-6.8594,-6.8789,-6.9375,-6.9687,-7.0039,-7.0586,0.0,0.0,0.0,0.0,0.0,0.0,0.0,-7.175,-7.1366,-6.9811,-6.8534,-6.7871,-6.7113,-6.6651,-6.6717,-6.6463,-6.6079,-6.5522,-6.4997,-6.4179,-6.3044,-6.2726,-6.2291,-6.1705,-6.171,-6.1558,-6.1248,-6.1249,-6.125,-6.125,-6.125,-6.1406,-6.1719,-6.1719,-6.1719,-6.1719,-6.1719,-6.1719,-6.1719,-6.1719,-6.2031,-6.2617,-6.289,-6.3359,-6.4101,-6.5859,-6.664,-6.6914,-6.6914,-6.7305,-6.7812,-6.8125,-6.8984,-6.9961,-7.0547,-7.1523,-7.2578,-7.3164,-7.3711,-7.4375,-7.5234,-7.5703,-7.6055,-7.664,-7.6992,-7.7383,-7.7969,-7.8047,-7.832,-7.914,-7.9765,-7.992,-7.9331,-7.9517,-7.9894,-8.0495,-8.0484,-8.063,-8.1175,-8.1148,-8.1173,-8.1397,-8.1289,-8.137,-8.1669,-8.16,-8.1565,-8.1541,-8.1427,-8.1319,-8.1249,-8.1244,-8.1169,-8.1093,-8.1093,-8.1093,-8.1093,-8.1093,-8.1093,-6.4375,-6.4883,-6.5351,-6.6211,-6.6445,-6.668,-6.7539,-6.7734,-6.789,-6.8476,-6.8789,-6.914,-6.9726,0.0,0.0,0.0,0.0,0.0,0.0,-7.193,-7.1858,-7.1751,-7.0214,-6.8942,-6.8302,-6.726,-6.6601,-6.6674,-6.6693,-6.6471,-6.6004,-6.5726,-6.5075,-6.3945,-6.3631,-6.3042,-6.2181,-6.2145,-6.199,-6.1718,-6.1718,-6.1719,-6.1719,-6.1719,-6.1719,-6.1719,-6.1719,-6.1719,-6.1719,-6.1719,-6.1719,-6.1719,-6.2031,-6.25,-6.3047,-6.3359,-6.4219,-6.539,-6.6523,-6.6914,-6.6953,-6.7265,-6.7734,-6.832,-6.8906,-6.9844,-7.082,-7.1445,-7.2422,-7.3437,-7.4062,-7.4648,-7.5273,-7.6172,-7.6367,-7.6523,-7.707,-7.7422,-7.7812,-7.8398,-7.8711,-7.918,-8.0039,-8.0625,-8.082,-8.0232,-8.0421,-8.0842,-8.1407,-8.141,-8.1563,-8.2067,-8.2098,-8.199,-8.1878,-8.1796,-8.1775,-8.1755,-8.1702,-8.1646,-8.1612,-8.1528,-8.1414,-8.1291,-8.1273,-8.1199,-8.1093,-8.1093,-8.1093,-8.1093,-8.1093,-8.1093]},{"header":{"parameterUnit":"m.s-1","parameterCategory":1,"la1":30.6,"la2":29.2853,"lo1":-89.7004,"lo2":-87.6739,"dx":0.0162,"dy":0.0183,"nx":112,"ny":82,"refTime":"2023-01-29T18:00:00:Z","depth":0,"parameterNumber":3,"parameterNumberName":"V-component_of_WINDS"},"data":[0.0,0.0,0.0,0.0,0.0,0.0,0.0,0.0,0.0,0.0,0.0,0.0,0.0,0.0,0.0,0.0,0.0,0.0,0.0,0.0,0.0,0.0,0.0,0.0,0.0,0.0,0.0,0.0,0.0,0.0,0.0,0.0,0.0,0.0,0.0,0.0,0.0,0.0,0.0,0.0,0.0,0.0,0.0,0.0,0.0,0.0,0.0,0.0,0.0,0.0,0.0,0.0,0.0,0.0,0.0,0.0,0.0,0.0,0.0,0.0,0.0,0.0,0.0,0.0,0.0,0.0,0.0,0.0,0.0,0.0,0.0,0.0,0.0,0.0,0.0,0.0,0.0,0.0,0.0,0.0,0.0,0.0,0.0,0.0,0.0,0.0,0.0,0.0,0.0,0.0,1.2613,1.3244,1.4208,1.4927,1.5131,1.5178,1.5035,1.4783,0.0,0.0,0.0,0.0,0.0,0.0,0.0,0.0,0.0,0.0,0.0,0.0,0.0,0.0,0.0,0.0,0.0,0.0,0.0,0.0,0.0,0.0,0.0,0.0,0.0,0.0,0.0,0.0,0.0,0.0,0.0,0.0,0.0,0.0,0.0,0.0,0.0,0.0,0.0,0.0,0.0,0.0,0.0,0.0,0.0,0.0,0.0,0.0,0.0,0.0,0.0,0.0,0.0,0.0,0.0,0.0,0.0,0.0,0.0,0.0,0.0,0.0,0.0,0.0,0.0,0.0,0.0,0.0,0.0,0.0,0.0,0.0,0.0,0.0,0.0,0.0,0.0,0.0,0.0,0.0,0.0,0.0,0.0,0.0,0.0,0.0,0.0,0.0,0.0,0.0,0.0,0.0,0.0,0.0,0.0,0.0,0.0,0.0,0.0,0.0,0.0,0.0,0.0,0.0,1.2856,1.4004,1.4867,1.5404,1.5452,1.5452,1.5309,1.5083,0.0,0.0,0.0,0.0,0.0,0.0,0.0,0.0,0.0,0.0,0.0,0.0,0.0,0.0,0.0,0.0,0.0,0.0,0.0,0.0,0.0,0.0,0.0,0.0,0.0,0.0,0.0,0.0,0.0,0.0,0.0,0.0,0.0,0.0,0.0,0.0,0.0,0.0,0.0,0.0,0.0,0.0,0.0,0.0,0.0,0.0,0.0,0.0,0.0,0.0,0.0,0.0,0.0,0.0,0.0,0.0,0.0,0.0,0.0,0.0,0.0,0.0,0.0,0.0,0.0,0.0,0.0,0.0,0.0,0.0,0.0,0.0,0.0,0.0,0.0,0.0,0.0,0.0,0.0,0.0,0.0,0.0,0.0,0.0,0.0,0.0,0.0,0.0,0.0,0.0,0.0,0.0,0.0,0.0,0.0,0.0,0.0,0.0,0.0,0.0,0.0,0.0,0.0,1.3087,1.3811,1.4771,1.5343,1.5784,1.6069,1.5974,1.5784,1.5499,1.5022,0.0,0.0,0.0,0.0,0.0,0.0,0.0,0.0,0.0,0.0,0.0,0.0,0.0,0.0,0.0,0.0,0.0,0.0,0.0,0.0,0.0,0.0,0.0,0.0,0.0,0.0,0.0,0.0,0.0,0.0,0.0,0.0,0.0,0.0,0.0,0.0,0.0,0.0,0.0,0.0,0.0,0.0,0.0,0.0,0.0,0.0,0.0,0.0,0.0,0.0,0.0,0.0,0.0,0.0,0.0,0.0,0.0,0.0,0.0,0.0,0.0,0.0,0.0,0.0,0.0,0.0,0.0,0.0,0.0,0.0,0.0,0.0,0.0,0.0,0.0,0.0,0.0,0.0,0.0,0.0,0.0,0.0,0.0,0.0,0.0,0.0,0.0,0.0,0.0,0.0,0.0,0.0,0.0,0.0,0.0,0.0,0.0,0.0,0.0,0.0,0.0,0.0,1.3956,1.4771,1.5439,1.5771,1.6163,1.6588,1.64,1.6163,1.5832,1.5404,0.0,0.0,0.0,0.0,0.0,0.0,0.0,0.0,0.0,0.0,0.0,0.0,0.0,0.0,0.0,0.0,0.0,0.0,0.0,0.0,0.0,0.0,0.0,0.0,0.0,0.0,0.0,0.0,0.0,0.0,0.0,0.0,0.0,0.0,0.0,0.0,0.0,0.0,0.0,0.0,0.0,0.0,0.0,0.0,0.0,0.0,0.0,0.0,0.0,0.0,0.0,0.0,0.0,0.0,0.0,0.0,0.0,0.0,0.0,0.0,0.0,0.0,0.0,0.0,0.0,0.0,0.0,0.0,0.0,0.0,0.0,0.0,0.0,0.0,0.0,0.0,0.0,0.0,0.0,0.0,0.0,0.0,0.0,0.0,0.0,0.0,0.0,0.0,0.0,0.0,0.0,0.0,0.0,0.0,0.0,0.0,0.0,0.0,0.0,0.0,0.0,0.0,1.4376,1.5248,1.5737,1.6211,1.6541,1.6588,1.6588,1.6353,1.5832,1.5534,0.0,0.0,0.0,0.0,0.0,0.0,0.0,0.0,0.0,0.0,0.0,0.0,0.0,0.0,0.0,0.0,0.0,0.0,0.0,0.0,0.0,0.0,0.0,0.0,0.0,0.0,0.0,0.0,0.0,0.0,0.0,0.0,0.0,0.0,0.0,0.0,0.0,0.0,0.0,0.0,0.0,0.0,0.0,0.0,0.0,0.0,0.0,0.0,0.0,0.0,0.0,0.0,0.0,0.0,0.0,0.0,0.0,0.0,0.0,0.0,0.0,0.0,0.0,0.0,0.0,0.0,0.0,0.0,0.0,0.0,0.0,0.0,0.0,0.0,0.0,0.0,0.0,0.0,0.0,0.0,0.0,0.0,0.0,0.0,0.0,0.0,0.0,0.0,0.0,0.0,0.0,0.0,0.0,0.0,0.0,0.0,0.0,0.0,0.0,0.0,0.0,0.0,1.501,1.5818,1.648,1.6857,1.7185,1.7527,1.7232,1.6951,1.6763,0.0,0.0,0.0,0.0,0.0,0.0,0.0,0.0,0.0,0.0,0.0,0.0,0.0,0.0,0.0,0.0,0.0,0.0,0.0,0.0,0.0,0.0,0.0,0.0,0.0,0.0,0.0,0.0,0.0,0.0,0.0,0.0,0.0,0.0,0.0,0.0,0.0,0.0,0.0,0.0,0.0,0.0,0.0,0.0,0.0,0.0,0.0,0.0,0.0,0.0,0.0,0.0,0.0,0.0,0.0,0.0,0.0,0.0,0.0,0.0,0.0,0.0,0.0,0.0,0.0,0.0,0.0,0.0,0.0,0.0,0.0,0.0,0.0,0.0,0.0,0.0,0.0,0.0,0.0,0.0,0.0,0.0,0.0,0.0,0.0,0.0,0.0,0.0,0.0,0.0,0.0,0.0,0.0,0.0,0.0,0.0,0.0,0.0,0.0,0.0,0.0,0.0,1.4736,1.5547,1.6292,1.7044,1.7466,1.7839,1.8226,1.7885,1.7652,1.7559,0.0,0.0,0.0,0.0,0.0,0.0,0.0,0.0,0.0,0.0,0.0,0.0,0.0,0.0,0.0,0.0,0.0,0.0,0.0,0.0,0.0,0.0,0.0,0.0,0.0,0.0,0.0,0.0,0.0,0.0,0.0,0.0,0.0,0.0,0.0,0.0,0.0,0.0,0.0,0.0,0.0,0.0,0.0,0.0,0.0,0.0,0.0,0.0,0.0,0.0,0.0,0.0,0.0,0.0,0.0,0.0,0.0,0.0,0.0,0.0,0.0,0.0,0.0,0.0,0.0,0.0,0.0,0.0,0.0,0.0,0.0,0.0,0.0,0.0,0.0,0.0,0.0,0.0,0.0,0.0,0.0,0.0,0.0,0.0,0.0,0.0,0.0,0.0,0.0,0.0,0.0,0.0,0.0,0.0,0.0,0.0,0.0,0.0,0.0,0.0,0.0,0.0,1.501,1.6008,1.6777,1.7279,1.8025,1.8488,1.8488,1.8488,1.8396,0.0,0.0,0.0,0.0,0.0,0.0,0.0,0.0,0.0,0.0,0.0,0.0,0.0,0.0,0.0,0.0,0.0,0.0,0.0,0.0,0.0,0.0,0.0,0.0,0.0,0.0,0.0,0.0,0.0,0.0,0.0,0.0,0.0,0.0,0.0,0.0,0.0,0.0,0.0,0.0,0.0,0.0,0.0,0.0,0.0,0.0,0.0,0.0,0.0,0.0,0.0,0.0,0.0,0.0,0.0,0.0,0.0,0.0,0.0,0.0,0.0,0.0,0.0,0.0,0.0,0.0,0.0,0.0,0.0,0.0,0.0,0.0,0.0,0.0,0.0,0.0,0.0,0.0,0.0,0.0,0.0,0.0,0.0,0.0,0.0,0.0,0.0,0.0,0.0,0.0,0.0,0.0,0.0,0.0,0.0,0.0,0.0,0.0,0.0,0.0,0.0,0.0,0.0,1.6055,1.6857,1.7652,1.8303,1.8719,1.9058,1.9258,1.9104,1.8874,1.8596,0.0,0.0,0.0,0.0,0.0,0.0,0.0,0.0,0.0,0.0,0.0,0.0,0.0,0.0,0.0,0.0,0.0,0.0,0.0,0.0,0.0,0.0,0.0,0.0,0.0,0.0,0.0,0.0,0.0,0.0,0.0,0.0,0.0,0.0,0.0,0.0,0.0,0.0,0.0,0.0,0.0,0.0,0.0,0.0,0.0,0.0,0.0,0.0,0.0,0.0,0.0,0.0,0.0,0.0,0.0,0.0,0.0,0.0,0.0,0.0,0.0,0.0,0.0,0.0,0.0,0.0,0.0,0.0,0.0,0.0,0.0,0.0,0.0,0.0,0.0,0.0,0.0,0.0,0.0,0.0,0.0,0.0,0.0,0.0,0.0,0.0,0.0,0.0,0.0,0.0,0.0,0.0,0.0,0.0,0.0,0.0,0.0,0.0,0.0,0.0,0.0,0.0,1.6669,1.7451,1.8257,1.8874,1.9379,1.9745,2.0036,1.9791,1.9563,1.9425,0.0,0.0,0.0,0.0,0.0,0.0,0.0,0.0,0.0,0.0,0.0,0.0,0.0,0.0,0.0,0.0,0.0,0.0,0.0,0.0,0.0,0.0,0.0,0.0,0.0,0.0,0.0,0.0,0.0,0.0,0.0,0.0,0.0,0.0,0.0,0.0,0.0,0.0,0.0,0.0,0.0,0.0,0.0,0.0,0.0,0.0,0.0,0.0,0.0,0.0,0.0,0.0,0.0,0.0,0.0,0.0,0.0,0.0,0.0,0.0,0.0,0.0,0.0,0.0,0.0,0.0,0.0,0.0,0.0,0.0,0.0,0.0,0.0,0.0,0.0,0.0,0.0,0.0,0.0,0.0,0.0,0.0,0.0,0.0,0.0,0.0,0.0,0.0,0.0,0.0,0.0,0.0,0.0,0.0,0.0,0.0,0.0,0.0,0.0,0.0,0.0,0.0,1.7044,1.7917,1.8673,1.9242,1.9928,2.0428,2.0699,2.0518,2.0382,2.0337,0.0,0.0,0.0,0.0,0.0,0.0,0.0,0.0,0.0,0.0,0.0,0.0,0.0,0.0,0.0,0.0,0.0,0.0,0.0,0.0,0.0,0.0,0.0,0.0,0.0,0.0,0.0,0.0,0.0,0.0,0.0,0.0,0.0,0.0,0.0,0.0,0.0,0.0,0.0,0.0,0.0,0.0,0.0,0.0,0.0,0.0,0.0,0.0,0.0,0.0,0.0,0.0,0.0,0.0,0.0,0.0,0.0,0.0,0.0,0.0,1.6547,1.6167,0.0,0.0,0.0,0.0,0.0,0.0,0.0,0.0,0.0,0.0,0.0,0.0,0.0,0.0,0.0,0.0,0.0,0.0,0.0,0.0,0.0,0.0,0.0,0.0,0.0,0.0,0.0,0.0,0.0,0.0,0.0,0.0,0.0,0.0,0.0,0.0,0.0,0.0,0.0,0.0,1.801,1.8627,1.9271,1.9973,2.0382,2.0699,2.0907,2.0862,2.0772,2.0609,2.0292,0.0,0.0,0.0,0.0,0.0,0.0,0.0,0.0,0.0,0.0,0.0,0.0,0.0,0.0,0.0,0.0,0.0,0.0,0.0,0.0,0.0,0.0,0.0,0.0,0.0,0.0,0.0,0.0,0.0,0.0,0.0,0.0,0.0,0.0,0.0,0.0,0.0,0.0,0.0,0.0,0.0,0.0,0.0,0.0,0.0,0.0,0.0,0.0,0.0,0.0,0.0,0.0,0.0,0.0,0.0,0.0,0.0,0.0,0.0,1.7995,1.7456,0.0,0.0,0.0,0.0,0.0,0.0,0.0,0.0,0.0,0.0,0.0,0.0,0.0,0.0,0.0,0.0,0.0,0.0,0.0,0.0,0.0,0.0,0.0,0.0,0.0,0.0,0.0,0.0,0.0,0.0,0.0,0.0,0.0,0.0,0.0,0.0,0.0,0.0,0.0,0.0,1.8535,1.9271,1.9928,2.0428,2.0835,2.1105,2.1329,2.1239,2.115,2.1015,2.0789,0.0,0.0,0.0,0.0,0.0,0.0,0.0,0.0,0.0,0.0,0.0,0.0,0.0,0.0,0.0,0.0,0.0,0.0,0.0,0.0,0.0,0.0,0.0,0.0,0.0,0.0,0.0,0.0,0.0,0.0,0.0,0.0,0.0,0.0,0.0,0.0,0.0,0.0,0.0,0.0,0.0,0.0,0.0,0.0,0.0,0.0,0.0,0.0,0.0,0.0,0.0,0.0,0.0,1.9448,1.9564,1.9622,1.9982,2.0155,2.0155,1.939,1.8739,1.8227,1.8169,0.0,0.0,0.0,0.0,0.0,0.0,0.0,0.0,0.0,0.0,0.0,0.0,0.0,0.0,0.0,0.0,0.0,0.0,0.0,0.0,0.0,0.0,1.8531,1.8626,1.8801,1.8861,1.8295,0.0,0.0,0.0,0.0,0.0,0.0,0.0,0.0,0.0,0.0,0.0,1.9012,1.9791,2.0428,2.0789,2.1212,2.1526,2.1731,2.1616,2.1526,2.1526,2.1239,2.0907,0.0,0.0,0.0,0.0,0.0,0.0,0.0,0.0,0.0,0.0,0.0,0.0,0.0,0.0,0.0,0.0,0.0,0.0,0.0,0.0,0.0,0.0,0.0,0.0,0.0,0.0,0.0,0.0,0.0,0.0,0.0,0.0,1.2724,1.3084,0.0,0.0,0.0,0.0,0.0,0.0,0.0,0.0,0.0,0.0,0.0,0.0,0.0,1.8169,1.9068,1.9403,1.9751,2.0097,2.0371,2.0673,2.0974,2.1261,2.1546,2.1774,2.1645,0.0,1.9519,1.9216,0.0,0.0,0.0,0.0,0.0,0.0,0.0,0.0,0.0,0.0,0.0,0.0,0.0,0.0,0.0,0.0,0.0,0.0,0.0,0.0,0.0,0.0,1.8798,1.9076,1.9458,1.9716,1.9629,1.909,1.8596,1.8596,1.8596,1.8596,0.0,0.0,0.0,0.0,0.0,0.0,2.0019,2.0201,2.0564,2.1257,2.1526,2.1776,2.2017,2.2017,2.2017,2.2017,2.1616,2.1302,2.1257,2.0654,0.0,0.0,0.0,0.0,0.0,0.0,0.0,0.0,0.0,0.0,0.0,0.0,0.0,0.0,0.0,0.0,0.0,0.0,0.0,0.0,0.0,0.0,0.0,0.0,0.0,0.0,0.0,0.0,0.0,1.3084,1.3444,1.3923,1.3992,1.4052,0.0,0.0,0.0,0.0,0.0,0.0,0.0,0.0,0.0,1.7479,1.8298,1.8881,1.9301,1.9982,2.0385,2.0558,2.1017,2.1318,2.1489,2.1774,2.1839,2.1826,2.1826,2.1328,2.055,2.0387,2.0231,2.0033,0.0,0.0,0.0,0.0,1.8961,1.8659,1.821,1.7807,1.7355,1.7075,0.0,0.0,0.0,0.0,0.0,0.0,0.0,1.8253,1.8582,1.9031,1.9471,1.9745,2.011,2.0382,2.0501,2.0275,1.9911,1.9517,1.9333,1.9258,1.9258,1.9258,0.0,0.0,0.0,1.9973,2.0473,2.0744,2.1077,2.1526,2.1794,2.1998,2.2264,2.2132,2.2106,2.2106,2.1794,2.1526,2.1392,2.1077,2.0699,0.0,0.0,0.0,0.0,0.0,0.0,0.0,0.0,0.0,0.0,0.0,0.0,0.0,0.0,0.0,0.0,0.0,0.0,0.0,0.0,0.0,0.0,0.0,0.0,0.0,0.0,0.0,0.0,1.3923,1.4282,1.4769,1.4948,1.5007,0.0,0.0,0.0,0.0,0.0,0.0,1.6478,1.7126,1.7596,1.783,1.8881,1.9475,1.9591,2.0385,2.0845,2.0845,2.1432,2.1732,2.1717,2.1911,2.1841,2.1708,2.1616,2.1502,2.1341,2.1148,2.0977,2.0781,2.0387,2.02,2.02,2.0111,1.9828,1.9464,1.9198,1.883,1.837,1.7921,1.7637,1.7415,1.7548,0.0,0.0,0.0,0.0,1.8827,1.8966,1.9425,1.9973,2.0246,2.0564,2.0817,2.0952,2.1042,2.0907,2.0292,2.0065,1.9945,1.9945,1.9945,0.0,2.0155,2.0337,2.0564,2.0835,2.1257,2.1571,2.1776,2.2087,2.2353,2.2485,2.2309,2.2176,2.2176,2.1865,2.1642,2.1482,2.1437,2.1122,2.0518,0.0,0.0,0.0,0.0,0.0,0.0,0.0,0.0,0.0,0.0,0.0,0.0,0.0,0.0,0.0,0.0,0.0,0.0,0.0,0.0,0.0,0.0,0.0,0.0,0.0,0.0,0.0,0.0,0.0,1.5542,1.5828,0.0,0.0,0.0,0.0,1.6419,1.6478,1.6773,1.742,1.7479,1.7889,1.8823,1.9461,1.9924,2.027,2.0859,2.1146,2.1203,2.1561,2.1732,2.1717,2.1668,2.1723,2.1969,2.1698,2.1704,2.1904,2.1325,2.107,2.1039,2.0689,2.0567,2.0522,2.0202,2.0065,1.9998,1.9754,1.9635,1.9472,1.8614,1.8297,1.8163,1.7858,1.8126,0.0,0.0,1.8628,1.892,1.9442,1.9716,1.9973,2.0246,2.0637,2.0997,2.0997,2.1195,2.1302,2.0997,2.0952,2.0952,2.0952,0.0,2.0952,2.0952,2.0952,2.1042,2.1347,2.1571,2.1776,2.2043,2.2485,2.275,2.2794,2.253,2.2397,2.2397,2.1954,2.1687,2.1687,2.1482,2.1257,2.0952,2.0518,0.0,0.0,0.0,0.0,0.0,0.0,0.0,0.0,0.0,0.0,0.0,0.0,0.0,0.0,0.0,0.0,0.0,0.0,0.0,0.0,0.0,0.0,0.0,0.0,0.0,0.0,0.0,0.0,1.6124,1.6301,0.0,1.6478,1.6714,1.6903,1.7126,1.7315,1.7667,1.8064,1.8298,1.8532,1.8881,1.9693,2.0155,2.027,2.0917,2.1203,2.1203,2.1546,2.1613,2.1403,2.1547,2.1423,2.1102,2.0979,2.0916,2.0752,2.0557,2.0786,2.1274,2.093,2.0789,2.0773,2.0648,2.0514,2.0328,2.001,1.9664,1.9218,1.8286,1.7989,1.7974,1.7983,1.8129,1.8333,1.8597,1.8874,1.915,1.9487,1.9762,2.0019,2.0473,2.0699,2.0817,2.0952,2.1087,2.1087,2.0997,2.0997,2.0997,2.0997,2.0997,2.1042,2.1239,2.1257,2.1374,2.1794,2.1928,2.2106,2.2504,2.2706,2.2838,2.2969,2.2618,2.2397,2.2397,2.1954,2.1687,2.1687,2.1616,2.1463,2.1239,2.0907,2.0546,0.0,0.0,0.0,0.0,0.0,0.0,0.0,0.0,0.0,0.0,0.0,0.0,0.0,0.0,0.0,0.0,0.0,0.0,0.0,0.0,0.0,0.0,0.0,0.0,0.0,1.5898,1.6194,1.6596,1.6903,1.702,1.702,1.7315,1.755,1.7772,1.8018,1.8252,1.8532,1.8765,1.8939,1.9055,1.9751,2.0155,2.0155,2.0744,2.1031,2.1031,2.1375,2.1383,2.1056,2.1103,2.0907,2.0484,2.0362,2.0232,2.0086,2.0086,2.0431,2.093,2.0814,2.0822,2.0925,2.0925,2.0641,2.0245,1.9853,1.9353,1.8775,1.8148,1.7879,1.7808,1.7914,1.804,1.8179,1.8596,1.8874,1.915,1.9396,1.9625,1.9899,2.0246,2.0382,2.0473,2.0727,2.0817,2.0907,2.0997,2.1087,2.115,2.115,2.1177,2.1329,2.1482,2.1482,2.1616,2.1928,2.2087,2.2309,2.2618,2.2794,2.2925,2.3013,2.2618,2.2353,2.2309,2.1909,2.1687,2.1687,2.1687,2.1616,2.1392,2.115,2.0862,2.0564,0.0,0.0,0.0,0.0,0.0,0.0,0.0,0.0,0.0,0.0,0.0,0.0,0.0,0.0,0.0,0.0,0.0,0.0,0.0,0.0,0.0,0.0,0.0,1.5661,1.6442,1.7032,1.7032,1.7633,1.8056,1.8056,1.8278,1.844,1.844,1.844,1.8544,1.8894,1.8939,1.9055,1.9372,1.9649,1.9809,1.9809,2.0385,2.0658,2.0658,2.1031,2.0985,2.065,2.0329,2.017,2.0151,1.9822,1.9828,2.0034,2.0086,2.0086,2.0086,2.0359,2.0668,2.0873,2.0873,2.0483,1.9887,1.9299,1.8656,1.8177,1.8177,1.7968,1.7682,1.7682,1.7854,1.8133,1.8427,1.8612,1.8827,1.9104,1.9379,1.9579,1.9579,1.9762,1.9928,2.0201,2.0473,2.0744,2.0907,2.1195,2.1347,2.1392,2.1571,2.1687,2.1687,2.1687,0.0,2.1687,2.2087,2.2397,2.2397,2.2794,2.3013,2.2794,2.253,2.2309,2.2106,2.1839,2.1687,2.1687,2.1687,2.1616,2.1392,2.115,2.0997,2.0997,0.0,0.0,0.0,0.0,0.0,0.0,0.0,0.0,0.0,0.0,0.0,0.0,0.0,0.0,0.0,0.0,0.0,0.0,0.0,0.0,0.0,1.5801,1.6275,1.6276,1.6876,1.7482,1.7959,1.8371,1.8676,1.8905,1.9025,1.9146,1.94,1.9192,1.9194,1.9548,1.9362,1.9301,1.943,1.9649,1.9809,1.9809,2.0213,2.0385,2.0385,2.05,2.0345,2.0019,1.9763,1.9505,1.9245,1.8931,1.8788,1.8893,1.9116,1.9324,1.9583,2.0034,2.0241,2.0344,2.0344,1.9922,1.9235,1.8641,1.8165,1.7802,1.7599,1.7493,1.7434,1.7621,1.7761,1.7854,1.8133,1.8226,1.8365,1.8627,1.8719,1.8874,1.9242,1.9333,1.9471,1.9716,1.9853,1.9945,1.999,2.0292,2.0699,2.106,2.1329,2.1482,2.1482,2.1616,2.1776,2.1972,2.2087,2.222,2.2397,2.253,2.2574,2.253,2.2309,2.2132,2.2106,2.1839,2.1687,2.1687,2.1687,2.1616,2.1392,2.1347,2.1195,0.0,0.0,0.0,0.0,0.0,0.0,0.0,0.0,0.0,0.0,0.0,0.0,0.0,0.0,0.0,0.0,0.0,0.0,0.0,0.0,0.0,0.0,1.637,1.6907,1.7,1.7588,1.8107,1.8542,1.8922,1.9328,1.9511,1.962,1.9742,1.9937,1.9766,1.9741,1.98,1.9639,1.9492,1.943,1.9533,1.9649,1.9649,1.9924,2.0097,2.0097,2.0213,2.0102,1.9794,1.9626,1.9304,1.887,1.8702,1.8548,1.8422,1.8593,1.8803,1.9011,0.0,0.0,0.0,0.0,1.9265,1.8822,1.7971,1.7596,1.7355,1.7106,1.7012,1.7059,1.7355,1.7402,1.7495,1.7807,1.7947,1.7994,1.8272,1.8303,1.8396,1.8689,1.8735,1.8827,1.9058,1.9166,1.9196,1.9396,1.9654,0.0,2.0337,2.088,2.1239,2.1239,2.1419,2.1616,2.1794,2.1972,2.2132,2.2264,2.2353,2.2353,2.2264,2.2195,0.0,0.0,0.0,2.1687,2.1687,2.1687,0.0,0.0,0.0,2.1463,2.1266,2.1266,0.0,0.0,2.1087,2.0997,0.0,0.0,0.0,0.0,0.0,0.0,0.0,0.0,0.0,0.0,0.0,0.0,0.0,0.0,0.0,0.0,1.687,1.7534,1.7831,1.8471,1.8914,1.8889,1.9466,1.9859,1.992,2.0151,2.0273,2.0273,2.0247,2.0174,1.9907,1.9867,0.0,0.0,0.0,1.9457,1.943,1.9649,1.9751,1.9764,2.004,2.0016,1.9751,1.9709,1.9403,1.8888,1.8805,1.8624,1.8373,1.8331,1.837,1.8475,1.9257,1.9724,1.9789,1.8875,1.8538,1.84,1.7337,0.0,0.0,1.6683,1.6588,1.6636,1.6885,1.6932,1.7026,1.7448,1.7589,1.7621,1.7854,1.7947,1.7947,1.7994,1.7994,1.8087,1.8396,1.8442,1.8581,1.9012,1.9088,1.9196,1.9442,2.0246,2.0907,2.0907,2.115,2.1347,2.1347,2.175,2.1972,2.1972,2.2176,0.0,2.2061,2.2061,2.1954,2.1731,2.1687,2.1687,2.1687,2.1687,2.1687,2.1687,2.1687,2.1687,2.1687,2.1687,2.1687,2.1687,2.1266,2.1087,0.0,0.0,0.0,0.0,0.0,0.0,0.0,0.0,0.0,0.0,0.0,0.0,0.0,0.0,0.0,1.6881,1.7615,1.8164,1.8476,1.9034,1.9462,1.9486,1.9801,2.0257,2.0823,2.0873,2.0935,2.0935,2.0722,2.0561,2.0508,2.0281,2.0013,1.972,1.972,1.9599,1.943,1.9417,1.9475,1.9475,1.9533,0.0,1.9438,1.9196,1.9021,1.8886,1.8414,1.8117,1.8104,1.8059,1.8227,1.8422,1.8579,1.8684,1.8651,1.7988,1.7747,1.7612,1.6942,1.6683,1.6683,1.6636,1.6588,1.6636,1.6683,1.6683,0.0,1.6777,1.6824,1.6824,1.6871,1.6918,1.7012,1.7372,1.7466,1.7606,1.8087,1.8179,1.8226,1.8319,1.8504,1.8627,1.8673,1.9517,2.0201,2.0382,2.0654,2.088,2.1042,2.1132,2.1221,2.1221,2.1419,2.1571,2.1526,2.1687,2.1776,2.1687,2.1687,2.1687,2.1687,2.1687,2.1687,2.1687,2.1687,2.1687,2.1687,2.1687,2.1687,2.1687,2.1597,2.1553,0.0,0.0,0.0,0.0,0.0,0.0,0.0,0.0,0.0,0.0,0.0,1.2485,0.0,0.0,1.6033,1.7275,1.7817,1.8296,1.8816,1.9179,1.9407,1.9638,1.9954,2.0234,2.0539,2.0729,2.0856,2.0856,2.085,2.0828,2.0681,2.0535,2.0321,2.0027,1.988,1.9733,1.9586,1.9497,1.943,1.943,1.943,1.943,1.9359,1.9212,1.9065,1.8905,1.8555,1.8262,1.7969,1.7875,1.7898,1.8003,1.8003,1.816,1.8366,1.7904,1.7638,1.7442,1.6836,1.6538,1.6353,1.6258,1.6211,1.6211,1.6353,1.64,1.6447,1.6541,1.6588,1.6588,1.6588,1.6588,1.6683,1.6904,1.6951,1.6998,1.7293,1.734,1.7434,1.7652,1.7792,1.7978,1.8272,1.8689,1.9196,1.9654,2.0065,2.0382,2.0591,2.0772,2.0907,2.0997,2.115,2.1195,2.1195,2.1284,2.1374,2.1374,2.1463,2.1463,2.1374,2.1463,2.1463,2.1374,2.1374,2.1374,2.1374,2.1374,2.1374,2.1374,2.1374,2.1463,0.0,0.0,0.0,0.0,0.0,0.0,0.0,0.0,0.8475,0.9882,1.1214,1.2485,1.3915,1.5013,1.6106,1.7356,1.7844,1.8302,1.8944,1.9072,1.92,1.9456,1.9775,2.0043,2.0106,2.0361,2.0488,2.0488,2.0792,2.0889,2.0713,2.0762,2.0628,2.0334,2.0094,1.992,1.98,1.9573,1.9426,1.943,1.943,1.943,1.943,1.943,1.9239,1.8998,1.8945,1.8542,1.7969,1.7769,1.7635,1.7582,1.7582,1.7845,1.8224,1.7918,1.7654,1.7355,1.6854,1.647,1.6164,1.5973,1.5824,1.5832,1.6082,1.613,1.6177,1.64,1.6447,1.6447,1.6447,1.6447,1.6447,1.6494,1.6541,1.6541,1.6588,1.6588,1.673,1.7091,1.7138,1.7326,1.7807,1.79,1.8226,1.895,1.9425,1.9791,2.0065,2.0337,2.0564,2.0682,2.0772,2.0817,2.0952,2.0952,2.0952,2.0997,2.1195,2.1239,2.0997,2.1195,2.1239,2.0997,2.0997,2.0997,2.0997,2.0997,2.0997,2.0952,2.0952,2.1177,0.1077,0.2085,0.3218,0.3635,0.4478,0.5377,0.0,0.0,0.8161,0.95,1.0573,1.1822,1.3387,1.4782,1.601,1.6926,1.7905,1.8571,1.8635,1.8892,1.9136,1.9136,1.9456,1.9775,2.0043,2.0106,2.017,2.017,2.0488,2.0652,2.0626,2.0866,2.0922,2.0641,2.0601,2.0334,1.98,1.9773,1.9626,1.943,1.943,1.943,1.943,1.943,1.9403,1.9305,1.9038,1.8542,1.7995,1.7955,1.7836,1.7582,1.7582,1.7635,1.7647,1.7416,1.7282,1.7163,1.6817,1.6522,1.6268,1.6268,1.6046,1.5832,1.5832,1.5832,1.5832,1.5879,1.5879,1.5879,1.5879,1.5879,1.5974,1.6177,1.6224,1.6319,1.6541,1.6588,1.6636,1.6683,1.6683,1.6777,1.7073,1.7246,1.7652,1.8442,1.8781,1.9012,1.9288,1.9579,1.9716,1.9762,1.9928,2.0201,2.0699,2.0744,2.0835,2.0997,2.1042,2.1042,2.0997,2.1042,2.1042,2.0997,2.0997,2.0997,2.0997,2.0997,2.0907,2.0744,2.0744,2.0862,0.2085,0.2758,0.3358,0.0,0.4799,0.5524,0.6217,0.7191,0.8241,0.9412,1.0651,1.2037,1.3475,1.4595,1.5604,0.0,1.74,1.7787,1.8173,1.8366,1.8483,1.8483,1.8547,1.8868,1.9456,1.9711,1.9839,1.9839,2.0106,2.0425,2.0602,2.0729,2.0866,2.0935,2.0762,2.0561,2.0307,2.0134,1.9907,1.9626,1.9626,1.9533,1.943,1.943,1.943,1.9359,1.9052,1.8784,1.8475,1.8115,1.7956,1.7822,1.7503,1.7384,1.7371,1.7396,1.734,1.7179,1.7058,1.6767,1.6526,1.6526,1.6326,1.6086,1.6086,1.5965,1.5784,1.5784,1.5784,1.5784,1.5784,1.5784,1.5832,1.5927,1.5974,1.6021,1.6116,1.6116,1.6163,1.6353,1.6366,1.6447,1.673,1.6824,1.7012,1.7326,1.7932,1.8504,1.8765,1.8874,1.9058,1.9333,1.9425,1.9654,2.0036,2.0081,2.0081,2.0155,2.0292,2.0337,2.0201,2.0292,2.0292,2.0201,2.0201,2.0201,2.0201,2.0201,2.0155,2.0081,2.0081,2.0127,0.2692,0.0,0.0,0.4303,0.491,0.5379,0.6049,0.6987,0.7922,0.8984,1.0246,1.1637,1.3087,1.4006,1.5062,1.6353,1.6807,1.7195,1.7776,1.7969,1.7969,1.7969,1.7969,1.8226,1.8752,1.9136,1.9328,1.9328,1.9711,2.0106,2.0425,2.0552,2.0729,2.1109,2.0909,2.0762,2.0681,2.0468,2.0214,1.992,1.984,1.9693,1.9479,1.9399,1.943,1.9417,1.9132,1.8998,1.8821,1.8247,1.7981,1.7834,1.7277,1.7067,1.7067,1.7265,1.7239,1.7054,1.7054,1.6869,1.6568,1.6568,1.6434,1.6196,1.6196,1.6051,1.5914,1.5835,1.5856,1.5939,1.5798,1.5784,1.5784,1.5784,1.5784,1.5784,1.5784,1.5784,1.5879,1.6035,1.6082,1.6163,1.6447,1.6494,1.6494,1.6588,1.7246,1.7807,1.8118,1.8303,1.8535,1.8858,1.892,1.9012,1.9258,1.9304,1.935,1.9487,1.9608,1.9654,1.9596,1.9762,1.9716,1.9487,1.9487,1.9442,1.9396,1.9396,1.935,1.9304,1.9304,1.9258,0.0,0.0,0.3295,0.3701,0.4305,0.4906,0.5312,0.5982,0.6857,0.7922,0.8984,1.0114,1.1578,1.303,1.4268,1.5378,1.6353,1.7141,1.7464,1.7787,1.7969,1.7969,1.7969,1.8033,1.8033,1.8366,1.8635,1.8635,1.9264,1.9775,2.0106,2.0425,2.0729,2.1109,2.1096,2.0962,2.0681,2.0668,2.0508,2.0153,1.9933,1.98,1.9773,1.9492,1.943,1.943,1.9417,1.9185,1.8848,1.8305,1.7906,1.7564,1.6945,1.6736,1.6736,1.6723,1.6723,1.6723,1.6723,1.6533,1.6304,1.6304,1.6113,1.5897,1.5897,1.6098,1.6234,1.596,1.6077,1.6192,1.5899,1.5784,1.5784,1.5784,1.5784,1.5784,1.5784,1.5784,1.5784,1.5832,1.5832,1.5879,1.6177,1.6224,1.6319,1.6541,1.6636,1.6824,1.7279,1.7792,1.8133,1.8133,1.8133,1.8226,1.8488,1.8535,1.8719,1.9196,1.9242,1.9333,1.9579,1.9596,1.9487,1.9242,1.9196,1.9104,1.8827,1.8827,1.8735,1.8535,1.8535,1.8411,0.0,0.0,0.2961,0.3295,0.3969,0.4507,0.4644,0.5446,0.6313,0.7187,0.8184,0.9383,1.0843,1.2033,1.3293,1.453,1.5257,1.5909,1.6688,1.6947,1.7077,1.7324,1.7141,0.0,0.0,1.7852,1.8302,1.8571,1.8828,1.92,1.9711,2.0106,2.0425,2.0729,2.0982,2.1069,2.0962,2.0962,2.0815,2.0521,2.0227,1.9987,1.98,1.9693,1.9546,1.943,1.943,1.919,1.8884,1.8481,1.8026,1.7533,1.6913,1.6473,1.6152,1.5951,1.5737,1.5672,1.6471,1.662,1.6596,1.6596,1.6406,1.6177,1.6177,1.61,1.6048,1.5945,1.5969,1.5955,1.567,1.5738,1.5844,1.5634,1.5689,1.5784,1.5784,1.5784,1.5784,1.5784,1.5784,1.5832,1.5927,1.5927,1.6021,1.6319,1.6494,1.6683,1.6824,1.7012,1.7246,1.7512,1.7559,1.7761,1.8226,1.8226,1.8319,1.8458,1.8458,1.8504,1.8596,1.8596,1.855,1.8458,1.8458,1.8411,1.8319,1.8319,1.8319,1.8226,1.8226,1.8179,0.0,0.2492,0.2761,0.2961,0.3499,0.3902,0.3902,0.4641,0.551,0.6113,0.7183,0.8451,0.9709,1.0909,1.2165,1.3613,1.4333,1.5062,1.6039,1.6234,1.6429,1.6623,1.6429,1.6429,0.0,0.0,1.7529,1.8185,1.8442,1.8828,1.9392,1.9711,2.0094,2.0602,2.0792,2.0982,2.1109,2.1109,2.0962,2.0668,2.0481,2.0187,1.98,1.98,1.9639,1.9372,1.9243,1.9113,1.8855,1.8339,1.7837,1.7378,1.6759,1.6217,1.5707,1.5557,1.5229,1.4987,1.5832,1.6099,1.6099,1.6099,1.5976,1.5842,1.5842,1.5875,1.5869,1.5781,1.5897,1.5986,1.5719,1.5742,1.5851,1.5706,1.5751,1.5848,1.5959,1.6007,1.6007,1.6091,1.6139,1.6139,1.6139,1.6139,1.6161,1.6197,1.6375,1.6524,1.6602,1.6588,1.673,1.6998,1.7044,1.7185,1.7527,1.7667,1.7761,1.7807,1.79,1.7994,1.8087,1.8087,1.7994,1.7807,1.7807,1.7714,1.7574,1.7574,1.7574,1.7574,1.7574,1.7574,0.1482,0.2089,0.263,0.2697,0.2898,0.3165,0.3163,0.3701,0.4372,0.4708,0.5912,0.725,0.0,0.0,1.1101,1.2487,1.3613,1.4604,1.5378,1.5714,1.5974,0.0,0.0,0.0,0.0,0.0,1.6364,1.7335,1.8121,1.8699,1.9072,1.9392,1.9903,2.0539,2.0615,2.0729,2.1046,2.1109,2.0975,2.0695,2.0695,2.0401,1.984,1.9826,1.9666,1.9386,1.9068,1.8881,1.8797,1.795,1.7379,1.7011,1.6407,1.5814,1.5374,1.5374,1.4997,1.4568,1.4838,1.4945,1.4987,1.4987,1.4987,1.4987,1.4987,1.5416,1.5784,1.5531,1.5823,1.6175,1.5897,1.5872,1.5872,1.5859,1.5859,1.596,1.6225,1.6275,1.6362,1.6613,1.665,1.665,1.67,1.67,1.6607,1.6339,1.6348,1.6373,1.6536,1.6541,1.6588,1.6588,1.6588,1.6588,1.6588,1.6824,1.7059,1.7232,1.7481,1.7761,1.7994,1.804,1.7807,1.7279,1.7279,1.7044,1.6588,1.6588,1.6588,1.6588,1.6588,1.6588,0.15,0.1778,0.1983,0.2256,0.2598,0.2796,0.2834,0.3163,0.3633,0.4305,0.5178,0.6183,0.0,0.0,0.0,1.1843,1.27,0.0,1.4866,1.5127,0.0,1.5909,0.0,1.5724,1.5974,1.5779,1.5854,1.6364,1.7012,1.7787,1.8699,1.9072,1.9392,1.9839,2.0348,2.0666,2.0729,2.0982,2.1069,2.1002,2.1002,2.0802,2.0441,2.0227,1.996,1.9679,1.9147,1.8765,1.8473,1.7815,1.7203,1.6667,1.6092,1.5454,1.4952,1.4727,1.4298,1.3878,1.3933,1.4157,1.4385,1.4385,1.4546,1.4708,1.4708,1.4922,1.5232,1.5175,1.5205,1.5252,1.4995,1.5299,1.5548,1.5352,1.5607,1.591,1.601,1.601,1.601,1.6111,1.6262,1.6463,1.6663,1.67,1.6687,1.6607,1.6593,1.6455,1.6041,1.6021,1.6069,1.6258,1.6319,1.6353,1.6588,1.6683,1.673,1.6777,1.6824,1.6918,1.6965,1.6965,1.6918,1.6777,1.6777,1.673,1.6588,1.6588,1.6588,1.6588,1.6588,1.6588,0.1038,0.1318,0.1457,0.1665,0.1865,0.2058,0.2178,0.2501,0.2894,0.3499,0.4308,0.0,0.638,0.7712,0.0,0.0,0.0,0.0,1.3818,1.4277,1.4604,0.0,1.4931,0.0,1.5052,1.5062,1.5127,1.5518,1.6418,1.726,1.7852,1.8495,1.9008,1.9392,1.9903,2.0284,2.0602,2.0919,2.1109,2.1109,2.1109,2.0962,2.0668,2.0374,1.9947,1.9536,1.8953,1.8415,1.7948,1.7491,1.6868,1.6157,1.5806,1.513,1.4343,1.4171,1.3688,1.3106,1.3106,1.3138,1.3217,1.3661,1.391,1.4018,1.4018,1.4234,1.445,1.445,1.4611,1.4793,1.4657,1.493,1.5264,1.507,1.5295,1.5594,1.5853,1.5904,1.5956,1.6214,1.6369,1.6587,1.6896,1.6947,1.6894,1.6927,1.6901,1.6727,1.6273,1.6099,1.6027,1.6035,1.6021,1.6069,1.6258,1.6353,1.64,1.64,1.6541,1.6588,1.6588,1.6588,1.6541,1.6447,1.64,1.6353,1.6258,1.6258,1.6258,1.6258,1.6258,1.6258,0.0422,0.0774,0.1055,0.1055,0.1115,0.1173,0.1445,0.1839,0.2227,0.2559,0.0,0.4442,0.5178,0.6447,0.7846,0.9244,0.0,1.1843,1.2576,1.3293,1.3744,1.3809,1.3875,1.3875,1.3875,1.4137,1.4473,1.48,1.6029,1.6807,1.7001,1.7852,1.8635,1.9072,1.9456,1.9903,2.0552,2.0856,2.1046,2.1046,2.1109,2.0975,2.0722,2.0326,1.9853,1.9337,1.8614,1.8006,1.7479,1.7079,1.6371,1.5601,1.5423,1.4695,1.3761,1.3703,1.3161,1.2467,1.2467,1.2227,1.1984,1.2824,1.3118,1.3152,1.3152,1.3315,1.3532,1.3586,1.3964,1.4385,1.4439,1.46,1.4826,1.488,1.4934,1.5095,1.5672,1.5832,1.5992,1.6524,1.663,1.6736,1.7067,1.7173,1.72,1.7196,1.7208,1.7152,1.6807,1.6513,1.6233,1.5965,1.5912,1.5885,1.5885,1.6048,1.6177,1.6177,1.6353,1.6494,1.6494,1.6494,1.64,1.6177,1.6177,1.6021,1.5784,1.5784,1.5784,1.5784,1.5784,1.5784,0.0356,0.0642,0.0785,0.0999,0.1068,0.113,0.1175,0.1441,0.0,0.0,0.3163,0.4104,0.4772,0.6113,0.745,0.8584,0.0,0.0,0.0,0.0,1.3095,0.0,1.3744,1.3875,1.3875,1.394,1.4137,1.4473,1.4996,1.5779,1.6936,1.7206,1.7852,1.9072,1.9456,1.9775,2.017,2.0552,2.0679,2.0666,2.0982,2.1082,2.1015,2.0235,1.9789,1.965,1.8538,1.7843,1.742,1.6596,1.6005,1.5483,1.4471,1.3904,1.3636,1.309,1.2667,1.2448,1.2448,1.2258,1.2065,1.204,1.2146,1.2219,1.2219,1.2382,1.2663,1.2935,1.3098,1.3261,1.3478,1.3694,1.4018,1.4277,1.4493,1.4761,1.5095,1.5363,1.563,1.6004,1.6205,1.6483,1.6736,1.7014,1.7213,1.7213,1.741,1.7447,1.7166,1.682,1.6607,1.6553,1.6339,1.6192,1.6192,1.6013,1.5879,1.5879,1.5927,1.5927,1.5927,1.5927,1.5927,1.5879,1.5879,1.5832,1.5784,1.5784,1.5784,1.5784,1.5784,1.5784,-0.0217,0.0145,0.0362,0.0506,0.0503,0.057,0.0768,0.0,0.0,0.0,0.249,0.323,0.4101,0.0,0.0,0.0,0.0,0.0,0.0,0.0,0.0,0.0,1.2832,1.3095,0.0,1.3424,1.3687,1.3884,1.4211,1.4931,1.6169,1.6742,1.7594,1.8828,1.9136,1.952,1.9839,2.0157,2.0361,2.0361,2.0488,2.0615,2.0589,1.9892,1.945,1.9242,1.8195,1.7432,1.695,1.6124,1.5472,1.4769,1.3983,1.3384,1.2844,1.2423,1.2063,1.1809,1.163,1.1457,1.1237,1.1149,1.145,1.1888,1.1888,1.1927,1.2001,1.2173,1.2337,1.2446,1.2599,1.2935,1.3315,1.3467,1.3846,1.4234,1.4493,1.4826,1.5095,1.5363,1.5684,1.5951,1.6258,1.6537,1.6802,1.6895,1.7226,1.7331,1.7199,1.7196,1.7048,1.674,1.658,1.6433,1.6286,1.6139,1.5992,1.5798,1.5784,1.5784,1.5784,1.5784,1.5784,1.5784,1.5784,1.5784,1.5784,1.5784,1.5912,1.6059,1.6059,1.6139,-0.073,-0.0365,-0.0073,0.0,0.0,0.0072,0.0352,0.0417,0.0,0.0,0.1818,0.249,0.3297,0.0,0.5513,0.0,0.0,0.0,0.0,0.0,0.0,0.0,0.0,0.0,1.2173,1.2774,1.3169,1.3301,1.3687,1.4342,1.5332,1.6429,1.74,1.8249,1.8623,1.9008,1.9252,1.9647,1.9915,1.9915,2.0043,2.0068,1.9992,1.9421,1.8985,1.8532,1.7755,1.695,1.6242,1.5709,1.4948,1.4052,1.3624,1.2904,1.2053,1.182,1.145,1.1148,1.0906,1.0711,1.0547,1.0547,1.0965,1.1473,1.1473,1.1393,1.1304,1.1414,1.1599,1.1728,1.1891,1.231,1.2686,1.2788,1.3237,1.372,1.393,1.4245,1.4559,1.4773,1.5095,1.5363,1.5672,1.6004,1.6271,1.6524,1.6842,1.712,1.7173,1.7384,1.7356,1.6941,1.6834,1.6714,1.6536,1.6455,1.6233,1.5939,1.5925,1.5851,1.5784,1.5784,1.5784,1.5784,1.5885,1.5925,1.5925,1.5944,1.6139,1.6366,1.6366,1.6486,-0.0875,-0.0584,-0.0438,-0.0073,0.0,0.0,0.0071,0.0,0.0,0.0609,0.1481,0.2223,0.2356,0.3499,0.4644,0.0,0.0,0.7917,0.0,0.0,0.0,0.0,0.0,0.0,1.1843,1.2173,1.251,1.284,1.349,1.4202,1.4931,1.6234,1.7066,1.713,1.7776,1.8098,1.8162,1.8816,1.92,1.92,1.9788,1.9966,1.9699,1.9087,1.8508,1.7961,1.7316,1.6549,1.5661,1.5294,1.458,1.3684,1.3024,1.2423,1.182,1.1458,1.1148,1.0846,1.0785,1.0778,1.077,1.077,1.0606,1.0451,1.0451,1.0281,1.0265,1.0827,1.0873,1.0962,1.1509,1.176,1.1992,1.2445,1.306,1.3466,1.3259,1.3719,1.4164,1.4267,1.4493,1.4773,1.5041,1.5577,1.5951,1.5992,1.6418,1.6842,1.7173,1.7226,1.7305,1.7515,1.7313,1.7152,1.7125,1.682,1.654,1.6246,1.6233,1.6112,1.5798,1.5784,1.5784,1.5784,1.6099,1.6233,1.6233,1.65,1.6633,1.666,1.666,1.6537,-0.124,-0.0803,-0.0511,-0.0073,0.0,0.0,0.0,0.0,0.0279,0.0474,0.1077,0.1683,0.2087,0.3163,0.4171,0.0,0.0,0.0,0.0,0.0,0.0,0.0,1.0857,0.0,0.0,0.0,1.2107,1.2444,1.2964,1.349,1.3958,1.5127,1.6039,1.6688,1.713,1.7518,1.7723,1.8173,1.8431,1.8419,1.8597,1.8593,1.8474,1.7921,1.7551,1.7253,1.6473,1.5957,1.5542,1.4639,1.3923,1.3324,1.2664,1.2053,1.1458,1.1095,1.0785,1.049,1.0247,1.0186,1.0186,1.0186,1.0102,1.0042,1.0303,1.0338,1.0211,1.049,1.0501,1.0504,1.0787,1.1118,1.1591,1.2126,1.2488,1.2689,1.272,1.3107,1.3529,1.373,1.4155,1.4534,1.4822,1.5087,1.5433,1.5802,1.6048,1.6311,1.6643,1.6802,1.6948,1.7054,1.7265,1.7393,1.7219,1.7099,1.6847,1.6553,1.6526,1.6486,1.6366,1.6353,1.6353,1.6353,1.6473,1.6526,1.6526,1.6647,1.6693,1.6726,1.6726,1.6664,-0.1461,-0.1022,-0.0657,-0.0146,0.0,0.0,0.0,0.0,0.007,0.0272,0.0675,0.1144,0.175,0.2692,0.3499,0.0,0.0,0.6384,0.0,0.0,0.0,0.0,0.0,1.0651,1.085,1.1314,1.1776,1.2107,1.2379,1.2708,1.3169,1.3884,1.48,1.5974,1.6364,1.6742,1.7077,1.74,1.7549,1.761,1.7558,1.7525,1.7439,1.7013,1.6688,1.6489,1.5785,1.5294,1.4948,1.4043,1.3384,1.2844,1.2294,1.1692,1.1088,1.0785,1.0422,1.0126,0.9883,0.9822,0.9822,0.9822,0.9822,0.9862,1.018,1.0214,1.0084,1.02,1.0222,1.0316,1.036,1.0666,1.1139,1.1595,1.1845,1.2061,1.2183,1.252,1.2906,1.3136,1.3631,1.4086,1.437,1.4684,1.5022,1.5465,1.5701,1.594,1.6233,1.6435,1.6612,1.6683,1.7107,1.7292,1.7198,1.7275,1.7206,1.686,1.6834,1.6794,1.6714,1.67,1.6663,1.6563,1.6643,1.6682,1.6581,1.666,1.6716,1.6704,1.6704,1.6611,-0.1611,-0.1168,-0.1022,-0.0219,0.0,0.0,0.0,0.0,0.0,0.0,0.0272,0.0606,0.101,0.175,0.2558,0.3633,0.0,0.0,0.6388,0.0,0.0,0.0,0.0,1.0193,1.0193,1.0784,1.138,1.1776,1.1784,1.2107,1.2774,1.284,1.349,1.4866,1.5323,1.5704,1.6039,1.6364,1.6582,1.6731,1.7036,1.7083,1.6914,1.6623,1.6189,1.5601,1.5235,1.458,1.3753,1.3693,1.3084,1.2174,1.1933,1.139,1.0793,1.0422,1.0065,0.9822,0.9822,0.9822,0.9822,0.9822,0.9822,0.9822,0.9822,0.972,0.9664,0.9902,1.0142,1.0338,1.045,1.0495,1.0591,1.0748,1.1329,1.1763,1.1533,1.1972,1.244,1.2524,1.2774,1.3117,1.3469,1.4256,1.4813,1.4813,1.5332,1.5804,1.6144,1.6217,1.6326,1.6655,1.6736,1.6842,1.7173,1.7424,1.7501,1.7219,1.7192,1.7058,1.6714,1.67,1.6563,1.6325,1.6548,1.6588,1.6317,1.6584,1.6723,1.667,1.667,1.6418,-0.2293,-0.1616,-0.1095,-0.0511,-0.0219,0.0,0.0,0.0,0.0,0.0,0.0272,0.0606,0.101,0.1683,0.249,0.3228,0.4104,0.0,0.0,0.0,0.0,0.8523,0.9522,1.0259,1.0525,1.0717,1.0982,1.138,1.138,1.1578,1.2107,1.2114,1.2766,1.4137,1.453,1.4922,1.5257,1.5435,1.5711,1.6022,1.5774,1.5668,1.5571,1.5304,1.502,1.465,1.4282,1.3863,1.3324,1.2844,1.2354,1.1881,1.1571,1.1027,1.0429,1.0368,1.0065,0.9822,0.9822,0.9822,0.9822,0.9822,0.9822,0.9822,0.9822,0.9788,0.9754,0.9814,0.9894,0.9993,1.0282,1.0357,1.0424,1.0717,1.0967,1.108,1.1026,1.1551,1.2013,1.2014,1.2421,1.2954,1.3554,1.3723,1.3973,1.4667,1.4931,1.5197,1.5557,1.5725,1.5914,1.5998,1.6205,1.651,1.6802,1.6948,1.6962,1.6872,1.6872,1.682,1.6678,1.6678,1.6678,1.6573,1.6663,1.6662,1.6544,1.6632,1.6524,1.6152,1.5725,1.5552,0.0,-0.1842,-0.1095,-0.073,-0.0292,0.0,0.0,0.0,0.0,0.0,0.0136,0.0471,0.101,0.1481,0.2087,0.3026,0.3701,0.0,0.0,0.0,0.0,0.8651,0.0,0.0,1.0452,1.0651,1.0784,1.0982,1.0982,1.1181,1.1578,1.152,1.1942,1.2988,1.3509,1.3965,1.4428,1.4418,1.4585,1.4896,1.455,1.4446,1.4489,1.4231,1.3992,1.3813,1.3444,1.3144,0.0,1.2234,1.1872,1.1579,1.1088,1.0671,1.0301,1.0186,1.0004,0.9822,0.9822,0.9822,0.9822,0.9822,0.9822,0.9822,0.9822,0.9822,0.9822,0.9822,0.9822,0.9822,1.0065,1.0126,1.0186,1.0368,1.055,1.0611,1.0611,1.1027,1.1458,1.1571,1.1993,1.2543,1.3024,1.3223,1.3495,1.4202,1.4491,1.4714,1.5031,1.5306,1.55,1.5524,1.5814,1.6093,1.6308,1.653,1.6683,1.6683,1.6683,1.6683,1.6683,1.6683,1.663,1.6418,1.6418,1.6311,1.6045,1.6143,1.6037,1.5643,1.5261,1.5076,0.0,0.0,0.0,0.0,0.0,0.0,0.0,0.0,0.0,0.0,0.0,0.0202,0.0943,0.1077,0.1548,0.2959,0.3499,0.0,0.0,0.6317,0.0,0.0,0.9455,0.9861,1.0193,1.0512,1.0704,1.0704,1.0697,1.0822,1.1146,1.1011,1.112,1.1508,1.2145,1.2789,1.3512,1.3383,1.3385,1.3453,1.3426,1.3499,1.3633,1.3324,1.3144,1.3084,1.2784,1.2475,1.2113,1.182,1.1511,1.1156,1.0543,1.0308,1.0247,0.9943,0.9822,0.9822,0.9822,0.9822,0.9822,0.9822,0.9822,0.9822,0.9822,0.9822,0.9822,0.9822,0.9822,0.9822,0.9822,0.9822,0.9822,0.9822,1.0065,1.0247,1.0247,1.0543,1.0846,1.1156,1.1511,1.1812,1.2113,1.2715,1.3204,1.3573,1.3933,1.4282,1.459,1.4919,1.5135,1.5251,1.549,1.5648,1.5648,1.6235,1.6627,1.6627,1.6615,1.6602,1.6602,1.6577,1.6377,1.5868,1.588,1.5571,1.5044,1.5206,1.5277,1.5219,1.5174,1.4891,0.0,0.0,0.0,0.0,0.0,0.0,0.0,0.0,0.0,0.0,0.0,0.0,0.0,0.0,0.1548,0.2959,0.0,0.3833,0.5178,0.6518,0.0,0.8584,0.9322,0.9861,1.0193,1.0419,1.0548,1.0548,1.0446,1.0449,1.0513,1.0479,1.065,1.0969,1.0973,1.1524,1.2606,1.2424,1.2564,1.3146,1.2986,1.2879,1.2904,1.2844,1.2655,1.2414,1.2113,1.1812,1.1511,1.1156,1.0846,1.055,1.0368,1.0126,0.9883,0.9822,0.9822,0.9822,0.9822,0.9822,0.9822,0.9822,0.9822,0.9822,0.9822,0.9822,0.9822,0.9822,0.9822,0.9822,0.9822,0.9822,0.9822,0.9822,0.9883,0.9943,0.9943,1.0186,1.0422,1.055,1.0785,1.1216,1.1812,1.1993,1.2303,1.2844,1.3204,1.3545,1.3915,1.4212,1.4489,1.4734,1.4861,1.4929,1.4929,1.5569,1.5946,1.5946,1.5814,1.5697,1.5697,1.551,1.5444,1.5534,1.5454,1.5389,1.5222,1.4818,1.4646,1.4597,1.4143,1.3949,0.0,0.0,0.0,0.0,0.0,0.0,0.0,0.0,0.0,0.0,0.0,0.0,0.0,0.0,0.0,0.0,0.3228,0.0,0.0,0.0,0.7629,0.8099,0.8819,0.9412,0.9732,1.0052,1.0263,1.0392,1.0324,1.0283,1.0283,1.0215,1.0238,1.0426,1.0273,1.0692,1.1729,1.1564,1.1662,1.1967,1.1861,1.1812,1.1812,1.1812,1.1752,1.1571,1.139,1.1209,1.1027,1.0732,1.049,1.0301,1.0126,0.9943,0.9822,0.9822,0.9822,0.9822,0.9822,0.9822,0.9822,0.9822,0.9822,0.9822,0.9822,0.9822,0.9822,0.9822,0.9822,0.9822,0.9822,0.9822,0.9822,0.9822,0.9822,0.9822,0.9822,0.9943,1.0126,1.0247,1.0429,1.0725,1.1269,1.1458,1.1752,1.2242,1.2535,1.2844,1.3204,1.3504,1.3813,1.3933,1.4124,1.4222,1.4222,1.458,1.4944,1.5298,1.5154,1.5133,1.5133,1.5011,1.4944,1.4965,1.4759,1.4717,1.4813,1.4354,1.4117,1.4043,1.3577,1.3351,0.0,0.0,0.0,0.0,0.0,0.0,0.0,0.0,0.0,0.0,0.0,0.0,0.0,0.1346,0.0,0.0,0.0,0.0,0.5471,0.6644,0.7392,0.7601,0.8295,0.8933,0.9252,0.9615,0.9919,1.0243,1.0222,1.0209,1.0209,1.0086,0.995,0.995,0.989,1.0127,1.0878,1.0799,1.0725,1.0785,1.0785,1.0785,1.0785,1.0785,1.0785,1.0785,1.0725,1.0732,1.0725,1.0368,1.0247,1.0186,0.9883,0.9822,0.9822,0.9822,0.9822,0.9822,0.9822,0.9822,0.9822,0.9822,0.9822,0.9822,0.9822,0.9822,0.9822,0.9822,0.9822,0.9822,0.9822,0.9822,0.9822,0.9822,0.9822,0.9822,0.9822,0.9822,0.9883,1.0186,1.0247,1.0301,1.0671,1.0967,1.1269,1.1571,1.1872,1.2174,1.2543,1.2844,1.3084,1.3144,1.3384,1.3564,1.3564,1.3564,1.3828,1.4437,1.4546,1.4572,1.454,1.4572,1.4468,1.4241,1.3949,1.3886,1.4122,1.383,1.3622,1.3564,1.3204,1.2844,-0.4565,-0.3282,0.0,0.0,0.0,0.0,0.0,0.0,0.0,0.0,0.0,0.0,0.0,0.1346,0.1952,0.0,0.0,0.5085,0.5277,0.6448,0.7326,0.7286,0.8167,0.8933,0.9252,0.9532,0.9774,1.0024,0.9964,0.989,0.989,0.9869,0.9856,0.9856,0.9836,0.989,0.9978,1.0254,1.055,1.0785,1.0785,1.0785,1.0785,1.0785,1.0785,1.0785,1.049,1.0361,1.0368,1.0004,0.9883,0.9883,0.9822,0.9822,0.9822,0.9822,0.9822,0.9822,0.9822,0.9822,0.9822,0.9822,0.9822,0.9822,0.9822,0.9822,0.9822,0.9822,0.9822,0.9822,0.9822,0.9822,0.9822,0.9822,0.9822,0.9822,0.9822,0.9822,0.9822,0.9883,0.9883,1.0004,1.0308,1.0429,1.055,1.0906,1.1209,1.1579,1.1881,1.2174,1.2475,1.2724,1.2844,1.2844,1.2844,1.2844,1.2877,1.2994,1.3351,1.3471,1.3298,1.3452,1.349,1.349,1.3377,1.331,1.3398,1.303,1.2868,1.2844,1.2535,1.2174,-0.4678,-0.3763,-0.2873,0.0,0.0,0.0,0.0,0.0,0.0,0.0,0.0,0.0,0.0,0.0,0.2221,0.3094,0.4278,0.5096,0.5151,0.6005,0.671,0.6992,0.7603,0.8228,0.8789,0.9045,0.9316,0.9623,0.9741,0.9822,0.9822,0.9822,0.9822,0.9822,0.9822,0.9822,0.9822,0.9943,1.0126,1.0247,1.0247,1.0247,1.0247,1.0247,1.0247,1.0247,1.0126,1.0016,0.9887,0.9767,0.9707,0.9707,0.9707,0.9754,0.9822,0.9822,0.9822,0.9822,0.9822,0.9822,0.9822,0.9822,0.9822,0.9822,0.9822,0.9822,0.9822,0.9822,0.9822,0.9822,0.9822,0.9822,0.9822,0.9822,0.9822,0.9822,0.9822,0.9822,0.9822,0.9822,0.989,0.9944,1.0129,1.0383,1.0626,1.075,1.1061,1.1309,1.1433,1.1557,1.1703,1.1792,1.1776,1.1744,1.17,1.1692,1.1993,1.2664,1.2875,1.2954,1.2872,1.2954,1.2999,1.2999,1.297,1.2904,1.2904,1.2483,1.2242,1.2182,1.1736,1.147,-0.4865,-0.4165,-0.333,0.0,0.0,0.0,0.0,0.0,0.0,0.0,0.0,0.0,0.0,0.1818,0.0,0.3094,0.4123,0.4851,0.51,0.5593,0.6197,0.6728,0.7143,0.7633,0.8244,0.861,0.8915,0.9275,0.9518,0.97,0.9822,0.9822,0.9822,0.9822,0.9822,0.9822,0.9822,0.9822,0.9822,0.9822,0.9822,0.9822,0.9822,0.9788,0.9774,0.9768,0.9734,0.9652,0.9557,0.9557,0.9557,0.9557,0.9598,0.9693,0.9822,0.9822,0.9822,0.9822,0.9822,0.9822,0.9822,0.9822,0.9822,0.9822,0.9822,0.9822,0.9822,0.9822,0.9822,0.9822,0.9822,0.9822,0.9822,0.9822,0.9822,0.9822,0.9822,0.9849,0.9876,0.9876,0.9998,1.0038,1.0038,1.0391,1.0658,1.0658,1.0912,1.1102,1.1102,1.1165,1.1177,1.1051,1.1036,1.0984,1.0919,1.0904,1.1332,1.2308,1.2285,1.2234,1.2234,1.2234,1.2234,1.2234,1.2234,1.2259,1.2302,1.1817,1.1659,1.1646,1.1224,1.1036,-0.5179,-0.4316,-0.333,-0.1666,-0.1264,0.0,-0.0144,0.0,0.0,0.0,0.0,0.0,0.0,0.222,0.3161,0.3161,0.4123,0.4851,0.51,0.5593,0.6135,0.6416,0.7016,0.7566,0.7872,0.8244,0.8671,0.9275,0.9335,0.9457,0.9761,0.9822,0.9822,0.9822,0.9822,0.9822,0.9822,0.9822,0.9822,0.9822,0.9822,0.9822,0.9815,0.9686,0.9625,0.9618,0.9476,0.9408,0.9395,0.9395,0.9395,0.9408,0.9551,0.9693,0.9822,0.9822,0.9822,0.9822,0.9822,0.9822,0.9822,0.9822,0.9822,0.9822,0.9822,0.9822,0.9822,0.9822,0.9822,0.9822,0.9822,0.9822,0.9822,0.9822,0.9822,0.9822,0.9822,0.9869,0.997,0.997,1.0154,1.0263,1.0263,1.0333,1.0347,1.0347,1.0601,1.0848,1.0848,1.1038,1.1221,1.1206,1.1206,1.1206,1.1192,1.1192,1.1192,1.1318,1.1087,1.0967,1.0967,1.0967,1.0967,1.0967,1.0967,1.0989,1.1147,1.1086,1.1098,1.1255,1.1199,1.1024,-0.5254,-0.4393,-0.333,-0.1666,0.0,0.0,0.0,0.0,0.0,0.0,0.0408,0.0,0.0,0.0,0.2954,0.3127,0.3675,0.4204,0.4652,0.5084,0.5521,0.6043,0.6526,0.7016,0.7505,0.7872,0.8244,0.8732,0.9098,0.9335,0.9457,0.97,0.9822,0.9822,0.9822,0.9822,0.9822,0.9822,0.9822,0.9822,0.9822,0.9774,0.9686,0.9632,0.9557,0.9462,0.9408,0.9327,0.9296,0.9296,0.935,0.9408,0.9646,0.9774,0.9822,0.9822,0.9822,0.9822,0.9822,0.9822,0.9822,0.9822,0.9822,0.9822,0.9822,0.9822,0.9822,0.9822,0.9822,0.9822,0.9822,0.9822,0.9822,0.9822,0.989,0.9903,0.9903,1.0086,1.0195,1.0195,1.031,1.0412,1.0412,1.0493,1.0555,1.0555,1.0685,1.075,1.075,1.0816,1.0839,1.0741,1.0714,1.0658,1.0658,1.0658,1.0658,1.0658,1.0922,1.1036,1.1036,1.1036,1.1036,1.1036,1.1036,1.1073,1.1132,1.0944,1.0917,1.0982,1.082,1.0734,-0.5254,-0.4393,-0.333,0.0,0.0,0.0,-0.0216,0.0,0.0,0.0,0.0272,0.0741,0.1481,0.0,0.2615,0.2909,0.3256,0.3655,0.4233,0.4481,0.4872,0.5671,0.6039,0.6464,0.7016,0.7505,0.7872,0.8244,0.8732,0.9092,0.9275,0.9518,0.97,0.9822,0.9822,0.9822,0.9822,0.9822,0.9822,0.9822,0.9774,0.97,0.9605,0.9557,0.9456,0.9306,0.9259,0.9184,0.9083,0.9083,0.9205,0.9408,0.9659,0.9781,0.9822,0.9822,0.9822,0.9822,0.9822,0.9822,0.9822,0.9822,0.9822,0.9822,0.9822,0.9822,0.9822,0.9822,0.9822,0.9829,0.9883,0.989,0.989,0.989,1.0012,1.0058,1.0058,1.0243,1.0344,1.0344,1.0466,1.0561,1.0561,1.0649,1.0717,1.0717,1.0717,1.0717,1.0717,1.0717,1.0677,1.0575,1.048,1.0419,1.0419,1.0419,1.0419,1.0419,1.0805,1.1012,1.0919,1.0912,1.0912,1.0912,1.0912,1.0933,1.0984,1.0792,1.0756,1.0741,1.0651,1.0561,-0.5254,-0.4393,-0.333,0.0,0.0,0.0,-0.0219,0.0,0.0,0.0,0.0272,0.0741,0.1481,0.1952,0.2278,0.2577,0.2866,0.3273,0.3918,0.3919,0.425,0.5237,0.5671,0.6039,0.6342,0.7016,0.7505,0.7872,0.8183,0.8671,0.9275,0.9275,0.9457,0.9761,0.9822,0.9822,0.9822,0.9822,0.9822,0.9822,0.968,0.9612,0.9605,0.9449,0.935,0.92,0.9001,0.8885,0.8885,0.8885,0.9117,0.9401,0.9551,0.97,0.9822,0.9822,0.9822,0.9822,0.9822,0.9822,0.9822,0.9822,0.9822,0.9822,0.9822,0.9822,0.9822,0.9822,0.9822,0.9856,0.995,0.999,0.999,0.999,1.0168,1.0283,1.0283,1.0392,1.0493,1.0493,1.0616,1.0717,1.0717,1.0717,1.0717,1.0717,1.0717,1.0717,1.0717,1.0717,1.0717,1.0717,1.0717,1.0717,1.0717,1.0717,1.0717,1.0717,1.0717,1.0588,1.0297,1.0283,1.0283,1.0283,1.0283,1.0351,1.0493,1.0493,1.0575,1.0717,1.0717,1.0717,-0.5254,-0.4393,0.0,-0.1666,0.0,0.0,0.0,0.0,0.0,0.0,0.027,0.0539,0.0808,0.1346,0.187,0.2151,0.2524,0.2877,0.324,0.3648,0.4004,0.4312,0.5053,0.5667,0.6039,0.6464,0.6954,0.7505,0.7872,0.8238,0.8671,0.9092,0.9335,0.9457,0.97,0.9822,0.9822,0.9822,0.9822,0.9822,0.9781,0.9652,0.9442,0.935,0.9144,0.9001,0.8898,0.8885,0.8898,0.9164,0.9367,0.9557,0.97,0.9781,0.9822,0.9822,0.9822,0.9822,0.9822,0.9822,0.9822,0.9822,0.9822,0.9822,0.9822,0.9822,0.9842,0.9889,0.9916,0.9957,1.0175,1.0283,1.0337,1.0236,1.0324,1.0426,1.0426,1.0548,1.0649,1.0649,1.069,1.0717,1.0717,1.0717,1.0717,1.0717,1.0717,1.0717,1.0717,1.0717,1.0717,1.0717,1.0717,1.0717,1.0717,1.0717,1.0717,1.0717,1.0717,1.0683,1.0595,1.0588,1.0588,1.0588,1.0588,1.0609,1.0649,1.0649,1.0677,1.0717,1.0717,1.0717,-0.5022,-0.4256,0.0,-0.1668,-0.1268,-0.0953,-0.0218,0.0,0.0,0.0,0.0135,0.0337,0.0471,0.0875,0.1334,0.175,0.1999,0.2299,0.2725,0.3145,0.3451,0.3881,0.4435,0.5053,0.5671,0.5974,0.6403,0.6954,0.7444,0.7872,0.8183,0.8671,0.9037,0.9275,0.9518,0.964,0.9822,0.9822,0.9822,0.9822,0.9768,0.9646,0.9469,0.9313,0.913,0.8885,0.9001,0.9022,0.9049,0.9347,0.953,0.9625,0.9768,0.9822,0.9822,0.9822,0.9822,0.9822,0.9822,0.9822,0.9822,0.9822,0.9822,0.9822,0.9822,0.9863,0.9869,0.9963,1.0031,1.0175,1.0324,1.0426,1.0473,1.0385,1.0473,1.0582,1.0582,1.0656,1.0717,1.0717,1.0717,1.0717,1.0717,1.0717,1.0717,1.0717,1.0717,1.0717,1.0717,1.0717,1.0717,1.0717,1.0717,1.0717,1.0717,1.0717,1.0717,1.0717,1.0717,1.0717,1.0717,1.0717,1.0717,1.0717,1.0717,1.0717,1.0717,1.0717,1.0717,1.0717,1.0717,1.0751,-0.4711,0.0,0.0,-0.167,-0.1199,0.0,-0.0144,0.0,0.0,0.0,0.0,0.0067,0.0404,0.0471,0.0667,0.1296,0.1483,0.1723,0.2354,0.2467,0.2837,0.3697,0.382,0.425,0.5176,0.5605,0.5978,0.6342,0.6954,0.7444,0.7811,0.8183,0.861,0.9214,0.9275,0.9457,0.9822,0.9822,0.9822,0.9822,0.9693,0.9618,0.9605,0.9449,0.9232,0.8932,0.9117,0.9234,0.9275,0.9496,0.9618,0.9639,0.9768,0.9822,0.9822,0.9822,0.9761,0.9761,0.9761,0.9761,0.97,0.97,0.97,0.97,0.9714,0.9814,0.9928,0.9955,1.0125,1.0267,1.0408,1.0514,1.0514,1.0514,1.0616,1.0717,1.0717,1.0717,1.0717,1.0717,1.0717,1.0717,1.0717,1.0717,1.0717,1.0717,1.0717,1.0717,1.0717,1.0717,1.0717,1.0717,1.0717,1.0717,1.0717,1.0731,1.0744,1.0744,1.0751,1.0758,1.0758,1.0738,1.0717,1.0717,1.0717,1.0717,1.0717,1.0717,1.0724,1.0744,1.0744,1.0819,0.0,-0.4046,0.0,0.0,-0.0745,-0.0219,-0.0072,0.0,0.0,0.0,0.0,0.0,0.0067,0.0337,0.0534,0.0713,0.1161,0.1532,0.1674,0.2159,0.259,0.2775,0.3451,0.4004,0.4189,0.4991,0.5667,0.5978,0.6403,0.6893,0.7444,0.7811,0.8299,0.8976,0.9214,0.9457,0.9822,0.9822,0.9822,0.9822,0.9788,0.972,0.9605,0.9449,0.9347,0.9286,0.932,0.9401,0.9517,0.9585,0.9673,0.9781,0.9808,0.9822,0.9822,0.9822,0.964,0.9396,0.9396,0.9275,0.9098,0.9098,0.9098,0.9117,0.9168,0.9218,0.9287,0.9499,0.978,1.0091,1.0241,1.0472,1.067,1.067,1.0697,1.0717,1.0717,1.0717,1.0717,1.0717,1.0717,1.0717,1.0717,1.0717,1.0717,1.0717,1.0717,1.0717,1.0717,1.0717,1.0717,1.0717,1.0717,1.0717,1.0717,1.0833,1.0833,1.0833,1.1002,1.107,1.107,1.0846,1.0717,1.0717,1.0717,1.0717,1.0717,1.0717,1.0778,1.0833,1.0833,1.0975,0.0,0.0,0.0,-0.1673,0.0,0.0,0.0,0.0,0.0,0.0,0.0,0.0,0.0,0.0135,0.0334,0.0458,0.0778,0.1153,0.144,0.1798,0.2159,0.2467,0.296,0.3389,0.3881,0.4373,0.493,0.5605,0.5978,0.6469,0.7143,0.7505,0.8,0.861,0.8976,0.9275,0.9579,0.97,0.9822,0.9822,0.964,0.9485,0.9286,0.9189,0.9149,0.9155,0.9046,0.9176,0.9367,0.944,0.9573,0.9822,0.9822,0.97,0.9579,0.9579,0.9396,0.9098,0.9098,0.9037,0.8915,0.8915,0.8897,0.8964,0.8975,0.9085,0.9212,0.9352,0.9633,0.9899,0.9975,1.006,1.0193,1.0193,1.0459,1.0717,1.0717,1.0717,1.0717,1.0717,1.0717,1.0717,1.0717,1.0717,1.0717,1.0717,1.0785,1.0826,1.0826,1.0887,1.0934,1.0934,1.0934,1.0934,1.0934,1.1002,1.105,1.105,1.1124,1.1234,1.1234,1.1016,1.0934,1.0934,1.0934,1.0934,1.0934,1.0934,1.0975,1.105,1.105,1.1131,0.0,0.0,0.0,0.0,0.0,0.0,0.0,0.0,0.0,0.0,0.0,0.0,0.0,0.0,0.0067,0.0396,0.0457,0.0708,0.1265,0.1437,0.1733,0.2284,0.2406,0.2775,0.3574,0.382,0.425,0.5053,0.5548,0.6101,0.6714,0.7082,0.7633,0.8305,0.8671,0.9037,0.9275,0.964,0.9761,0.97,0.9396,0.9098,0.8909,0.886,0.8818,0.8883,0.8694,0.8803,0.9048,0.9169,0.9396,0.964,0.964,0.9457,0.9214,0.9214,0.9037,0.8793,0.8732,0.8671,0.8616,0.8573,0.8594,0.8688,0.8672,0.8829,0.9068,0.9157,0.9306,0.9528,0.9594,0.9661,0.9728,0.9728,1.0127,1.0518,1.0585,1.0651,1.0717,1.0717,1.0717,1.0717,1.0717,1.0744,1.0758,1.0758,1.0887,1.0921,1.0921,1.109,1.1234,1.1234,1.1234,1.1234,1.1234,1.1185,1.1199,1.1199,1.1226,1.124,1.124,1.124,1.124,1.124,1.1192,1.1234,1.1234,1.1234,1.1179,1.1199,1.1199,1.1287,0.0,0.0,0.0,0.0,0.0,0.0,0.0,0.0,0.0,0.0,0.0,0.0,0.0,0.0,0.0,0.0066,0.0329,0.0521,0.0634,0.1134,0.1502,0.1607,0.2159,0.2529,0.2652,0.3451,0.3943,0.4066,0.493,0.5605,0.6039,0.6653,0.7266,0.7933,0.8549,0.9037,0.9275,0.964,0.964,0.9335,0.9098,0.8915,0.8915,0.8575,0.8624,0.8921,0.8878,0.8885,0.8952,0.897,0.8976,0.9037,0.9037,0.8976,0.8976,0.8976,0.8732,0.8427,0.8116,0.7872,0.7587,0.7309,0.7286,0.7272,0.7463,0.7541,0.7646,0.8138,0.8512,0.879,0.9117,0.9455,0.9728,0.9728,0.9794,0.9927,1.0193,1.0518,1.0717,1.0717,1.0717,1.0717,1.0717,1.0833,1.0853,1.0853,1.1043,1.1131,1.1131,1.1151,1.1234,1.1234,1.1234,1.1234,1.1234,1.1287,1.1362,1.1362,1.1484,1.1558,1.1558,1.1558,1.1558,1.1558,1.1301,1.1234,1.1234,1.1234,1.1233,1.1362,1.1362,1.1443,0.0,0.0,0.0,0.0,0.0,0.0,0.0,0.0,0.0,0.0,0.0,0.0,0.0,0.0,0.0,0.0,0.0132,0.0262,0.0454,0.0765,0.1008,0.1189,0.1675,0.2036,0.2219,0.2773,0.3328,0.3881,0.4312,0.493,0.5855,0.6346,0.6959,0.7627,0.8244,0.8671,0.8793,0.9159,0.9098,0.8793,0.8482,0.8244,0.8061,0.7694,0.7816,0.836,0.836,0.836,0.836,0.8549,0.8732,0.8915,0.8915,0.8793,0.861,0.8427,0.8122,0.7827,0.7516,0.7289,0.7184,0.7103,0.7115,0.7181,0.7271,0.7342,0.7464,0.7712,0.7856,0.7989,0.8189,0.8323,0.8462,0.8462,0.879,0.9123,0.9256,0.9721,1.0146,1.0223,1.0168,1.0194,1.0276,1.034,1.0453,1.0727,1.0852,1.1078,1.1287,1.1362,1.1416,1.1416,1.1416,1.1416,1.1416,1.1484,1.1518,1.1518,1.1586,1.1619,1.1619,1.1619,1.1619,1.1619,1.1491,1.1416,1.1416,1.1416,1.145,1.1518,1.1599,1.1674,0.0,0.0,0.0,0.0,0.0,0.0,0.0,0.0,0.0,0.0,0.0,0.0,0.0,0.0,0.0,0.0,0.0,0.0066,0.033,0.0453,0.0574,0.0826,0.1191,0.149,0.1861,0.2163,0.2714,0.3638,0.382,0.4438,0.5609,0.6101,0.6648,0.7266,0.8,0.8372,0.8372,0.8671,0.861,0.8244,0.7933,0.7566,0.7138,0.6898,0.6954,0.7261,0.7505,0.7627,0.7689,0.7939,0.8183,0.8366,0.8366,0.8244,0.8,0.775,0.7465,0.7131,0.6835,0.6688,0.6661,0.6699,0.6714,0.678,0.6806,0.6863,0.6991,0.7054,0.7125,0.7125,0.7192,0.7326,0.7393,0.7393,0.7856,0.8456,0.879,0.9352,0.974,0.9764,0.9813,0.9868,0.9971,1.0013,1.0177,1.0455,1.0645,1.0876,1.1237,1.1435,1.1529,1.1674,1.1708,1.1735,1.1735,1.1735,1.1735,1.1735,1.1735,1.1735,1.1735,1.1735,1.1735,1.1735,1.1735,1.1714,1.1674,1.1714,1.1735,1.1735,1.1843,1.1891,0.0,0.0,0.0,0.0,0.0,0.0,0.0,0.0,0.0,0.0,0.0,0.0,0.0,0.0,0.0,0.0,0.0,0.0,0.0,0.0329,0.0524,0.0517,0.0828,0.1135,0.1512,0.1803,0.2282,0.3022,0.3576,0.4192,0.4933,0.5851,0.6587,0.6898,0.7883,0.8372,0.8372,0.8433,0.8244,0.7933,0.7566,0.7077,0.6464,0.6403,0.6096,0.5605,0.653,0.6959,0.6959,0.6959,0.6964,0.7021,0.7021,0.7025,0.6964,0.6959,0.6774,0.6482,0.6168,0.591,0.5615,0.5367,0.5329,0.5346,0.5485,0.551,0.558,0.5912,0.5979,0.6046,0.6384,0.6719,0.7054,0.7054,0.7321,0.7927,0.9328,0.9753,0.9777,0.9783,0.9886,0.9977,0.9983,1.0098,1.0183,1.0254,1.0358,1.0665,1.0959,1.1226,1.1457,1.1743,1.1952,1.204,1.204,1.204,1.204,1.204,1.204,1.204,1.204,1.204,1.204,1.204,1.204,1.1965,1.1823,1.1965,1.204,1.204,1.2047,1.2047,0.0,0.0,0.0,0.0,0.0,0.0,0.0,0.0,0.0,0.0,0.0,0.0,0.0,0.0,0.0,0.0,0.0,0.0,0.0,0.0133,0.0197,0.0196,0.0452,0.0704,0.0833,0.1326,0.1876,0.2315,0.2977,0.3699,0.4561,0.5298,0.6096,0.6898,0.7449,0.7755,0.7755,0.7755,0.7572,0.7266,0.6714,0.6285,0.6039,0.5609,0.5176,0.4807,0.5364,0.5732,0.5974,0.6407,0.6591,0.6591,0.6837,0.6817,0.6625,0.6372,0.6181,0.589,0.5619,0.5267,0.504,0.498,0.4803,0.4606,0.4699,0.4705,0.4705,0.4839,0.5041,0.5242,0.5309,0.5683,0.6077,0.6336,0.6485,0.6829,0.7584,0.8158,0.8554,0.8632,0.8679,0.8732,0.881,0.8785,0.9053,0.9635,0.9831,1.0108,1.0786,1.0909,1.1089,1.1534,1.158,1.1762,1.206,1.2135,1.2135,1.2135,1.2135,1.2135,1.2135,1.2135,1.2135,1.2135,1.2155,1.2135,1.1979,1.2033,1.2135,1.206,1.2162,1.221,0.0,0.0,0.0,0.0,0.0,0.0,0.0,0.0,0.0,0.0,0.0,0.0,0.0,0.0,0.0,0.0,0.0,0.0,0.0,0.0,0.0,0.0,0.0197,0.039,0.052,0.1026,0.1525,0.197,0.2646,0.3436,0.4413,0.5091,0.5945,0.7021,0.7266,0.7388,0.7388,0.7266,0.7021,0.653,0.6101,0.5671,0.5237,0.4745,0.4315,0.3946,0.4195,0.4564,0.5114,0.5698,0.5957,0.5961,0.6181,0.6164,0.6029,0.5772,0.5447,0.5137,0.4922,0.4556,0.4182,0.4222,0.4101,0.3897,0.3897,0.3897,0.3902,0.399,0.413,0.427,0.4289,0.4601,0.5059,0.559,0.5764,0.5852,0.62,0.6902,0.7486,0.7553,0.7736,0.7863,0.7965,0.8057,0.8382,0.9007,0.925,0.9579,1.0329,1.0601,1.0932,1.1459,1.1573,1.1756,1.221,1.221,1.221,1.221,1.221,1.221,1.221,1.221,1.2237,1.2284,1.2386,1.2413,1.2366,1.2257,1.2237,1.2291,1.2393,1.2467,0.0,0.0,0.0,0.0,0.0,0.0,0.0,0.0,0.0,0.0,0.0,0.0,0.0,0.0,0.0,0.0,0.0,0.0,0.0,0.0,0.0,0.0,0.0,0.0132,0.0461,0.0781,0.129,0.1936,0.2646,0.3461,0.4422,0.5108,0.6069,0.7332,0.7388,0.7388,0.7388,0.7021,0.653,0.5855,0.5855,0.5176,0.3881,0.3881,0.3576,0.296,0.3024,0.3517,0.4385,0.4758,0.4979,0.4986,0.506,0.509,0.5026,0.5026,0.4686,0.4152,0.4152,0.3725,0.3161,0.3161,0.3161,0.3161,0.3161,0.3163,0.3173,0.3215,0.3229,0.3241,0.3285,0.3577,0.407,0.4771,0.5032,0.5149,0.5577,0.6219,0.6717,0.6788,0.7217,0.7601,0.7625,0.7938,0.8266,0.837,0.8695,0.9076,0.9527,1.0078,1.0762,1.1612,1.1811,1.2044,1.2437,1.2515,1.2515,1.2515,1.2515,1.2515,1.2515,1.2515,1.2583,1.2732,1.2739,1.2807,1.2963,1.2657,1.2589,1.2739,1.2739,1.282,0.0,0.0,0.0,0.0,0.0,0.0,0.0,0.0,0.0,0.0,0.0,0.0,0.0,0.0,0.0,0.0,0.0,0.0,0.0,0.0,0.0,0.0,0.0,0.0068,0.0134,0.0462,0.0786,0.1244,0.2206,0.3091,0.3781,0.5133,0.616,0.6758,0.6936,0.6898,0.6648,0.6346,0.5978,0.5544,0.4807,0.425,0.3881,0.3453,0.3022,0.2654,0.287,0.3009,0.3072,0.365,0.3931,0.3973,0.4181,0.4215,0.3992,0.3992,0.3765,0.3477,0.3477,0.322,0.2827,0.2558,0.2289,0.2019,0.1749,0.1695,0.1778,0.2059,0.2283,0.2656,0.3189,0.3485,0.3636,0.3886,0.3907,0.3998,0.4109,0.4265,0.4776,0.5949,0.6261,0.6374,0.6458,0.6548,0.6875,0.7566,0.7735,0.822,0.9295,0.9568,1.0081,1.0957,1.139,1.1846,1.2344,1.2675,1.2834,1.2834,1.2834,1.2834,1.2834,1.2834,1.2854,1.2895,1.2895,1.2915,1.2963,1.2874,1.2854,1.2895,1.2895,1.2976,0.0,0.0,0.0,0.0,0.0,0.0,0.0,0.0,0.0,0.0,0.0,0.0,0.0,0.0,0.0,0.0,-0.0146,-0.0216,-0.0283,-0.0283,-0.0282,-0.0486,-0.0485,-0.0483,-0.0476,0.0,0.0401,0.0599,0.1716,0.2881,0.4031,0.5319,0.621,0.6491,0.662,0.6571,0.6219,0.5855,0.536,0.4742,0.4189,0.3635,0.3081,0.2714,0.2352,0.187,0.2075,0.2034,0.1927,0.2311,0.2775,0.3386,0.36,0.3562,0.3455,0.3455,0.3272,0.2961,0.2827,0.2558,0.2155,0.1818,0.1548,0.1348,0.1152,0.1093,0.1171,0.1394,0.1623,0.1857,0.2374,0.2595,0.2821,0.3004,0.3161,0.332,0.3511,0.3519,0.3818,0.479,0.5089,0.5184,0.5252,0.5568,0.5972,0.6586,0.717,0.7833,0.86,0.9194,0.9803,1.0508,1.1157,1.1745,1.2227,1.2722,1.2963,1.2963,1.2963,1.2963,1.2963,1.2963,1.307,1.3051,1.3051,1.3078,1.3146,1.3024,1.299,1.3051,1.3112,1.3186,0.0,0.0,0.0,0.0,0.0,0.0,0.0,0.0,0.0,0.0,0.0,0.0,0.0,0.0,0.0,0.0,-0.0368,-0.0583,-0.0575,-0.0645,-0.0785,-0.1127,-0.1195,-0.1189,-0.1104,-0.0551,-0.0068,0.0,0.1415,0.2944,0.4556,0.553,0.6093,0.6332,0.6374,0.6197,0.581,0.5425,0.4803,0.3881,0.382,0.3143,0.1973,0.1977,0.1619,0.1011,0.1014,0.103,0.0989,0.099,0.1717,0.2912,0.2946,0.2959,0.2959,0.2959,0.2759,0.2492,0.2155,0.1818,0.1481,0.1144,0.1011,0.1014,0.0959,0.0965,0.0972,0.0997,0.1085,0.1168,0.117,0.1461,0.1832,0.2153,0.2532,0.2914,0.3253,0.3336,0.3338,0.3342,0.3795,0.4188,0.4239,0.4871,0.5358,0.5495,0.659,0.7517,0.7676,0.8714,0.9663,1.0238,1.1051,1.1783,1.2198,1.2688,1.301,1.301,1.301,1.301,1.301,1.301,1.3071,1.3193,1.32,1.3275,1.3424,1.3146,1.3078,1.32,1.3356,1.3424,0.0,0.0,0.0,0.0,0.0,0.0,0.0,0.0,0.0,0.0,0.0,0.0,0.0,0.0,0.0,0.0,-0.0371,-0.059,-0.0583,-0.0872,-0.1085,-0.1214,-0.1212,-0.1205,-0.1189,-0.1048,-0.0695,-0.0069,0.1625,0.309,0.4289,0.5023,0.5367,0.5483,0.568,0.56,0.5206,0.4524,0.4066,0.3881,0.3143,0.2529,0.1974,0.1749,0.1384,0.1012,0.0971,0.0984,0.0989,0.1068,0.1273,0.1475,0.1479,0.148,0.148,0.148,0.1481,0.1414,0.1346,0.1279,0.1144,0.0741,0.0611,0.0548,0.0275,0.0209,0.0285,0.0579,0.0947,0.1171,0.1181,0.1259,0.1337,0.1429,0.1509,0.159,0.1686,0.1691,0.1696,0.1713,0.2861,0.3856,0.3903,0.4023,0.4368,0.5093,0.5468,0.6156,0.7609,0.8029,0.8635,0.9861,1.0438,1.1137,1.2066,1.2484,1.2903,1.3315,1.3315,1.3315,1.3315,1.3315,1.3329,1.3356,1.3356,1.3431,1.3587,1.3403,1.3329,1.3363,1.3512,1.3587,0.0,0.0,0.0,0.0,0.0,0.0,0.0,0.0,0.0,0.0,0.0,0.0,0.0,0.0,-0.0077,-0.0304,-0.0603,-0.0974,-0.119,-0.1397,-0.1601,-0.2024,-0.2023,-0.2156,-0.2341,-0.1983,-0.1264,-0.0069,0.116,0.244,0.3703,0.4409,0.4907,0.5201,0.5321,0.5117,0.4539,0.4128,0.3725,0.3204,0.2527,0.1974,0.1482,0.1128,0.0824,0.0512,0.0522,0.0529,0.0533,0.0537,0.0539,0.0606,0.0943,0.1077,0.1077,0.1077,0.1077,0.1077,0.0875,0.0808,0.0741,0.0339,0.0273,0.0207,0.007,0.0,0.0072,0.0219,0.044,0.059,0.0594,0.0747,0.0903,0.0914,0.107,0.1227,0.1242,0.1252,0.1259,0.1267,0.1981,0.2615,0.2773,0.304,0.3385,0.4029,0.4801,0.5575,0.6475,0.7409,0.8276,0.9234,1.0149,1.092,1.173,1.2318,1.2816,1.3065,1.3238,1.3437,1.3512,1.3512,1.3546,1.362,1.362,1.3654,1.3736,1.3654,1.362,1.362,1.3695,1.3736,0.0,0.0,0.0,0.0,0.0,0.0,0.0,0.0,0.0,0.0,0.0,0.0,0.0,0.0,-0.0155,-0.054,-0.0918,-0.1367,-0.1742,-0.1934,-0.2274,-0.2856,-0.2993,-0.3123,-0.3449,-0.2793,-0.17,-0.0347,0.0482,0.1504,0.2907,0.3705,0.4283,0.4826,0.4879,0.4559,0.3817,0.3741,0.3269,0.2416,0.2044,0.1549,0.0869,0.063,0.032,0.0,0.0,0.0,0.0,0.0,0.0,0.0067,0.0673,0.0875,0.0875,0.0875,0.0875,0.0875,0.054,0.0405,0.0339,0.0069,0.0,0.0,0.0,0.0,0.0,0.0,0.0,0.0,0.0,0.0226,0.0457,0.0463,0.0698,0.1013,0.1023,0.1034,0.1043,0.1043,0.1053,0.122,0.1688,0.2187,0.2611,0.3018,0.4201,0.5145,0.5311,0.677,0.806,0.8562,0.9731,1.0664,1.1271,1.2022,1.2535,1.265,1.2984,1.3288,1.3492,1.3583,1.3722,1.3838,1.3838,1.3858,1.3885,1.3885,1.3871,1.3838,1.3871,1.3885,0.0,0.0,0.0,0.0,0.0,0.0,0.0,0.0,0.0,0.0,0.0,0.0,0.0,0.0,0.0,-0.0541,-0.0924,-0.1303,-0.1744,-0.2493,-0.2929,-0.2972,-0.3231,-0.3425,-0.3494,-0.2808,-0.1928,-0.1138,-0.007,0.1099,0.2263,0.298,0.336,0.3421,0.3713,0.3684,0.3214,0.2915,0.2554,0.2076,0.1698,0.1196,0.0567,0.0512,0.0324,0.0,0.0,0.0,0.0,0.0,0.0,0.0,0.0067,0.0135,0.0135,0.0135,0.0135,0.0135,0.0068,0.0069,0.0069,0.0,0.0,0.0,0.0,0.0,0.0,0.0,0.0,0.0,0.0,0.0,0.0077,0.0078,0.0079,0.0159,0.016,0.0161,0.0162,0.0162,0.0164,0.0412,0.1221,0.1721,0.2228,0.2642,0.3499,0.4449,0.529,0.6218,0.7227,0.806,0.8984,0.9943,1.0889,1.1407,1.1962,1.2423,1.2521,1.2692,1.3126,1.3561,1.3738,1.3838,1.3838,1.3905,1.4048,1.4048,1.3973,1.3759,1.398,1.4048,0.0,0.0,0.0,0.0,0.0,0.0,0.0,0.0,0.0,0.0,0.0,0.0,0.0,0.0,0.0,0.0,-0.0935,-0.14,-0.1781,-0.2768,-0.3427,-0.3385,-0.3862,-0.4263,-0.4231,-0.3916,-0.3171,-0.1931,-0.099,0.0,0.1169,0.2118,0.2714,0.2892,0.321,0.3189,0.2835,0.249,0.214,0.1725,0.115,0.0767,0.0512,0.0325,0.0131,0.0,0.0,0.0,0.0,0.0,0.0,0.0,0.0,0.0,0.0,0.0,0.0,0.0,0.0,0.0,0.0,0.0,0.0,0.0,0.0,0.0,0.0,0.0,0.0,0.0,0.0,0.0,0.0,0.0,0.0,0.0,0.0,0.0,0.0,0.0,0.0,0.0083,0.0499,0.0917,0.1504,0.2172,0.285,0.3625,0.4496,0.5433,0.6466,0.77,0.839,0.9261,1.0506,1.102,1.147,1.2048,1.2378,1.2675,1.2842,1.3359,1.3666,1.3666,1.3934,1.4136,1.4204,1.4204,1.417,1.4109,1.4177,1.4204,0.0,0.0,0.0,0.0,0.0,0.0,0.0,0.0,0.0,0.0,0.0,0.0,0.0,0.0,0.0,0.0,0.0,-0.1414,-0.1807,-0.2961,-0.3702,-0.3655,-0.4424,-0.4957,-0.5058,-0.4819,-0.4138,-0.2876,-0.2005,-0.0992,0.0139,0.1104,0.1847,0.2369,0.2628,0.2612,0.2321,0.2055,0.1711,0.1232,0.0714,0.0455,0.0325,0.0131,0.0,0.0,0.0,0.0,0.0,0.0,0.0,0.0,0.0,0.0,0.0,0.0,0.0,0.0,0.0,0.0,0.0,0.0,0.0,0.0,0.0,0.0,0.0,0.0,0.0,0.0,0.0,0.0,0.0,0.0,0.0,0.0,0.0,0.0,0.0,0.0,0.0,0.0,0.0,0.0423,0.093,0.169,0.2288,0.2981,0.3862,0.4808,0.5853,0.6938,0.7811,0.8692,0.9764,1.0366,1.0896,1.146,1.2062,1.2466,1.2553,1.3091,1.3502,1.3591,1.3945,1.421,1.4299,1.4299,1.4299,1.4299,1.4299,1.4299,0.0,0.0,0.0,0.0,0.0,0.0,0.0,0.0,0.0,0.0,0.0,0.0,0.0,0.0,0.0,0.0,0.0,0.0,0.0,-0.2983,-0.3749,-0.3702,-0.4673,-0.5493,-0.5937,-0.521,-0.4517,-0.4078,-0.2951,-0.1786,-0.0642,-0.0139,0.055,0.158,0.1627,0.1616,0.1615,0.1615,0.1269,0.0527,0.0527,0.0329,0.0,0.0,0.0,0.0,0.0,0.0,0.0,0.0,0.0,0.0,0.0,0.0,0.0,0.0,0.0,0.0,0.0,0.0,0.0,0.0,0.0,0.0,0.0,0.0,0.0,0.0,0.0,0.0,0.0,0.0,0.0,0.0,0.0,0.0,0.0,0.0,0.0,0.0,0.0,0.0,0.0,0.0428,0.0855,0.1368,0.2157,0.2868,0.3478,0.4691,0.5556,0.5559,0.7205,0.837,0.8548,0.943,1.0175,1.0722,1.1266,1.1716,1.216,1.2698,1.3147,1.3591,1.3591,1.3856,1.4299,1.4299,1.4299,1.4299,1.4299,1.4299,0.0,0.0,0.0,0.0,0.0,0.0,0.0,0.0,0.0,0.0,0.0,0.0,0.0,0.0,0.0,0.0,0.0,0.0,0.0,0.0,-0.4231,-0.5303,-0.5648,-0.5921,-0.6311,-0.6019,-0.5465,-0.4592,-0.3629,-0.2668,-0.1787,-0.0638,0.014,0.055,0.1026,0.1291,0.1279,0.101,0.0739,0.0468,0.0267,0.0134,0.0,0.0,0.0,0.0,0.0,0.0,0.0,0.0,0.0,0.0,0.0,0.0,0.0,0.0,0.0,0.0,0.0,0.0,0.0,0.0,0.0,0.0,0.0,0.0,0.0,0.0,0.0,0.0,0.0,0.0,0.0,0.0,0.0,0.0,0.0,0.0,0.0,0.0,0.0,0.0,0.0,0.0174,0.0436,0.0865,0.1475,0.2092,0.2899,0.4042,0.4932,0.5587,0.6476,0.7548,0.8465,0.9441,1.0081,1.0209,1.0743,1.101,1.1188,1.1988,1.2698,1.3141,1.3413,1.3856,1.4299,1.4299,1.4299,1.4299,1.4299,1.4299,0.0,0.0,0.0,0.0,0.0,0.0,0.0,0.0,0.0,0.0,0.0,0.0,0.0,0.0,0.0,0.0,0.0,0.0,0.0,-0.2983,-0.4395,-0.5883,-0.5989,-0.6183,-0.6727,-0.655,-0.6047,-0.5174,-0.4371,-0.3484,-0.2593,-0.1434,-0.0568,0.0,0.0486,0.0756,0.0882,0.061,0.0473,0.0337,0.0135,0.0,0.0,0.0,0.0,0.0,0.0,0.0,0.0,0.0,0.0,0.0,0.0,0.0,0.0,0.0,0.0,0.0,0.0,0.0,0.0,0.0,0.0,0.0,0.0,0.0,0.0,0.0,0.0,0.0,0.0,0.0,0.0,0.0,0.0,0.0,0.0,0.0,0.0,0.0,0.0,0.0,0.0,0.0,0.0176,0.0613,0.1141,0.1676,0.2487,0.3465,0.4364,0.5109,0.5831,0.6723,0.7974,0.8778,0.9317,0.9496,0.9941,1.0387,1.0654,1.1277,1.2077,1.2875,1.3236,1.3679,1.4299,1.4299,1.4299,1.4299,1.4299,1.4299]}]]